<?xml version="1.0" encoding="UTF-8" standalone="yes"?>
<gpx
 xmlns="http://www.topografix.com/GPX/1/1"
 creator="OziExplorer Version 3956f - http://www.oziexplorer.com"
 version="1.1"
 xmlns:xsi="http://www.w3.org/2001/XMLSchema-instance"
 xsi:schemaLocation="http://www.topografix.com/GPX/1/1 http://www.topografix.com/GPX/1/1/gpx.xsd">
<metadata>
 <time>2023-03-22T11:56:01Z</time>
 <bounds minlat="30.826040" minlon="34.622990" maxlat="30.923660" maxlon="34.786320"/>
</metadata>
<wpt lat="30.8757900" lon="34.7859400">
 <time>2023-03-22T11:56:50.158Z</time>
 <name>Start\Finish</name>
 <sym>Bike Trail</sym>
</wpt>
<wpt lat="30.8853400" lon="34.7752400">
 <time>2023-03-22T11:56:50.167Z</time>
 <name>Halukim</name>
 <sym>Flag, Red</sym>
</wpt>
<wpt lat="30.8471000" lon="34.7395600">
 <time>2023-03-22T11:56:50.167Z</time>
 <name>Jipovka</name>
 <sym>Flag, Red</sym>
</wpt>
<wpt lat="30.8822300" lon="34.6308400">
 <time>2023-03-22T11:56:50.167Z</time>
 <name>Shifta</name>
 <sym>Flag, Red</sym>
</wpt>
<wpt lat="30.9157000" lon="34.7178400">
 <time>2023-03-22T11:56:50.167Z</time>
 <name>Avatiah</name>
 <sym>Flag, Red</sym>
</wpt>
<wpt lat="30.9178500" lon="34.7292900">
 <time>2023-03-22T11:56:50.167Z</time>
 <name>Mearat haOtsar</name>
 <sym>Flag, Red</sym>
</wpt>
<wpt lat="30.9097500" lon="34.7590700">
 <time>2023-03-22T11:56:50.167Z</time>
 <name>Helmoniot\Meara</name>
 <sym>Flag, Red</sym>
</wpt>
<trk>
 <name>SdeBokerHalShivta,56km.450m.</name>
 <desc>SdeBokerHalShivta,56km.450m.</desc>
<trkseg>
<trkpt lat="30.8757600" lon="34.7859600">
<ele>455.729980</ele>
<time>2023-03-22T13:56:01.907Z</time>
</trkpt>
<trkpt lat="30.8757600" lon="34.7859800">
<ele>455.869995</ele>
<time>2023-03-22T13:56:01.907Z</time>
</trkpt>
<trkpt lat="30.8756300" lon="34.7863200">
<ele>460.450012</ele>
<time>2023-03-22T13:56:01.907Z</time>
</trkpt>
<trkpt lat="30.8757700" lon="34.7862500">
<ele>458.179993</ele>
<time>2023-03-22T13:56:01.907Z</time>
</trkpt>
<trkpt lat="30.8759100" lon="34.7860100">
<ele>455.009979</ele>
<time>2023-03-22T13:56:01.907Z</time>
</trkpt>
<trkpt lat="30.8760000" lon="34.7859200">
<ele>454.350006</ele>
<time>2023-03-22T13:56:01.907Z</time>
</trkpt>
<trkpt lat="30.8761600" lon="34.7857500">
<ele>453.629974</ele>
<time>2023-03-22T13:56:01.907Z</time>
</trkpt>
<trkpt lat="30.8764600" lon="34.7854700">
<ele>453.490021</ele>
<time>2023-03-22T13:56:01.907Z</time>
</trkpt>
<trkpt lat="30.8767700" lon="34.7851900">
<ele>456.279968</ele>
<time>2023-03-22T13:56:01.907Z</time>
</trkpt>
<trkpt lat="30.8769900" lon="34.7849200">
<ele>457.510010</ele>
<time>2023-03-22T13:56:01.907Z</time>
</trkpt>
<trkpt lat="30.8770800" lon="34.7848400">
<ele>458.110016</ele>
<time>2023-03-22T13:56:01.907Z</time>
</trkpt>
<trkpt lat="30.8772500" lon="34.7846700">
<ele>457.420013</ele>
<time>2023-03-22T13:56:01.907Z</time>
</trkpt>
<trkpt lat="30.8776500" lon="34.7843000">
<ele>450.800018</ele>
<time>2023-03-22T13:56:01.907Z</time>
</trkpt>
<trkpt lat="30.8779200" lon="34.7840600">
<ele>448.600006</ele>
<time>2023-03-22T13:56:01.907Z</time>
</trkpt>
<trkpt lat="30.8781100" lon="34.7838300">
<ele>450.910004</ele>
<time>2023-03-22T13:56:01.907Z</time>
</trkpt>
<trkpt lat="30.8784600" lon="34.7832300">
<ele>453.849976</ele>
<time>2023-03-22T13:56:01.907Z</time>
</trkpt>
<trkpt lat="30.8789500" lon="34.7822900">
<ele>454.410004</ele>
<time>2023-03-22T13:56:01.907Z</time>
</trkpt>
<trkpt lat="30.8802800" lon="34.7799100">
<ele>450.700012</ele>
<time>2023-03-22T13:56:01.907Z</time>
</trkpt>
<trkpt lat="30.8802800" lon="34.7799100">
<ele>450.700012</ele>
<time>2023-03-22T13:56:01.907Z</time>
</trkpt>
<trkpt lat="30.8819400" lon="34.7769300">
<ele>449.800018</ele>
<time>2023-03-22T13:56:01.907Z</time>
</trkpt>
<trkpt lat="30.8825100" lon="34.7761300">
<ele>447.309998</ele>
<time>2023-03-22T13:56:01.907Z</time>
</trkpt>
<trkpt lat="30.8831100" lon="34.7755000">
<ele>441.330017</ele>
<time>2023-03-22T13:56:01.907Z</time>
</trkpt>
<trkpt lat="30.8834600" lon="34.7754500">
<ele>437.779999</ele>
<time>2023-03-22T13:56:01.907Z</time>
</trkpt>
<trkpt lat="30.8839400" lon="34.7754000">
<ele>440.410004</ele>
<time>2023-03-22T13:56:01.907Z</time>
</trkpt>
<trkpt lat="30.8847300" lon="34.7753200">
<ele>443.679993</ele>
<time>2023-03-22T13:56:01.907Z</time>
</trkpt>
<trkpt lat="30.8853300" lon="34.7752400">
<ele>442.459991</ele>
<time>2023-03-22T13:56:01.908Z</time>
</trkpt>
<trkpt lat="30.8853400" lon="34.7750300">
<ele>442.940002</ele>
<time>2023-03-22T13:56:01.908Z</time>
</trkpt>
<trkpt lat="30.8853900" lon="34.7747900">
<ele>447.540009</ele>
<time>2023-03-22T13:56:01.908Z</time>
</trkpt>
<trkpt lat="30.8853600" lon="34.7744000">
<ele>460.479980</ele>
<time>2023-03-22T13:56:01.908Z</time>
</trkpt>
<trkpt lat="30.8852600" lon="34.7739700">
<ele>468.459991</ele>
<time>2023-03-22T13:56:01.908Z</time>
</trkpt>
<trkpt lat="30.8852200" lon="34.7738900">
<ele>469.200012</ele>
<time>2023-03-22T13:56:01.908Z</time>
</trkpt>
<trkpt lat="30.8850600" lon="34.7736400">
<ele>469.779999</ele>
<time>2023-03-22T13:56:01.908Z</time>
</trkpt>
<trkpt lat="30.8849800" lon="34.7735600">
<ele>469.000000</ele>
<time>2023-03-22T13:56:01.908Z</time>
</trkpt>
<trkpt lat="30.8848600" lon="34.7734800">
<ele>466.570007</ele>
<time>2023-03-22T13:56:01.908Z</time>
</trkpt>
<trkpt lat="30.8847900" lon="34.7734600">
<ele>465.619995</ele>
<time>2023-03-22T13:56:01.908Z</time>
</trkpt>
<trkpt lat="30.8845600" lon="34.7734900">
<ele>462.130005</ele>
<time>2023-03-22T13:56:01.908Z</time>
</trkpt>
<trkpt lat="30.8844400" lon="34.7735000">
<ele>459.899994</ele>
<time>2023-03-22T13:56:01.908Z</time>
</trkpt>
<trkpt lat="30.8843500" lon="34.7734900">
<ele>457.869995</ele>
<time>2023-03-22T13:56:01.908Z</time>
</trkpt>
<trkpt lat="30.8842100" lon="34.7734300">
<ele>455.450012</ele>
<time>2023-03-22T13:56:01.908Z</time>
</trkpt>
<trkpt lat="30.8841000" lon="34.7733600">
<ele>454.850006</ele>
<time>2023-03-22T13:56:01.908Z</time>
</trkpt>
<trkpt lat="30.8840000" lon="34.7732600">
<ele>456.419983</ele>
<time>2023-03-22T13:56:01.908Z</time>
</trkpt>
<trkpt lat="30.8839000" lon="34.7731300">
<ele>460.320007</ele>
<time>2023-03-22T13:56:01.908Z</time>
</trkpt>
<trkpt lat="30.8838000" lon="34.7729600">
<ele>463.579987</ele>
<time>2023-03-22T13:56:01.908Z</time>
</trkpt>
<trkpt lat="30.8836700" lon="34.7726300">
<ele>464.629974</ele>
<time>2023-03-22T13:56:01.908Z</time>
</trkpt>
<trkpt lat="30.8835500" lon="34.7724400">
<ele>466.399994</ele>
<time>2023-03-22T13:56:01.908Z</time>
</trkpt>
<trkpt lat="30.8835500" lon="34.7723500">
<ele>467.519989</ele>
<time>2023-03-22T13:56:01.908Z</time>
</trkpt>
<trkpt lat="30.8835500" lon="34.7723500">
<ele>467.519989</ele>
<time>2023-03-22T13:56:01.908Z</time>
</trkpt>
<trkpt lat="30.8835500" lon="34.7723500">
<ele>467.519989</ele>
<time>2023-03-22T13:56:01.908Z</time>
</trkpt>
<trkpt lat="30.8835500" lon="34.7723500">
<ele>467.519989</ele>
<time>2023-03-22T13:56:01.908Z</time>
</trkpt>
<trkpt lat="30.8836000" lon="34.7722600">
<ele>467.779999</ele>
<time>2023-03-22T13:56:01.909Z</time>
</trkpt>
<trkpt lat="30.8837900" lon="34.7721900">
<ele>467.450012</ele>
<time>2023-03-22T13:56:01.909Z</time>
</trkpt>
<trkpt lat="30.8838800" lon="34.7721400">
<ele>467.850006</ele>
<time>2023-03-22T13:56:01.909Z</time>
</trkpt>
<trkpt lat="30.8841200" lon="34.7718700">
<ele>471.510010</ele>
<time>2023-03-22T13:56:01.909Z</time>
</trkpt>
<trkpt lat="30.8842900" lon="34.7717500">
<ele>474.730011</ele>
<time>2023-03-22T13:56:01.909Z</time>
</trkpt>
<trkpt lat="30.8844400" lon="34.7716900">
<ele>476.410004</ele>
<time>2023-03-22T13:56:01.909Z</time>
</trkpt>
<trkpt lat="30.8845800" lon="34.7716700">
<ele>477.410004</ele>
<time>2023-03-22T13:56:01.909Z</time>
</trkpt>
<trkpt lat="30.8847200" lon="34.7716800">
<ele>477.699982</ele>
<time>2023-03-22T13:56:01.909Z</time>
</trkpt>
<trkpt lat="30.8847900" lon="34.7716400">
<ele>479.000000</ele>
<time>2023-03-22T13:56:01.909Z</time>
</trkpt>
<trkpt lat="30.8848200" lon="34.7716000">
<ele>479.690002</ele>
<time>2023-03-22T13:56:01.909Z</time>
</trkpt>
<trkpt lat="30.8848600" lon="34.7714500">
<ele>481.440002</ele>
<time>2023-03-22T13:56:01.909Z</time>
</trkpt>
<trkpt lat="30.8849100" lon="34.7713800">
<ele>482.320007</ele>
<time>2023-03-22T13:56:01.909Z</time>
</trkpt>
<trkpt lat="30.8849700" lon="34.7713400">
<ele>482.489990</ele>
<time>2023-03-22T13:56:01.909Z</time>
</trkpt>
<trkpt lat="30.8851600" lon="34.7713600">
<ele>483.429993</ele>
<time>2023-03-22T13:56:01.909Z</time>
</trkpt>
<trkpt lat="30.8853200" lon="34.7713400">
<ele>483.949982</ele>
<time>2023-03-22T13:56:01.909Z</time>
</trkpt>
<trkpt lat="30.8854600" lon="34.7712900">
<ele>484.069977</ele>
<time>2023-03-22T13:56:01.909Z</time>
</trkpt>
<trkpt lat="30.8855100" lon="34.7712200">
<ele>483.720032</ele>
<time>2023-03-22T13:56:01.909Z</time>
</trkpt>
<trkpt lat="30.8855200" lon="34.7711900">
<ele>483.529999</ele>
<time>2023-03-22T13:56:01.909Z</time>
</trkpt>
<trkpt lat="30.8855200" lon="34.7711900">
<ele>483.529999</ele>
<time>2023-03-22T13:56:01.909Z</time>
</trkpt>
<trkpt lat="30.8855300" lon="34.7710900">
<ele>482.560028</ele>
<time>2023-03-22T13:56:01.909Z</time>
</trkpt>
<trkpt lat="30.8855300" lon="34.7709900">
<ele>480.460022</ele>
<time>2023-03-22T13:56:01.909Z</time>
</trkpt>
<trkpt lat="30.8852900" lon="34.7706900">
<ele>475.820007</ele>
<time>2023-03-22T13:56:01.909Z</time>
</trkpt>
<trkpt lat="30.8852200" lon="34.7706500">
<ele>475.320007</ele>
<time>2023-03-22T13:56:01.909Z</time>
</trkpt>
<trkpt lat="30.8851200" lon="34.7706500">
<ele>475.800018</ele>
<time>2023-03-22T13:56:01.909Z</time>
</trkpt>
<trkpt lat="30.8849500" lon="34.7707400">
<ele>478.289978</ele>
<time>2023-03-22T13:56:01.909Z</time>
</trkpt>
<trkpt lat="30.8848300" lon="34.7708400">
<ele>479.820007</ele>
<time>2023-03-22T13:56:01.909Z</time>
</trkpt>
<trkpt lat="30.8847800" lon="34.7708500">
<ele>479.559998</ele>
<time>2023-03-22T13:56:01.910Z</time>
</trkpt>
<trkpt lat="30.8847200" lon="34.7708700">
<ele>479.399994</ele>
<time>2023-03-22T13:56:01.910Z</time>
</trkpt>
<trkpt lat="30.8846500" lon="34.7708900">
<ele>479.669983</ele>
<time>2023-03-22T13:56:01.910Z</time>
</trkpt>
<trkpt lat="30.8845900" lon="34.7708900">
<ele>479.709991</ele>
<time>2023-03-22T13:56:01.910Z</time>
</trkpt>
<trkpt lat="30.8845100" lon="34.7709300">
<ele>480.309998</ele>
<time>2023-03-22T13:56:01.910Z</time>
</trkpt>
<trkpt lat="30.8844200" lon="34.7709800">
<ele>481.069977</ele>
<time>2023-03-22T13:56:01.910Z</time>
</trkpt>
<trkpt lat="30.8843400" lon="34.7710400">
<ele>481.879974</ele>
<time>2023-03-22T13:56:01.910Z</time>
</trkpt>
<trkpt lat="30.8842400" lon="34.7710900">
<ele>482.640015</ele>
<time>2023-03-22T13:56:01.910Z</time>
</trkpt>
<trkpt lat="30.8841500" lon="34.7711100">
<ele>482.679993</ele>
<time>2023-03-22T13:56:01.910Z</time>
</trkpt>
<trkpt lat="30.8840600" lon="34.7711400">
<ele>481.140015</ele>
<time>2023-03-22T13:56:01.910Z</time>
</trkpt>
<trkpt lat="30.8839800" lon="34.7711600">
<ele>479.699982</ele>
<time>2023-03-22T13:56:01.910Z</time>
</trkpt>
<trkpt lat="30.8839100" lon="34.7711700">
<ele>478.399994</ele>
<time>2023-03-22T13:56:01.910Z</time>
</trkpt>
<trkpt lat="30.8838300" lon="34.7711700">
<ele>478.380005</ele>
<time>2023-03-22T13:56:01.910Z</time>
</trkpt>
<trkpt lat="30.8837600" lon="34.7711700">
<ele>478.830017</ele>
<time>2023-03-22T13:56:01.910Z</time>
</trkpt>
<trkpt lat="30.8836900" lon="34.7711700">
<ele>479.279999</ele>
<time>2023-03-22T13:56:01.910Z</time>
</trkpt>
<trkpt lat="30.8836300" lon="34.7711500">
<ele>479.730011</ele>
<time>2023-03-22T13:56:01.910Z</time>
</trkpt>
<trkpt lat="30.8835700" lon="34.7711300">
<ele>480.369995</ele>
<time>2023-03-22T13:56:01.910Z</time>
</trkpt>
<trkpt lat="30.8835100" lon="34.7710900">
<ele>481.119995</ele>
<time>2023-03-22T13:56:01.910Z</time>
</trkpt>
<trkpt lat="30.8834700" lon="34.7710400">
<ele>481.649994</ele>
<time>2023-03-22T13:56:01.910Z</time>
</trkpt>
<trkpt lat="30.8834400" lon="34.7709800">
<ele>482.139984</ele>
<time>2023-03-22T13:56:01.910Z</time>
</trkpt>
<trkpt lat="30.8833900" lon="34.7709300">
<ele>482.909973</ele>
<time>2023-03-22T13:56:01.910Z</time>
</trkpt>
<trkpt lat="30.8833300" lon="34.7708800">
<ele>483.859985</ele>
<time>2023-03-22T13:56:01.910Z</time>
</trkpt>
<trkpt lat="30.8832700" lon="34.7708200">
<ele>484.470001</ele>
<time>2023-03-22T13:56:01.910Z</time>
</trkpt>
<trkpt lat="30.8832100" lon="34.7707600">
<ele>484.250000</ele>
<time>2023-03-22T13:56:01.910Z</time>
</trkpt>
<trkpt lat="30.8831600" lon="34.7706900">
<ele>483.939972</ele>
<time>2023-03-22T13:56:01.910Z</time>
</trkpt>
<trkpt lat="30.8831100" lon="34.7706300">
<ele>483.930023</ele>
<time>2023-03-22T13:56:01.911Z</time>
</trkpt>
<trkpt lat="30.8830500" lon="34.7705800">
<ele>484.289978</ele>
<time>2023-03-22T13:56:01.911Z</time>
</trkpt>
<trkpt lat="30.8830000" lon="34.7705400">
<ele>484.149994</ele>
<time>2023-03-22T13:56:01.911Z</time>
</trkpt>
<trkpt lat="30.8829500" lon="34.7705000">
<ele>483.989990</ele>
<time>2023-03-22T13:56:01.911Z</time>
</trkpt>
<trkpt lat="30.8828800" lon="34.7704500">
<ele>484.079987</ele>
<time>2023-03-22T13:56:01.911Z</time>
</trkpt>
<trkpt lat="30.8828200" lon="34.7704200">
<ele>484.500000</ele>
<time>2023-03-22T13:56:01.911Z</time>
</trkpt>
<trkpt lat="30.8827400" lon="34.7703700">
<ele>484.940002</ele>
<time>2023-03-22T13:56:01.911Z</time>
</trkpt>
<trkpt lat="30.8826800" lon="34.7703400">
<ele>485.380005</ele>
<time>2023-03-22T13:56:01.911Z</time>
</trkpt>
<trkpt lat="30.8826200" lon="34.7703300">
<ele>486.010010</ele>
<time>2023-03-22T13:56:01.911Z</time>
</trkpt>
<trkpt lat="30.8825600" lon="34.7703100">
<ele>486.820007</ele>
<time>2023-03-22T13:56:01.911Z</time>
</trkpt>
<trkpt lat="30.8821700" lon="34.7701300">
<ele>487.730011</ele>
<time>2023-03-22T13:56:01.911Z</time>
</trkpt>
<trkpt lat="30.8819400" lon="34.7700700">
<ele>484.069977</ele>
<time>2023-03-22T13:56:01.911Z</time>
</trkpt>
<trkpt lat="30.8818600" lon="34.7700700">
<ele>485.290009</ele>
<time>2023-03-22T13:56:01.911Z</time>
</trkpt>
<trkpt lat="30.8816300" lon="34.7701000">
<ele>488.190002</ele>
<time>2023-03-22T13:56:01.911Z</time>
</trkpt>
<trkpt lat="30.8814400" lon="34.7701500">
<ele>489.519989</ele>
<time>2023-03-22T13:56:01.911Z</time>
</trkpt>
<trkpt lat="30.8812800" lon="34.7702200">
<ele>490.470001</ele>
<time>2023-03-22T13:56:01.911Z</time>
</trkpt>
<trkpt lat="30.8812700" lon="34.7702700">
<ele>490.440002</ele>
<time>2023-03-22T13:56:01.911Z</time>
</trkpt>
<trkpt lat="30.8808600" lon="34.7700500">
<ele>491.660004</ele>
<time>2023-03-22T13:56:01.911Z</time>
</trkpt>
<trkpt lat="30.8808000" lon="34.7699500">
<ele>491.599976</ele>
<time>2023-03-22T13:56:01.911Z</time>
</trkpt>
<trkpt lat="30.8805900" lon="34.7697200">
<ele>490.109985</ele>
<time>2023-03-22T13:56:01.911Z</time>
</trkpt>
<trkpt lat="30.8804400" lon="34.7694800">
<ele>488.259979</ele>
<time>2023-03-22T13:56:01.911Z</time>
</trkpt>
<trkpt lat="30.8803100" lon="34.7693400">
<ele>487.669983</ele>
<time>2023-03-22T13:56:01.911Z</time>
</trkpt>
<trkpt lat="30.8801000" lon="34.7691500">
<ele>485.239990</ele>
<time>2023-03-22T13:56:01.911Z</time>
</trkpt>
<trkpt lat="30.8797900" lon="34.7687400">
<ele>489.010010</ele>
<time>2023-03-22T13:56:01.911Z</time>
</trkpt>
<trkpt lat="30.8797200" lon="34.7686700">
<ele>490.160004</ele>
<time>2023-03-22T13:56:01.911Z</time>
</trkpt>
<trkpt lat="30.8793800" lon="34.7684700">
<ele>492.390015</ele>
<time>2023-03-22T13:56:01.912Z</time>
</trkpt>
<trkpt lat="30.8791500" lon="34.7684100">
<ele>491.980011</ele>
<time>2023-03-22T13:56:01.912Z</time>
</trkpt>
<trkpt lat="30.8789800" lon="34.7684200">
<ele>487.209991</ele>
<time>2023-03-22T13:56:01.912Z</time>
</trkpt>
<trkpt lat="30.8787900" lon="34.7683800">
<ele>482.699982</ele>
<time>2023-03-22T13:56:01.912Z</time>
</trkpt>
<trkpt lat="30.8786100" lon="34.7682800">
<ele>480.160004</ele>
<time>2023-03-22T13:56:01.912Z</time>
</trkpt>
<trkpt lat="30.8783900" lon="34.7680300">
<ele>485.440002</ele>
<time>2023-03-22T13:56:01.912Z</time>
</trkpt>
<trkpt lat="30.8783200" lon="34.7679800">
<ele>485.959991</ele>
<time>2023-03-22T13:56:01.912Z</time>
</trkpt>
<trkpt lat="30.8783200" lon="34.7679800">
<ele>485.959991</ele>
<time>2023-03-22T13:56:01.912Z</time>
</trkpt>
<trkpt lat="30.8783200" lon="34.7679800">
<ele>485.959991</ele>
<time>2023-03-22T13:56:01.912Z</time>
</trkpt>
<trkpt lat="30.8783200" lon="34.7679800">
<ele>485.959991</ele>
<time>2023-03-22T13:56:01.912Z</time>
</trkpt>
<trkpt lat="30.8782100" lon="34.7679200">
<ele>485.839996</ele>
<time>2023-03-22T13:56:01.912Z</time>
</trkpt>
<trkpt lat="30.8780200" lon="34.7678900">
<ele>483.979980</ele>
<time>2023-03-22T13:56:01.912Z</time>
</trkpt>
<trkpt lat="30.8776900" lon="34.7679500">
<ele>476.910004</ele>
<time>2023-03-22T13:56:01.912Z</time>
</trkpt>
<trkpt lat="30.8775700" lon="34.7679200">
<ele>477.009979</ele>
<time>2023-03-22T13:56:01.912Z</time>
</trkpt>
<trkpt lat="30.8773500" lon="34.7677400">
<ele>474.890015</ele>
<time>2023-03-22T13:56:01.912Z</time>
</trkpt>
<trkpt lat="30.8772000" lon="34.7676400">
<ele>471.699982</ele>
<time>2023-03-22T13:56:01.912Z</time>
</trkpt>
<trkpt lat="30.8771400" lon="34.7675400">
<ele>468.679993</ele>
<time>2023-03-22T13:56:01.912Z</time>
</trkpt>
<trkpt lat="30.8771300" lon="34.7672000">
<ele>465.410004</ele>
<time>2023-03-22T13:56:01.912Z</time>
</trkpt>
<trkpt lat="30.8771100" lon="34.7670800">
<ele>463.750000</ele>
<time>2023-03-22T13:56:01.912Z</time>
</trkpt>
<trkpt lat="30.8769500" lon="34.7665900">
<ele>454.919983</ele>
<time>2023-03-22T13:56:01.912Z</time>
</trkpt>
<trkpt lat="30.8769000" lon="34.7665200">
<ele>454.520020</ele>
<time>2023-03-22T13:56:01.912Z</time>
</trkpt>
<trkpt lat="30.8768200" lon="34.7664400">
<ele>454.239990</ele>
<time>2023-03-22T13:56:01.912Z</time>
</trkpt>
<trkpt lat="30.8763500" lon="34.7660100">
<ele>467.649994</ele>
<time>2023-03-22T13:56:01.912Z</time>
</trkpt>
<trkpt lat="30.8762500" lon="34.7659400">
<ele>469.850006</ele>
<time>2023-03-22T13:56:01.912Z</time>
</trkpt>
<trkpt lat="30.8761200" lon="34.7658700">
<ele>472.480011</ele>
<time>2023-03-22T13:56:01.912Z</time>
</trkpt>
<trkpt lat="30.8758100" lon="34.7657500">
<ele>478.950012</ele>
<time>2023-03-22T13:56:01.912Z</time>
</trkpt>
<trkpt lat="30.8757400" lon="34.7656800">
<ele>477.619995</ele>
<time>2023-03-22T13:56:01.913Z</time>
</trkpt>
<trkpt lat="30.8756600" lon="34.7655600">
<ele>478.740021</ele>
<time>2023-03-22T13:56:01.913Z</time>
</trkpt>
<trkpt lat="30.8756100" lon="34.7654000">
<ele>479.990021</ele>
<time>2023-03-22T13:56:01.913Z</time>
</trkpt>
<trkpt lat="30.8755600" lon="34.7652000">
<ele>481.529999</ele>
<time>2023-03-22T13:56:01.913Z</time>
</trkpt>
<trkpt lat="30.8754900" lon="34.7650700">
<ele>481.969971</ele>
<time>2023-03-22T13:56:01.913Z</time>
</trkpt>
<trkpt lat="30.8753000" lon="34.7648100">
<ele>475.929993</ele>
<time>2023-03-22T13:56:01.913Z</time>
</trkpt>
<trkpt lat="30.8751400" lon="34.7643300">
<ele>473.839996</ele>
<time>2023-03-22T13:56:01.913Z</time>
</trkpt>
<trkpt lat="30.8748300" lon="34.7638800">
<ele>479.540009</ele>
<time>2023-03-22T13:56:01.913Z</time>
</trkpt>
<trkpt lat="30.8747400" lon="34.7638500">
<ele>479.880005</ele>
<time>2023-03-22T13:56:01.913Z</time>
</trkpt>
<trkpt lat="30.8746100" lon="34.7638500">
<ele>480.019989</ele>
<time>2023-03-22T13:56:01.913Z</time>
</trkpt>
<trkpt lat="30.8743100" lon="34.7639300">
<ele>479.369995</ele>
<time>2023-03-22T13:56:01.913Z</time>
</trkpt>
<trkpt lat="30.8741400" lon="34.7639400">
<ele>479.730011</ele>
<time>2023-03-22T13:56:01.913Z</time>
</trkpt>
<trkpt lat="30.8740300" lon="34.7639200">
<ele>480.269989</ele>
<time>2023-03-22T13:56:01.913Z</time>
</trkpt>
<trkpt lat="30.8739300" lon="34.7638600">
<ele>481.309998</ele>
<time>2023-03-22T13:56:01.913Z</time>
</trkpt>
<trkpt lat="30.8737300" lon="34.7637300">
<ele>481.409973</ele>
<time>2023-03-22T13:56:01.913Z</time>
</trkpt>
<trkpt lat="30.8735100" lon="34.7636300">
<ele>479.679993</ele>
<time>2023-03-22T13:56:01.913Z</time>
</trkpt>
<trkpt lat="30.8732300" lon="34.7635800">
<ele>472.790009</ele>
<time>2023-03-22T13:56:01.913Z</time>
</trkpt>
<trkpt lat="30.8730300" lon="34.7635200">
<ele>470.620026</ele>
<time>2023-03-22T13:56:01.913Z</time>
</trkpt>
<trkpt lat="30.8726900" lon="34.7634900">
<ele>476.449982</ele>
<time>2023-03-22T13:56:01.913Z</time>
</trkpt>
<trkpt lat="30.8724500" lon="34.7633200">
<ele>482.529999</ele>
<time>2023-03-22T13:56:01.913Z</time>
</trkpt>
<trkpt lat="30.8724000" lon="34.7632700">
<ele>483.470001</ele>
<time>2023-03-22T13:56:01.913Z</time>
</trkpt>
<trkpt lat="30.8723800" lon="34.7631600">
<ele>484.820007</ele>
<time>2023-03-22T13:56:01.913Z</time>
</trkpt>
<trkpt lat="30.8723600" lon="34.7629700">
<ele>486.769989</ele>
<time>2023-03-22T13:56:01.913Z</time>
</trkpt>
<trkpt lat="30.8723300" lon="34.7628900">
<ele>487.419983</ele>
<time>2023-03-22T13:56:01.913Z</time>
</trkpt>
<trkpt lat="30.8722500" lon="34.7627900">
<ele>488.009979</ele>
<time>2023-03-22T13:56:01.913Z</time>
</trkpt>
<trkpt lat="30.8721200" lon="34.7627000">
<ele>488.940002</ele>
<time>2023-03-22T13:56:01.913Z</time>
</trkpt>
<trkpt lat="30.8720100" lon="34.7626500">
<ele>489.230011</ele>
<time>2023-03-22T13:56:01.914Z</time>
</trkpt>
<trkpt lat="30.8718700" lon="34.7626500">
<ele>488.100006</ele>
<time>2023-03-22T13:56:01.914Z</time>
</trkpt>
<trkpt lat="30.8716500" lon="34.7626900">
<ele>485.320007</ele>
<time>2023-03-22T13:56:01.914Z</time>
</trkpt>
<trkpt lat="30.8713100" lon="34.7626900">
<ele>481.690002</ele>
<time>2023-03-22T13:56:01.914Z</time>
</trkpt>
<trkpt lat="30.8710700" lon="34.7626500">
<ele>483.460022</ele>
<time>2023-03-22T13:56:01.914Z</time>
</trkpt>
<trkpt lat="30.8708200" lon="34.7626900">
<ele>481.169983</ele>
<time>2023-03-22T13:56:01.914Z</time>
</trkpt>
<trkpt lat="30.8704100" lon="34.7627100">
<ele>488.190002</ele>
<time>2023-03-22T13:56:01.914Z</time>
</trkpt>
<trkpt lat="30.8702600" lon="34.7627000">
<ele>490.430023</ele>
<time>2023-03-22T13:56:01.914Z</time>
</trkpt>
<trkpt lat="30.8701200" lon="34.7626500">
<ele>493.900024</ele>
<time>2023-03-22T13:56:01.914Z</time>
</trkpt>
<trkpt lat="30.8697800" lon="34.7624000">
<ele>507.489990</ele>
<time>2023-03-22T13:56:01.914Z</time>
</trkpt>
<trkpt lat="30.8694500" lon="34.7622500">
<ele>509.130005</ele>
<time>2023-03-22T13:56:01.914Z</time>
</trkpt>
<trkpt lat="30.8694500" lon="34.7622500">
<ele>509.130005</ele>
<time>2023-03-22T13:56:01.914Z</time>
</trkpt>
<trkpt lat="30.8694500" lon="34.7622500">
<ele>509.130005</ele>
<time>2023-03-22T13:56:01.914Z</time>
</trkpt>
<trkpt lat="30.8690700" lon="34.7621800">
<ele>506.459991</ele>
<time>2023-03-22T13:56:01.914Z</time>
</trkpt>
<trkpt lat="30.8688800" lon="34.7621700">
<ele>504.109985</ele>
<time>2023-03-22T13:56:01.914Z</time>
</trkpt>
<trkpt lat="30.8686000" lon="34.7622600">
<ele>500.830017</ele>
<time>2023-03-22T13:56:01.914Z</time>
</trkpt>
<trkpt lat="30.8684300" lon="34.7622600">
<ele>498.299988</ele>
<time>2023-03-22T13:56:01.914Z</time>
</trkpt>
<trkpt lat="30.8681100" lon="34.7623200">
<ele>493.720001</ele>
<time>2023-03-22T13:56:01.914Z</time>
</trkpt>
<trkpt lat="30.8680200" lon="34.7623700">
<ele>493.000000</ele>
<time>2023-03-22T13:56:01.914Z</time>
</trkpt>
<trkpt lat="30.8679200" lon="34.7624600">
<ele>493.000000</ele>
<time>2023-03-22T13:56:01.914Z</time>
</trkpt>
<trkpt lat="30.8678300" lon="34.7625700">
<ele>493.650024</ele>
<time>2023-03-22T13:56:01.914Z</time>
</trkpt>
<trkpt lat="30.8677000" lon="34.7628200">
<ele>495.970001</ele>
<time>2023-03-22T13:56:01.914Z</time>
</trkpt>
<trkpt lat="30.8676300" lon="34.7629300">
<ele>496.529999</ele>
<time>2023-03-22T13:56:01.914Z</time>
</trkpt>
<trkpt lat="30.8675100" lon="34.7630000">
<ele>496.410004</ele>
<time>2023-03-22T13:56:01.914Z</time>
</trkpt>
<trkpt lat="30.8672900" lon="34.7630600">
<ele>497.509979</ele>
<time>2023-03-22T13:56:01.914Z</time>
</trkpt>
<trkpt lat="30.8672300" lon="34.7631000">
<ele>497.800018</ele>
<time>2023-03-22T13:56:01.914Z</time>
</trkpt>
<trkpt lat="30.8671700" lon="34.7631600">
<ele>498.350006</ele>
<time>2023-03-22T13:56:01.915Z</time>
</trkpt>
<trkpt lat="30.8669800" lon="34.7634900">
<ele>499.670013</ele>
<time>2023-03-22T13:56:01.915Z</time>
</trkpt>
<trkpt lat="30.8668800" lon="34.7637700">
<ele>501.189972</ele>
<time>2023-03-22T13:56:01.915Z</time>
</trkpt>
<trkpt lat="30.8667800" lon="34.7638800">
<ele>500.610016</ele>
<time>2023-03-22T13:56:01.915Z</time>
</trkpt>
<trkpt lat="30.8666600" lon="34.7639500">
<ele>499.430023</ele>
<time>2023-03-22T13:56:01.915Z</time>
</trkpt>
<trkpt lat="30.8663100" lon="34.7640000">
<ele>499.909973</ele>
<time>2023-03-22T13:56:01.915Z</time>
</trkpt>
<trkpt lat="30.8658900" lon="34.7641300">
<ele>502.059998</ele>
<time>2023-03-22T13:56:01.915Z</time>
</trkpt>
<trkpt lat="30.8657900" lon="34.7641400">
<ele>502.080017</ele>
<time>2023-03-22T13:56:01.915Z</time>
</trkpt>
<trkpt lat="30.8653900" lon="34.7639900">
<ele>507.430023</ele>
<time>2023-03-22T13:56:01.915Z</time>
</trkpt>
<trkpt lat="30.8650500" lon="34.7639600">
<ele>510.980011</ele>
<time>2023-03-22T13:56:01.915Z</time>
</trkpt>
<trkpt lat="30.8648300" lon="34.7640100">
<ele>508.720032</ele>
<time>2023-03-22T13:56:01.915Z</time>
</trkpt>
<trkpt lat="30.8645200" lon="34.7641200">
<ele>502.880005</ele>
<time>2023-03-22T13:56:01.915Z</time>
</trkpt>
<trkpt lat="30.8641400" lon="34.7641600">
<ele>500.399994</ele>
<time>2023-03-22T13:56:01.915Z</time>
</trkpt>
<trkpt lat="30.8637700" lon="34.7642400">
<ele>505.230011</ele>
<time>2023-03-22T13:56:01.915Z</time>
</trkpt>
<trkpt lat="30.8635900" lon="34.7643400">
<ele>507.630005</ele>
<time>2023-03-22T13:56:01.915Z</time>
</trkpt>
<trkpt lat="30.8634900" lon="34.7644100">
<ele>509.369995</ele>
<time>2023-03-22T13:56:01.915Z</time>
</trkpt>
<trkpt lat="30.8631300" lon="34.7647800">
<ele>512.919983</ele>
<time>2023-03-22T13:56:01.915Z</time>
</trkpt>
<trkpt lat="30.8630000" lon="34.7648700">
<ele>509.769989</ele>
<time>2023-03-22T13:56:01.915Z</time>
</trkpt>
<trkpt lat="30.8628400" lon="34.7649400">
<ele>502.580017</ele>
<time>2023-03-22T13:56:01.915Z</time>
</trkpt>
<trkpt lat="30.8626600" lon="34.7649900">
<ele>498.279999</ele>
<time>2023-03-22T13:56:01.915Z</time>
</trkpt>
<trkpt lat="30.8621300" lon="34.7650000">
<ele>500.989990</ele>
<time>2023-03-22T13:56:01.915Z</time>
</trkpt>
<trkpt lat="30.8618300" lon="34.7649600">
<ele>511.619995</ele>
<time>2023-03-22T13:56:01.915Z</time>
</trkpt>
<trkpt lat="30.8617300" lon="34.7649600">
<ele>514.390015</ele>
<time>2023-03-22T13:56:01.915Z</time>
</trkpt>
<trkpt lat="30.8615100" lon="34.7649900">
<ele>518.049988</ele>
<time>2023-03-22T13:56:01.915Z</time>
</trkpt>
<trkpt lat="30.8611100" lon="34.7651200">
<ele>522.140015</ele>
<time>2023-03-22T13:56:01.915Z</time>
</trkpt>
<trkpt lat="30.8610200" lon="34.7651300">
<ele>522.239990</ele>
<time>2023-03-22T13:56:01.915Z</time>
</trkpt>
<trkpt lat="30.8604900" lon="34.7651100">
<ele>525.390015</ele>
<time>2023-03-22T13:56:01.915Z</time>
</trkpt>
<trkpt lat="30.8601500" lon="34.7650800">
<ele>525.799988</ele>
<time>2023-03-22T13:56:01.916Z</time>
</trkpt>
<trkpt lat="30.8598800" lon="34.7650200">
<ele>525.510010</ele>
<time>2023-03-22T13:56:01.916Z</time>
</trkpt>
<trkpt lat="30.8596900" lon="34.7650200">
<ele>526.059998</ele>
<time>2023-03-22T13:56:01.916Z</time>
</trkpt>
<trkpt lat="30.8594600" lon="34.7651100">
<ele>528.619995</ele>
<time>2023-03-22T13:56:01.916Z</time>
</trkpt>
<trkpt lat="30.8593300" lon="34.7651200">
<ele>530.369995</ele>
<time>2023-03-22T13:56:01.916Z</time>
</trkpt>
<trkpt lat="30.8591500" lon="34.7650800">
<ele>532.529968</ele>
<time>2023-03-22T13:56:01.916Z</time>
</trkpt>
<trkpt lat="30.8590000" lon="34.7651000">
<ele>538.630005</ele>
<time>2023-03-22T13:56:01.916Z</time>
</trkpt>
<trkpt lat="30.8586900" lon="34.7652200">
<ele>550.880005</ele>
<time>2023-03-22T13:56:01.916Z</time>
</trkpt>
<trkpt lat="30.8585600" lon="34.7652900">
<ele>554.239990</ele>
<time>2023-03-22T13:56:01.916Z</time>
</trkpt>
<trkpt lat="30.8584800" lon="34.7649800">
<ele>555.229980</ele>
<time>2023-03-22T13:56:01.916Z</time>
</trkpt>
<trkpt lat="30.8584800" lon="34.7647500">
<ele>553.140015</ele>
<time>2023-03-22T13:56:01.916Z</time>
</trkpt>
<trkpt lat="30.8585000" lon="34.7646700">
<ele>551.619995</ele>
<time>2023-03-22T13:56:01.916Z</time>
</trkpt>
<trkpt lat="30.8586100" lon="34.7644800">
<ele>545.790039</ele>
<time>2023-03-22T13:56:01.916Z</time>
</trkpt>
<trkpt lat="30.8586400" lon="34.7644000">
<ele>543.369995</ele>
<time>2023-03-22T13:56:01.916Z</time>
</trkpt>
<trkpt lat="30.8586600" lon="34.7642800">
<ele>541.179993</ele>
<time>2023-03-22T13:56:01.916Z</time>
</trkpt>
<trkpt lat="30.8586500" lon="34.7641900">
<ele>540.320007</ele>
<time>2023-03-22T13:56:01.916Z</time>
</trkpt>
<trkpt lat="30.8586000" lon="34.7640900">
<ele>541.479980</ele>
<time>2023-03-22T13:56:01.916Z</time>
</trkpt>
<trkpt lat="30.8583700" lon="34.7638200">
<ele>545.349976</ele>
<time>2023-03-22T13:56:01.916Z</time>
</trkpt>
<trkpt lat="30.8580300" lon="34.7635200">
<ele>549.679993</ele>
<time>2023-03-22T13:56:01.916Z</time>
</trkpt>
<trkpt lat="30.8578300" lon="34.7633700">
<ele>550.809998</ele>
<time>2023-03-22T13:56:01.916Z</time>
</trkpt>
<trkpt lat="30.8577500" lon="34.7632700">
<ele>550.419983</ele>
<time>2023-03-22T13:56:01.916Z</time>
</trkpt>
<trkpt lat="30.8576800" lon="34.7632200">
<ele>550.130005</ele>
<time>2023-03-22T13:56:01.916Z</time>
</trkpt>
<trkpt lat="30.8575200" lon="34.7631700">
<ele>550.159973</ele>
<time>2023-03-22T13:56:01.916Z</time>
</trkpt>
<trkpt lat="30.8572900" lon="34.7630800">
<ele>548.369995</ele>
<time>2023-03-22T13:56:01.916Z</time>
</trkpt>
<trkpt lat="30.8571500" lon="34.7629700">
<ele>547.460022</ele>
<time>2023-03-22T13:56:01.916Z</time>
</trkpt>
<trkpt lat="30.8569900" lon="34.7628200">
<ele>547.010010</ele>
<time>2023-03-22T13:56:01.916Z</time>
</trkpt>
<trkpt lat="30.8567500" lon="34.7628000">
<ele>547.140015</ele>
<time>2023-03-22T13:56:01.917Z</time>
</trkpt>
<trkpt lat="30.8564800" lon="34.7626700">
<ele>547.330017</ele>
<time>2023-03-22T13:56:01.917Z</time>
</trkpt>
<trkpt lat="30.8564200" lon="34.7626000">
<ele>546.609985</ele>
<time>2023-03-22T13:56:01.917Z</time>
</trkpt>
<trkpt lat="30.8561400" lon="34.7618400">
<ele>544.769958</ele>
<time>2023-03-22T13:56:01.917Z</time>
</trkpt>
<trkpt lat="30.8560400" lon="34.7616500">
<ele>544.739990</ele>
<time>2023-03-22T13:56:01.917Z</time>
</trkpt>
<trkpt lat="30.8560600" lon="34.7613200">
<ele>544.820007</ele>
<time>2023-03-22T13:56:01.917Z</time>
</trkpt>
<trkpt lat="30.8560200" lon="34.7608200">
<ele>544.229980</ele>
<time>2023-03-22T13:56:01.917Z</time>
</trkpt>
<trkpt lat="30.8557600" lon="34.7601200">
<ele>539.090027</ele>
<time>2023-03-22T13:56:01.917Z</time>
</trkpt>
<trkpt lat="30.8558100" lon="34.7599500">
<ele>536.020020</ele>
<time>2023-03-22T13:56:01.917Z</time>
</trkpt>
<trkpt lat="30.8558500" lon="34.7598800">
<ele>533.820007</ele>
<time>2023-03-22T13:56:01.917Z</time>
</trkpt>
<trkpt lat="30.8559400" lon="34.7598100">
<ele>531.320007</ele>
<time>2023-03-22T13:56:01.917Z</time>
</trkpt>
<trkpt lat="30.8561700" lon="34.7597600">
<ele>528.969971</ele>
<time>2023-03-22T13:56:01.917Z</time>
</trkpt>
<trkpt lat="30.8566000" lon="34.7596100">
<ele>526.010010</ele>
<time>2023-03-22T13:56:01.917Z</time>
</trkpt>
<trkpt lat="30.8566700" lon="34.7595600">
<ele>524.500000</ele>
<time>2023-03-22T13:56:01.917Z</time>
</trkpt>
<trkpt lat="30.8568500" lon="34.7593900">
<ele>521.809998</ele>
<time>2023-03-22T13:56:01.917Z</time>
</trkpt>
<trkpt lat="30.8568400" lon="34.7593200">
<ele>520.660034</ele>
<time>2023-03-22T13:56:01.917Z</time>
</trkpt>
<trkpt lat="30.8567600" lon="34.7592900">
<ele>519.739990</ele>
<time>2023-03-22T13:56:01.917Z</time>
</trkpt>
<trkpt lat="30.8565400" lon="34.7593300">
<ele>521.119995</ele>
<time>2023-03-22T13:56:01.917Z</time>
</trkpt>
<trkpt lat="30.8562200" lon="34.7594300">
<ele>522.960022</ele>
<time>2023-03-22T13:56:01.917Z</time>
</trkpt>
<trkpt lat="30.8561600" lon="34.7594400">
<ele>522.469971</ele>
<time>2023-03-22T13:56:01.917Z</time>
</trkpt>
<trkpt lat="30.8560800" lon="34.7594300">
<ele>521.860046</ele>
<time>2023-03-22T13:56:01.918Z</time>
</trkpt>
<trkpt lat="30.8560400" lon="34.7594000">
<ele>521.640015</ele>
<time>2023-03-22T13:56:01.918Z</time>
</trkpt>
<trkpt lat="30.8558000" lon="34.7593300">
<ele>522.619995</ele>
<time>2023-03-22T13:56:01.918Z</time>
</trkpt>
<trkpt lat="30.8560400" lon="34.7592400">
<ele>520.359985</ele>
<time>2023-03-22T13:56:01.918Z</time>
</trkpt>
<trkpt lat="30.8560800" lon="34.7592100">
<ele>519.750000</ele>
<time>2023-03-22T13:56:01.918Z</time>
</trkpt>
<trkpt lat="30.8562500" lon="34.7591800">
<ele>519.219971</ele>
<time>2023-03-22T13:56:01.918Z</time>
</trkpt>
<trkpt lat="30.8563800" lon="34.7590600">
<ele>516.750000</ele>
<time>2023-03-22T13:56:01.918Z</time>
</trkpt>
<trkpt lat="30.8565400" lon="34.7589800">
<ele>514.979980</ele>
<time>2023-03-22T13:56:01.918Z</time>
</trkpt>
<trkpt lat="30.8570700" lon="34.7586000">
<ele>520.059998</ele>
<time>2023-03-22T13:56:01.918Z</time>
</trkpt>
<trkpt lat="30.8571400" lon="34.7585200">
<ele>521.169983</ele>
<time>2023-03-22T13:56:01.918Z</time>
</trkpt>
<trkpt lat="30.8573200" lon="34.7581500">
<ele>519.940002</ele>
<time>2023-03-22T13:56:01.918Z</time>
</trkpt>
<trkpt lat="30.8573400" lon="34.7581300">
<ele>519.809998</ele>
<time>2023-03-22T13:56:01.918Z</time>
</trkpt>
<trkpt lat="30.8573400" lon="34.7581300">
<ele>519.809998</ele>
<time>2023-03-22T13:56:01.918Z</time>
</trkpt>
<trkpt lat="30.8573400" lon="34.7581300">
<ele>519.809998</ele>
<time>2023-03-22T13:56:01.918Z</time>
</trkpt>
<trkpt lat="30.8574200" lon="34.7580300">
<ele>519.500000</ele>
<time>2023-03-22T13:56:01.918Z</time>
</trkpt>
<trkpt lat="30.8576200" lon="34.7578600">
<ele>519.520020</ele>
<time>2023-03-22T13:56:01.918Z</time>
</trkpt>
<trkpt lat="30.8577500" lon="34.7576200">
<ele>517.119995</ele>
<time>2023-03-22T13:56:01.918Z</time>
</trkpt>
<trkpt lat="30.8578300" lon="34.7575300">
<ele>515.340027</ele>
<time>2023-03-22T13:56:01.918Z</time>
</trkpt>
<trkpt lat="30.8580800" lon="34.7572600">
<ele>509.309998</ele>
<time>2023-03-22T13:56:01.918Z</time>
</trkpt>
<trkpt lat="30.8582400" lon="34.7571400">
<ele>509.400024</ele>
<time>2023-03-22T13:56:01.919Z</time>
</trkpt>
<trkpt lat="30.8583200" lon="34.7570500">
<ele>509.649994</ele>
<time>2023-03-22T13:56:01.919Z</time>
</trkpt>
<trkpt lat="30.8585600" lon="34.7567700">
<ele>509.809998</ele>
<time>2023-03-22T13:56:01.919Z</time>
</trkpt>
<trkpt lat="30.8587300" lon="34.7566600">
<ele>510.900024</ele>
<time>2023-03-22T13:56:01.919Z</time>
</trkpt>
<trkpt lat="30.8588700" lon="34.7566100">
<ele>512.270020</ele>
<time>2023-03-22T13:56:01.919Z</time>
</trkpt>
<trkpt lat="30.8589700" lon="34.7565900">
<ele>511.920013</ele>
<time>2023-03-22T13:56:01.919Z</time>
</trkpt>
<trkpt lat="30.8594000" lon="34.7566000">
<ele>508.519989</ele>
<time>2023-03-22T13:56:01.919Z</time>
</trkpt>
<trkpt lat="30.8595200" lon="34.7565900">
<ele>508.379974</ele>
<time>2023-03-22T13:56:01.919Z</time>
</trkpt>
<trkpt lat="30.8598900" lon="34.7565000">
<ele>512.169983</ele>
<time>2023-03-22T13:56:01.919Z</time>
</trkpt>
<trkpt lat="30.8601300" lon="34.7564800">
<ele>514.500000</ele>
<time>2023-03-22T13:56:01.919Z</time>
</trkpt>
<trkpt lat="30.8602400" lon="34.7564900">
<ele>514.679993</ele>
<time>2023-03-22T13:56:01.919Z</time>
</trkpt>
<trkpt lat="30.8603500" lon="34.7565300">
<ele>515.250000</ele>
<time>2023-03-22T13:56:01.919Z</time>
</trkpt>
<trkpt lat="30.8604900" lon="34.7566100">
<ele>515.590027</ele>
<time>2023-03-22T13:56:01.919Z</time>
</trkpt>
<trkpt lat="30.8606800" lon="34.7568100">
<ele>513.950012</ele>
<time>2023-03-22T13:56:01.919Z</time>
</trkpt>
<trkpt lat="30.8608000" lon="34.7569000">
<ele>512.719971</ele>
<time>2023-03-22T13:56:01.919Z</time>
</trkpt>
<trkpt lat="30.8609800" lon="34.7571100">
<ele>508.910004</ele>
<time>2023-03-22T13:56:01.919Z</time>
</trkpt>
<trkpt lat="30.8610700" lon="34.7571600">
<ele>507.229980</ele>
<time>2023-03-22T13:56:01.919Z</time>
</trkpt>
<trkpt lat="30.8612000" lon="34.7571800">
<ele>505.769989</ele>
<time>2023-03-22T13:56:01.919Z</time>
</trkpt>
<trkpt lat="30.8613600" lon="34.7572300">
<ele>504.260010</ele>
<time>2023-03-22T13:56:01.919Z</time>
</trkpt>
<trkpt lat="30.8614300" lon="34.7572300">
<ele>503.759979</ele>
<time>2023-03-22T13:56:01.919Z</time>
</trkpt>
<trkpt lat="30.8619500" lon="34.7570900">
<ele>502.320007</ele>
<time>2023-03-22T13:56:01.919Z</time>
</trkpt>
<trkpt lat="30.8620700" lon="34.7570800">
<ele>500.079987</ele>
<time>2023-03-22T13:56:01.919Z</time>
</trkpt>
<trkpt lat="30.8626400" lon="34.7572300">
<ele>483.330017</ele>
<time>2023-03-22T13:56:01.919Z</time>
</trkpt>
<trkpt lat="30.8627400" lon="34.7572400">
<ele>482.130005</ele>
<time>2023-03-22T13:56:01.919Z</time>
</trkpt>
<trkpt lat="30.8629300" lon="34.7572100">
<ele>482.149994</ele>
<time>2023-03-22T13:56:01.919Z</time>
</trkpt>
<trkpt lat="30.8630400" lon="34.7571400">
<ele>481.870026</ele>
<time>2023-03-22T13:56:01.919Z</time>
</trkpt>
<trkpt lat="30.8631400" lon="34.7570500">
<ele>481.250000</ele>
<time>2023-03-22T13:56:01.919Z</time>
</trkpt>
<trkpt lat="30.8633200" lon="34.7568200">
<ele>475.470001</ele>
<time>2023-03-22T13:56:01.919Z</time>
</trkpt>
<trkpt lat="30.8635600" lon="34.7564300">
<ele>476.140015</ele>
<time>2023-03-22T13:56:01.919Z</time>
</trkpt>
<trkpt lat="30.8636300" lon="34.7562100">
<ele>479.430023</ele>
<time>2023-03-22T13:56:01.919Z</time>
</trkpt>
<trkpt lat="30.8636900" lon="34.7561300">
<ele>481.289978</ele>
<time>2023-03-22T13:56:01.919Z</time>
</trkpt>
<trkpt lat="30.8638400" lon="34.7560900">
<ele>483.240021</ele>
<time>2023-03-22T13:56:01.919Z</time>
</trkpt>
<trkpt lat="30.8639800" lon="34.7559900">
<ele>487.659973</ele>
<time>2023-03-22T13:56:01.919Z</time>
</trkpt>
<trkpt lat="30.8640900" lon="34.7559500">
<ele>490.119995</ele>
<time>2023-03-22T13:56:01.919Z</time>
</trkpt>
<trkpt lat="30.8641600" lon="34.7559500">
<ele>490.980011</ele>
<time>2023-03-22T13:56:01.919Z</time>
</trkpt>
<trkpt lat="30.8642700" lon="34.7559700">
<ele>489.260010</ele>
<time>2023-03-22T13:56:01.919Z</time>
</trkpt>
<trkpt lat="30.8645900" lon="34.7561200">
<ele>482.449982</ele>
<time>2023-03-22T13:56:01.919Z</time>
</trkpt>
<trkpt lat="30.8647300" lon="34.7561400">
<ele>481.969971</ele>
<time>2023-03-22T13:56:01.919Z</time>
</trkpt>
<trkpt lat="30.8648300" lon="34.7561300">
<ele>481.589996</ele>
<time>2023-03-22T13:56:01.919Z</time>
</trkpt>
<trkpt lat="30.8649900" lon="34.7560600">
<ele>481.239990</ele>
<time>2023-03-22T13:56:01.919Z</time>
</trkpt>
<trkpt lat="30.8652300" lon="34.7559200">
<ele>478.889984</ele>
<time>2023-03-22T13:56:01.919Z</time>
</trkpt>
<trkpt lat="30.8658000" lon="34.7557300">
<ele>467.539978</ele>
<time>2023-03-22T13:56:01.919Z</time>
</trkpt>
<trkpt lat="30.8662000" lon="34.7556700">
<ele>465.659973</ele>
<time>2023-03-22T13:56:01.919Z</time>
</trkpt>
<trkpt lat="30.8662800" lon="34.7556600">
<ele>465.699982</ele>
<time>2023-03-22T13:56:01.919Z</time>
</trkpt>
<trkpt lat="30.8664600" lon="34.7555700">
<ele>465.359985</ele>
<time>2023-03-22T13:56:01.919Z</time>
</trkpt>
<trkpt lat="30.8666300" lon="34.7554500">
<ele>464.450012</ele>
<time>2023-03-22T13:56:01.919Z</time>
</trkpt>
<trkpt lat="30.8669700" lon="34.7550700">
<ele>467.539978</ele>
<time>2023-03-22T13:56:01.919Z</time>
</trkpt>
<trkpt lat="30.8670800" lon="34.7548700">
<ele>473.720001</ele>
<time>2023-03-22T13:56:01.919Z</time>
</trkpt>
<trkpt lat="30.8671500" lon="34.7548000">
<ele>476.029999</ele>
<time>2023-03-22T13:56:01.919Z</time>
</trkpt>
<trkpt lat="30.8674200" lon="34.7547100">
<ele>481.069977</ele>
<time>2023-03-22T13:56:01.919Z</time>
</trkpt>
<trkpt lat="30.8676500" lon="34.7545600">
<ele>485.909973</ele>
<time>2023-03-22T13:56:01.919Z</time>
</trkpt>
<trkpt lat="30.8677200" lon="34.7545500">
<ele>486.490021</ele>
<time>2023-03-22T13:56:01.919Z</time>
</trkpt>
<trkpt lat="30.8679300" lon="34.7545500">
<ele>484.539978</ele>
<time>2023-03-22T13:56:01.919Z</time>
</trkpt>
<trkpt lat="30.8680500" lon="34.7545700">
<ele>482.630005</ele>
<time>2023-03-22T13:56:01.919Z</time>
</trkpt>
<trkpt lat="30.8685100" lon="34.7547400">
<ele>484.879974</ele>
<time>2023-03-22T13:56:01.919Z</time>
</trkpt>
<trkpt lat="30.8687100" lon="34.7547500">
<ele>487.069977</ele>
<time>2023-03-22T13:56:01.919Z</time>
</trkpt>
<trkpt lat="30.8687900" lon="34.7547800">
<ele>487.929993</ele>
<time>2023-03-22T13:56:01.919Z</time>
</trkpt>
<trkpt lat="30.8690500" lon="34.7548900">
<ele>486.910004</ele>
<time>2023-03-22T13:56:01.919Z</time>
</trkpt>
<trkpt lat="30.8692800" lon="34.7550400">
<ele>483.979980</ele>
<time>2023-03-22T13:56:01.919Z</time>
</trkpt>
<trkpt lat="30.8695300" lon="34.7551200">
<ele>479.869995</ele>
<time>2023-03-22T13:56:01.919Z</time>
</trkpt>
<trkpt lat="30.8699300" lon="34.7553000">
<ele>475.419983</ele>
<time>2023-03-22T13:56:01.919Z</time>
</trkpt>
<trkpt lat="30.8702000" lon="34.7554100">
<ele>471.470001</ele>
<time>2023-03-22T13:56:01.919Z</time>
</trkpt>
<trkpt lat="30.8704000" lon="34.7554500">
<ele>469.829987</ele>
<time>2023-03-22T13:56:01.919Z</time>
</trkpt>
<trkpt lat="30.8705500" lon="34.7554300">
<ele>470.429993</ele>
<time>2023-03-22T13:56:01.919Z</time>
</trkpt>
<trkpt lat="30.8707200" lon="34.7554700">
<ele>469.519989</ele>
<time>2023-03-22T13:56:01.919Z</time>
</trkpt>
<trkpt lat="30.8709100" lon="34.7554700">
<ele>469.590027</ele>
<time>2023-03-22T13:56:01.919Z</time>
</trkpt>
<trkpt lat="30.8711500" lon="34.7554400">
<ele>469.580017</ele>
<time>2023-03-22T13:56:01.919Z</time>
</trkpt>
<trkpt lat="30.8714500" lon="34.7554500">
<ele>466.819977</ele>
<time>2023-03-22T13:56:01.919Z</time>
</trkpt>
<trkpt lat="30.8723100" lon="34.7553700">
<ele>460.479980</ele>
<time>2023-03-22T13:56:01.919Z</time>
</trkpt>
<trkpt lat="30.8727500" lon="34.7553900">
<ele>456.970001</ele>
<time>2023-03-22T13:56:01.919Z</time>
</trkpt>
<trkpt lat="30.8731800" lon="34.7554500">
<ele>455.330017</ele>
<time>2023-03-22T13:56:01.919Z</time>
</trkpt>
<trkpt lat="30.8731800" lon="34.7554500">
<ele>455.330017</ele>
<time>2023-03-22T13:56:01.919Z</time>
</trkpt>
<trkpt lat="30.8731800" lon="34.7554500">
<ele>455.330017</ele>
<time>2023-03-22T13:56:01.919Z</time>
</trkpt>
<trkpt lat="30.8741500" lon="34.7556600">
<ele>458.820007</ele>
<time>2023-03-22T13:56:01.919Z</time>
</trkpt>
<trkpt lat="30.8744700" lon="34.7556900">
<ele>453.440002</ele>
<time>2023-03-22T13:56:01.919Z</time>
</trkpt>
<trkpt lat="30.8746500" lon="34.7556900">
<ele>455.380005</ele>
<time>2023-03-22T13:56:01.919Z</time>
</trkpt>
<trkpt lat="30.8749200" lon="34.7556500">
<ele>454.520020</ele>
<time>2023-03-22T13:56:01.919Z</time>
</trkpt>
<trkpt lat="30.8752500" lon="34.7556500">
<ele>452.359985</ele>
<time>2023-03-22T13:56:01.919Z</time>
</trkpt>
<trkpt lat="30.8753900" lon="34.7556200">
<ele>451.619995</ele>
<time>2023-03-22T13:56:01.919Z</time>
</trkpt>
<trkpt lat="30.8755600" lon="34.7555700">
<ele>450.500031</ele>
<time>2023-03-22T13:56:01.919Z</time>
</trkpt>
<trkpt lat="30.8757000" lon="34.7555500">
<ele>449.940002</ele>
<time>2023-03-22T13:56:01.919Z</time>
</trkpt>
<trkpt lat="30.8757900" lon="34.7555200">
<ele>448.740021</ele>
<time>2023-03-22T13:56:01.919Z</time>
</trkpt>
<trkpt lat="30.8759800" lon="34.7554200">
<ele>442.079987</ele>
<time>2023-03-22T13:56:01.919Z</time>
</trkpt>
<trkpt lat="30.8760600" lon="34.7554000">
<ele>439.759979</ele>
<time>2023-03-22T13:56:01.919Z</time>
</trkpt>
<trkpt lat="30.8762200" lon="34.7554100">
<ele>434.199982</ele>
<time>2023-03-22T13:56:01.919Z</time>
</trkpt>
<trkpt lat="30.8766100" lon="34.7553700">
<ele>425.610016</ele>
<time>2023-03-22T13:56:01.919Z</time>
</trkpt>
<trkpt lat="30.8773900" lon="34.7552400">
<ele>433.859985</ele>
<time>2023-03-22T13:56:01.919Z</time>
</trkpt>
<trkpt lat="30.8775000" lon="34.7552100">
<ele>437.459991</ele>
<time>2023-03-22T13:56:01.919Z</time>
</trkpt>
<trkpt lat="30.8775800" lon="34.7551400">
<ele>439.119995</ele>
<time>2023-03-22T13:56:01.919Z</time>
</trkpt>
<trkpt lat="30.8777100" lon="34.7549400">
<ele>442.109985</ele>
<time>2023-03-22T13:56:01.919Z</time>
</trkpt>
<trkpt lat="30.8777800" lon="34.7548000">
<ele>442.700012</ele>
<time>2023-03-22T13:56:01.919Z</time>
</trkpt>
<trkpt lat="30.8779100" lon="34.7544700">
<ele>444.729980</ele>
<time>2023-03-22T13:56:01.919Z</time>
</trkpt>
<trkpt lat="30.8780900" lon="34.7541400">
<ele>448.419983</ele>
<time>2023-03-22T13:56:01.919Z</time>
</trkpt>
<trkpt lat="30.8781200" lon="34.7540600">
<ele>448.720001</ele>
<time>2023-03-22T13:56:01.919Z</time>
</trkpt>
<trkpt lat="30.8781900" lon="34.7538700">
<ele>449.470001</ele>
<time>2023-03-22T13:56:01.919Z</time>
</trkpt>
<trkpt lat="30.8783300" lon="34.7537500">
<ele>448.950012</ele>
<time>2023-03-22T13:56:01.919Z</time>
</trkpt>
<trkpt lat="30.8784100" lon="34.7536500">
<ele>446.160004</ele>
<time>2023-03-22T13:56:01.919Z</time>
</trkpt>
<trkpt lat="30.8784600" lon="34.7535700">
<ele>444.639984</ele>
<time>2023-03-22T13:56:01.919Z</time>
</trkpt>
<trkpt lat="30.8786000" lon="34.7531900">
<ele>439.329987</ele>
<time>2023-03-22T13:56:01.919Z</time>
</trkpt>
<trkpt lat="30.8785800" lon="34.7531300">
<ele>438.420013</ele>
<time>2023-03-22T13:56:01.919Z</time>
</trkpt>
<trkpt lat="30.8785800" lon="34.7531300">
<ele>438.420013</ele>
<time>2023-03-22T13:56:01.919Z</time>
</trkpt>
<trkpt lat="30.8785800" lon="34.7531300">
<ele>438.420013</ele>
<time>2023-03-22T13:56:01.919Z</time>
</trkpt>
<trkpt lat="30.8785300" lon="34.7530000">
<ele>436.410004</ele>
<time>2023-03-22T13:56:01.919Z</time>
</trkpt>
<trkpt lat="30.8784800" lon="34.7529400">
<ele>435.450012</ele>
<time>2023-03-22T13:56:01.919Z</time>
</trkpt>
<trkpt lat="30.8777100" lon="34.7520000">
<ele>437.600006</ele>
<time>2023-03-22T13:56:01.919Z</time>
</trkpt>
<trkpt lat="30.8775300" lon="34.7517900">
<ele>437.720001</ele>
<time>2023-03-22T13:56:01.919Z</time>
</trkpt>
<trkpt lat="30.8773600" lon="34.7515500">
<ele>437.579987</ele>
<time>2023-03-22T13:56:01.919Z</time>
</trkpt>
<trkpt lat="30.8769400" lon="34.7510000">
<ele>434.779999</ele>
<time>2023-03-22T13:56:01.919Z</time>
</trkpt>
<trkpt lat="30.8766000" lon="34.7505800">
<ele>439.589996</ele>
<time>2023-03-22T13:56:01.919Z</time>
</trkpt>
<trkpt lat="30.8763900" lon="34.7503300">
<ele>445.419983</ele>
<time>2023-03-22T13:56:01.919Z</time>
</trkpt>
<trkpt lat="30.8762600" lon="34.7502100">
<ele>446.890015</ele>
<time>2023-03-22T13:56:01.919Z</time>
</trkpt>
<trkpt lat="30.8757000" lon="34.7498100">
<ele>443.679993</ele>
<time>2023-03-22T13:56:01.919Z</time>
</trkpt>
<trkpt lat="30.8755900" lon="34.7497300">
<ele>442.280029</ele>
<time>2023-03-22T13:56:01.919Z</time>
</trkpt>
<trkpt lat="30.8752000" lon="34.7494900">
<ele>435.489990</ele>
<time>2023-03-22T13:56:01.919Z</time>
</trkpt>
<trkpt lat="30.8748600" lon="34.7491900">
<ele>440.520020</ele>
<time>2023-03-22T13:56:01.919Z</time>
</trkpt>
<trkpt lat="30.8746700" lon="34.7490700">
<ele>439.759979</ele>
<time>2023-03-22T13:56:01.919Z</time>
</trkpt>
<trkpt lat="30.8742000" lon="34.7486900">
<ele>436.830017</ele>
<time>2023-03-22T13:56:01.919Z</time>
</trkpt>
<trkpt lat="30.8740000" lon="34.7485500">
<ele>438.540009</ele>
<time>2023-03-22T13:56:01.919Z</time>
</trkpt>
<trkpt lat="30.8735100" lon="34.7481800">
<ele>440.050018</ele>
<time>2023-03-22T13:56:01.919Z</time>
</trkpt>
<trkpt lat="30.8732100" lon="34.7479700">
<ele>444.899994</ele>
<time>2023-03-22T13:56:01.919Z</time>
</trkpt>
<trkpt lat="30.8728100" lon="34.7476500">
<ele>450.419983</ele>
<time>2023-03-22T13:56:01.919Z</time>
</trkpt>
<trkpt lat="30.8725800" lon="34.7474800">
<ele>446.850006</ele>
<time>2023-03-22T13:56:01.919Z</time>
</trkpt>
<trkpt lat="30.8723600" lon="34.7473400">
<ele>444.639984</ele>
<time>2023-03-22T13:56:01.919Z</time>
</trkpt>
<trkpt lat="30.8721600" lon="34.7471700">
<ele>443.250000</ele>
<time>2023-03-22T13:56:01.919Z</time>
</trkpt>
<trkpt lat="30.8719600" lon="34.7470600">
<ele>440.260010</ele>
<time>2023-03-22T13:56:01.919Z</time>
</trkpt>
<trkpt lat="30.8715700" lon="34.7468800">
<ele>450.690002</ele>
<time>2023-03-22T13:56:01.919Z</time>
</trkpt>
<trkpt lat="30.8697200" lon="34.7461400">
<ele>453.899994</ele>
<time>2023-03-22T13:56:01.919Z</time>
</trkpt>
<trkpt lat="30.8691400" lon="34.7458600">
<ele>454.650024</ele>
<time>2023-03-22T13:56:01.919Z</time>
</trkpt>
<trkpt lat="30.8689600" lon="34.7457900">
<ele>457.489990</ele>
<time>2023-03-22T13:56:01.919Z</time>
</trkpt>
<trkpt lat="30.8689600" lon="34.7457900">
<ele>457.489990</ele>
<time>2023-03-22T13:56:01.919Z</time>
</trkpt>
<trkpt lat="30.8689600" lon="34.7457900">
<ele>457.489990</ele>
<time>2023-03-22T13:56:01.919Z</time>
</trkpt>
<trkpt lat="30.8685800" lon="34.7456600">
<ele>454.410004</ele>
<time>2023-03-22T13:56:01.919Z</time>
</trkpt>
<trkpt lat="30.8683700" lon="34.7455500">
<ele>452.420013</ele>
<time>2023-03-22T13:56:01.919Z</time>
</trkpt>
<trkpt lat="30.8679800" lon="34.7453200">
<ele>459.520020</ele>
<time>2023-03-22T13:56:01.919Z</time>
</trkpt>
<trkpt lat="30.8664100" lon="34.7445300">
<ele>461.169983</ele>
<time>2023-03-22T13:56:01.919Z</time>
</trkpt>
<trkpt lat="30.8660200" lon="34.7443900">
<ele>452.869995</ele>
<time>2023-03-22T13:56:01.919Z</time>
</trkpt>
<trkpt lat="30.8652600" lon="34.7440100">
<ele>453.790009</ele>
<time>2023-03-22T13:56:01.919Z</time>
</trkpt>
<trkpt lat="30.8650000" lon="34.7439000">
<ele>457.919983</ele>
<time>2023-03-22T13:56:01.919Z</time>
</trkpt>
<trkpt lat="30.8649000" lon="34.7438300">
<ele>458.410004</ele>
<time>2023-03-22T13:56:01.919Z</time>
</trkpt>
<trkpt lat="30.8645900" lon="34.7435600">
<ele>461.849976</ele>
<time>2023-03-22T13:56:01.919Z</time>
</trkpt>
<trkpt lat="30.8642700" lon="34.7433400">
<ele>467.660004</ele>
<time>2023-03-22T13:56:01.919Z</time>
</trkpt>
<trkpt lat="30.8639800" lon="34.7431200">
<ele>467.299988</ele>
<time>2023-03-22T13:56:01.919Z</time>
</trkpt>
<trkpt lat="30.8636400" lon="34.7427700">
<ele>467.889984</ele>
<time>2023-03-22T13:56:01.919Z</time>
</trkpt>
<trkpt lat="30.8633000" lon="34.7424600">
<ele>475.690002</ele>
<time>2023-03-22T13:56:01.919Z</time>
</trkpt>
<trkpt lat="30.8629000" lon="34.7421600">
<ele>479.780029</ele>
<time>2023-03-22T13:56:01.919Z</time>
</trkpt>
<trkpt lat="30.8628000" lon="34.7420300">
<ele>480.819977</ele>
<time>2023-03-22T13:56:01.919Z</time>
</trkpt>
<trkpt lat="30.8625100" lon="34.7418500">
<ele>473.559998</ele>
<time>2023-03-22T13:56:01.919Z</time>
</trkpt>
<trkpt lat="30.8623600" lon="34.7418600">
<ele>468.770020</ele>
<time>2023-03-22T13:56:01.919Z</time>
</trkpt>
<trkpt lat="30.8621500" lon="34.7418900">
<ele>462.019989</ele>
<time>2023-03-22T13:56:01.919Z</time>
</trkpt>
<trkpt lat="30.8620400" lon="34.7419800">
<ele>459.570007</ele>
<time>2023-03-22T13:56:01.919Z</time>
</trkpt>
<trkpt lat="30.8615800" lon="34.7417700">
<ele>449.279999</ele>
<time>2023-03-22T13:56:01.919Z</time>
</trkpt>
<trkpt lat="30.8612900" lon="34.7421000">
<ele>453.700012</ele>
<time>2023-03-22T13:56:01.919Z</time>
</trkpt>
<trkpt lat="30.8610700" lon="34.7422900">
<ele>458.360016</ele>
<time>2023-03-22T13:56:01.919Z</time>
</trkpt>
<trkpt lat="30.8609800" lon="34.7423500">
<ele>460.089996</ele>
<time>2023-03-22T13:56:01.919Z</time>
</trkpt>
<trkpt lat="30.8608300" lon="34.7424100">
<ele>462.029999</ele>
<time>2023-03-22T13:56:01.919Z</time>
</trkpt>
<trkpt lat="30.8604300" lon="34.7425000">
<ele>463.000031</ele>
<time>2023-03-22T13:56:01.919Z</time>
</trkpt>
<trkpt lat="30.8600000" lon="34.7427300">
<ele>459.690002</ele>
<time>2023-03-22T13:56:01.919Z</time>
</trkpt>
<trkpt lat="30.8597200" lon="34.7428400">
<ele>459.589996</ele>
<time>2023-03-22T13:56:01.919Z</time>
</trkpt>
<trkpt lat="30.8595700" lon="34.7428800">
<ele>461.399994</ele>
<time>2023-03-22T13:56:01.919Z</time>
</trkpt>
<trkpt lat="30.8592500" lon="34.7429100">
<ele>465.720001</ele>
<time>2023-03-22T13:56:01.919Z</time>
</trkpt>
<trkpt lat="30.8592500" lon="34.7429100">
<ele>465.720001</ele>
<time>2023-03-22T13:56:01.919Z</time>
</trkpt>
<trkpt lat="30.8592500" lon="34.7429100">
<ele>465.720001</ele>
<time>2023-03-22T13:56:01.919Z</time>
</trkpt>
<trkpt lat="30.8591900" lon="34.7429200">
<ele>466.590027</ele>
<time>2023-03-22T13:56:01.919Z</time>
</trkpt>
<trkpt lat="30.8590600" lon="34.7429800">
<ele>467.419983</ele>
<time>2023-03-22T13:56:01.919Z</time>
</trkpt>
<trkpt lat="30.8589600" lon="34.7430600">
<ele>467.470001</ele>
<time>2023-03-22T13:56:01.919Z</time>
</trkpt>
<trkpt lat="30.8587800" lon="34.7432500">
<ele>466.750000</ele>
<time>2023-03-22T13:56:01.919Z</time>
</trkpt>
<trkpt lat="30.8584500" lon="34.7440400">
<ele>469.809998</ele>
<time>2023-03-22T13:56:01.919Z</time>
</trkpt>
<trkpt lat="30.8582700" lon="34.7443100">
<ele>470.250000</ele>
<time>2023-03-22T13:56:01.919Z</time>
</trkpt>
<trkpt lat="30.8581400" lon="34.7445400">
<ele>466.250000</ele>
<time>2023-03-22T13:56:01.919Z</time>
</trkpt>
<trkpt lat="30.8580100" lon="34.7448500">
<ele>469.399994</ele>
<time>2023-03-22T13:56:01.919Z</time>
</trkpt>
<trkpt lat="30.8579700" lon="34.7449100">
<ele>470.929993</ele>
<time>2023-03-22T13:56:01.919Z</time>
</trkpt>
<trkpt lat="30.8579300" lon="34.7449500">
<ele>471.900024</ele>
<time>2023-03-22T13:56:01.919Z</time>
</trkpt>
<trkpt lat="30.8578500" lon="34.7449700">
<ele>472.399994</ele>
<time>2023-03-22T13:56:01.919Z</time>
</trkpt>
<trkpt lat="30.8574500" lon="34.7450200">
<ele>472.630005</ele>
<time>2023-03-22T13:56:01.919Z</time>
</trkpt>
<trkpt lat="30.8572200" lon="34.7450200">
<ele>473.199982</ele>
<time>2023-03-22T13:56:01.919Z</time>
</trkpt>
<trkpt lat="30.8571000" lon="34.7450700">
<ele>472.540009</ele>
<time>2023-03-22T13:56:01.919Z</time>
</trkpt>
<trkpt lat="30.8567200" lon="34.7453800">
<ele>468.279999</ele>
<time>2023-03-22T13:56:01.919Z</time>
</trkpt>
<trkpt lat="30.8566000" lon="34.7454300">
<ele>467.549988</ele>
<time>2023-03-22T13:56:01.919Z</time>
</trkpt>
<trkpt lat="30.8562900" lon="34.7455200">
<ele>468.149994</ele>
<time>2023-03-22T13:56:01.919Z</time>
</trkpt>
<trkpt lat="30.8561600" lon="34.7455500">
<ele>468.080017</ele>
<time>2023-03-22T13:56:01.919Z</time>
</trkpt>
<trkpt lat="30.8558100" lon="34.7455600">
<ele>475.459991</ele>
<time>2023-03-22T13:56:01.919Z</time>
</trkpt>
<trkpt lat="30.8553300" lon="34.7455000">
<ele>484.459991</ele>
<time>2023-03-22T13:56:01.919Z</time>
</trkpt>
<trkpt lat="30.8552600" lon="34.7455100">
<ele>485.160004</ele>
<time>2023-03-22T13:56:01.919Z</time>
</trkpt>
<trkpt lat="30.8551200" lon="34.7455700">
<ele>482.900024</ele>
<time>2023-03-22T13:56:01.919Z</time>
</trkpt>
<trkpt lat="30.8550000" lon="34.7456400">
<ele>481.610016</ele>
<time>2023-03-22T13:56:01.919Z</time>
</trkpt>
<trkpt lat="30.8548900" lon="34.7456700">
<ele>480.469971</ele>
<time>2023-03-22T13:56:01.919Z</time>
</trkpt>
<trkpt lat="30.8545900" lon="34.7456300">
<ele>478.230011</ele>
<time>2023-03-22T13:56:01.919Z</time>
</trkpt>
<trkpt lat="30.8540600" lon="34.7454900">
<ele>490.029999</ele>
<time>2023-03-22T13:56:01.919Z</time>
</trkpt>
<trkpt lat="30.8538300" lon="34.7454600">
<ele>494.220001</ele>
<time>2023-03-22T13:56:01.919Z</time>
</trkpt>
<trkpt lat="30.8536500" lon="34.7454900">
<ele>495.100006</ele>
<time>2023-03-22T13:56:01.919Z</time>
</trkpt>
<trkpt lat="30.8535200" lon="34.7454700">
<ele>496.200012</ele>
<time>2023-03-22T13:56:01.919Z</time>
</trkpt>
<trkpt lat="30.8534200" lon="34.7454100">
<ele>497.440002</ele>
<time>2023-03-22T13:56:01.919Z</time>
</trkpt>
<trkpt lat="30.8534200" lon="34.7454100">
<ele>497.440002</ele>
<time>2023-03-22T13:56:01.919Z</time>
</trkpt>
<trkpt lat="30.8534200" lon="34.7454100">
<ele>497.440002</ele>
<time>2023-03-22T13:56:01.919Z</time>
</trkpt>
<trkpt lat="30.8533700" lon="34.7453800">
<ele>497.880005</ele>
<time>2023-03-22T13:56:01.919Z</time>
</trkpt>
<trkpt lat="30.8530200" lon="34.7452300">
<ele>505.590027</ele>
<time>2023-03-22T13:56:01.919Z</time>
</trkpt>
<trkpt lat="30.8526400" lon="34.7451400">
<ele>517.469971</ele>
<time>2023-03-22T13:56:01.919Z</time>
</trkpt>
<trkpt lat="30.8524700" lon="34.7450300">
<ele>519.809998</ele>
<time>2023-03-22T13:56:01.919Z</time>
</trkpt>
<trkpt lat="30.8521000" lon="34.7448100">
<ele>514.690002</ele>
<time>2023-03-22T13:56:01.919Z</time>
</trkpt>
<trkpt lat="30.8518000" lon="34.7446700">
<ele>511.379974</ele>
<time>2023-03-22T13:56:01.919Z</time>
</trkpt>
<trkpt lat="30.8517000" lon="34.7446900">
<ele>512.609985</ele>
<time>2023-03-22T13:56:01.919Z</time>
</trkpt>
<trkpt lat="30.8516000" lon="34.7447900">
<ele>513.369995</ele>
<time>2023-03-22T13:56:01.919Z</time>
</trkpt>
<trkpt lat="30.8514600" lon="34.7448200">
<ele>513.570007</ele>
<time>2023-03-22T13:56:01.919Z</time>
</trkpt>
<trkpt lat="30.8512900" lon="34.7448900">
<ele>512.890015</ele>
<time>2023-03-22T13:56:01.919Z</time>
</trkpt>
<trkpt lat="30.8510700" lon="34.7449900">
<ele>509.870026</ele>
<time>2023-03-22T13:56:01.919Z</time>
</trkpt>
<trkpt lat="30.8508100" lon="34.7451600">
<ele>508.410004</ele>
<time>2023-03-22T13:56:01.919Z</time>
</trkpt>
<trkpt lat="30.8507600" lon="34.7451900">
<ele>508.160004</ele>
<time>2023-03-22T13:56:01.919Z</time>
</trkpt>
<trkpt lat="30.8505100" lon="34.7454000">
<ele>507.179993</ele>
<time>2023-03-22T13:56:01.919Z</time>
</trkpt>
<trkpt lat="30.8503000" lon="34.7455100">
<ele>506.230011</ele>
<time>2023-03-22T13:56:01.919Z</time>
</trkpt>
<trkpt lat="30.8500800" lon="34.7456500">
<ele>503.679993</ele>
<time>2023-03-22T13:56:01.919Z</time>
</trkpt>
<trkpt lat="30.8498900" lon="34.7458300">
<ele>502.369995</ele>
<time>2023-03-22T13:56:01.919Z</time>
</trkpt>
<trkpt lat="30.8497300" lon="34.7460300">
<ele>500.100006</ele>
<time>2023-03-22T13:56:01.919Z</time>
</trkpt>
<trkpt lat="30.8495800" lon="34.7462800">
<ele>502.619995</ele>
<time>2023-03-22T13:56:01.919Z</time>
</trkpt>
<trkpt lat="30.8494100" lon="34.7464900">
<ele>505.339996</ele>
<time>2023-03-22T13:56:01.919Z</time>
</trkpt>
<trkpt lat="30.8493600" lon="34.7465300">
<ele>506.130005</ele>
<time>2023-03-22T13:56:01.919Z</time>
</trkpt>
<trkpt lat="30.8493100" lon="34.7465300">
<ele>506.490021</ele>
<time>2023-03-22T13:56:01.919Z</time>
</trkpt>
<trkpt lat="30.8492300" lon="34.7464800">
<ele>506.529999</ele>
<time>2023-03-22T13:56:01.919Z</time>
</trkpt>
<trkpt lat="30.8491500" lon="34.7463500">
<ele>505.489990</ele>
<time>2023-03-22T13:56:01.919Z</time>
</trkpt>
<trkpt lat="30.8489800" lon="34.7461900">
<ele>503.950012</ele>
<time>2023-03-22T13:56:01.919Z</time>
</trkpt>
<trkpt lat="30.8488800" lon="34.7461500">
<ele>504.019989</ele>
<time>2023-03-22T13:56:01.919Z</time>
</trkpt>
<trkpt lat="30.8486200" lon="34.7461300">
<ele>504.839996</ele>
<time>2023-03-22T13:56:01.919Z</time>
</trkpt>
<trkpt lat="30.8485100" lon="34.7460800">
<ele>504.510010</ele>
<time>2023-03-22T13:56:01.919Z</time>
</trkpt>
<trkpt lat="30.8481700" lon="34.7459200">
<ele>501.380005</ele>
<time>2023-03-22T13:56:01.919Z</time>
</trkpt>
<trkpt lat="30.8479200" lon="34.7457800">
<ele>499.529999</ele>
<time>2023-03-22T13:56:01.919Z</time>
</trkpt>
<trkpt lat="30.8477700" lon="34.7457100">
<ele>498.759979</ele>
<time>2023-03-22T13:56:01.919Z</time>
</trkpt>
<trkpt lat="30.8475100" lon="34.7456900">
<ele>498.019989</ele>
<time>2023-03-22T13:56:01.919Z</time>
</trkpt>
<trkpt lat="30.8474400" lon="34.7456700">
<ele>497.700012</ele>
<time>2023-03-22T13:56:01.919Z</time>
</trkpt>
<trkpt lat="30.8473400" lon="34.7455800">
<ele>497.370026</ele>
<time>2023-03-22T13:56:01.919Z</time>
</trkpt>
<trkpt lat="30.8471400" lon="34.7453500">
<ele>495.510010</ele>
<time>2023-03-22T13:56:01.919Z</time>
</trkpt>
<trkpt lat="30.8469100" lon="34.7449800">
<ele>491.680023</ele>
<time>2023-03-22T13:56:01.919Z</time>
</trkpt>
<trkpt lat="30.8465300" lon="34.7447200">
<ele>487.029999</ele>
<time>2023-03-22T13:56:01.919Z</time>
</trkpt>
<trkpt lat="30.8463500" lon="34.7445000">
<ele>488.750000</ele>
<time>2023-03-22T13:56:01.919Z</time>
</trkpt>
<trkpt lat="30.8463100" lon="34.7443600">
<ele>491.320007</ele>
<time>2023-03-22T13:56:01.919Z</time>
</trkpt>
<trkpt lat="30.8462200" lon="34.7437500">
<ele>494.129974</ele>
<time>2023-03-22T13:56:01.919Z</time>
</trkpt>
<trkpt lat="30.8462000" lon="34.7436800">
<ele>493.890015</ele>
<time>2023-03-22T13:56:01.919Z</time>
</trkpt>
<trkpt lat="30.8461400" lon="34.7435800">
<ele>494.360016</ele>
<time>2023-03-22T13:56:01.919Z</time>
</trkpt>
<trkpt lat="30.8459000" lon="34.7432200">
<ele>493.589996</ele>
<time>2023-03-22T13:56:01.919Z</time>
</trkpt>
<trkpt lat="30.8459000" lon="34.7432200">
<ele>493.589996</ele>
<time>2023-03-22T13:56:01.919Z</time>
</trkpt>
<trkpt lat="30.8459000" lon="34.7432200">
<ele>493.589996</ele>
<time>2023-03-22T13:56:01.919Z</time>
</trkpt>
<trkpt lat="30.8458200" lon="34.7430900">
<ele>492.429993</ele>
<time>2023-03-22T13:56:01.919Z</time>
</trkpt>
<trkpt lat="30.8457500" lon="34.7430300">
<ele>491.149994</ele>
<time>2023-03-22T13:56:01.919Z</time>
</trkpt>
<trkpt lat="30.8454200" lon="34.7428100">
<ele>482.109985</ele>
<time>2023-03-22T13:56:01.919Z</time>
</trkpt>
<trkpt lat="30.8452300" lon="34.7427700">
<ele>476.279999</ele>
<time>2023-03-22T13:56:01.919Z</time>
</trkpt>
<trkpt lat="30.8454000" lon="34.7424000">
<ele>471.569977</ele>
<time>2023-03-22T13:56:01.919Z</time>
</trkpt>
<trkpt lat="30.8454900" lon="34.7420300">
<ele>466.089996</ele>
<time>2023-03-22T13:56:01.919Z</time>
</trkpt>
<trkpt lat="30.8455200" lon="34.7419700">
<ele>465.339996</ele>
<time>2023-03-22T13:56:01.919Z</time>
</trkpt>
<trkpt lat="30.8459500" lon="34.7413400">
<ele>470.779999</ele>
<time>2023-03-22T13:56:01.919Z</time>
</trkpt>
<trkpt lat="30.8460900" lon="34.7411100">
<ele>470.220001</ele>
<time>2023-03-22T13:56:01.919Z</time>
</trkpt>
<trkpt lat="30.8462300" lon="34.7407800">
<ele>469.720032</ele>
<time>2023-03-22T13:56:01.919Z</time>
</trkpt>
<trkpt lat="30.8462900" lon="34.7406600">
<ele>469.299988</ele>
<time>2023-03-22T13:56:01.919Z</time>
</trkpt>
<trkpt lat="30.8465100" lon="34.7402900">
<ele>472.339996</ele>
<time>2023-03-22T13:56:01.919Z</time>
</trkpt>
<trkpt lat="30.8466800" lon="34.7400700">
<ele>472.470001</ele>
<time>2023-03-22T13:56:01.919Z</time>
</trkpt>
<trkpt lat="30.8468500" lon="34.7397900">
<ele>470.889984</ele>
<time>2023-03-22T13:56:01.919Z</time>
</trkpt>
<trkpt lat="30.8470900" lon="34.7395600">
<ele>464.670013</ele>
<time>2023-03-22T13:56:01.919Z</time>
</trkpt>
<trkpt lat="30.8472700" lon="34.7392700">
<ele>461.989990</ele>
<time>2023-03-22T13:56:01.919Z</time>
</trkpt>
<trkpt lat="30.8474900" lon="34.7390400">
<ele>463.980011</ele>
<time>2023-03-22T13:56:01.919Z</time>
</trkpt>
<trkpt lat="30.8476000" lon="34.7389100">
<ele>465.699982</ele>
<time>2023-03-22T13:56:01.919Z</time>
</trkpt>
<trkpt lat="30.8477400" lon="34.7387000">
<ele>465.780029</ele>
<time>2023-03-22T13:56:01.919Z</time>
</trkpt>
<trkpt lat="30.8479100" lon="34.7384100">
<ele>468.119995</ele>
<time>2023-03-22T13:56:01.919Z</time>
</trkpt>
<trkpt lat="30.8479800" lon="34.7382500">
<ele>470.270020</ele>
<time>2023-03-22T13:56:01.919Z</time>
</trkpt>
<trkpt lat="30.8481000" lon="34.7379400">
<ele>471.190002</ele>
<time>2023-03-22T13:56:01.919Z</time>
</trkpt>
<trkpt lat="30.8482100" lon="34.7374600">
<ele>470.600006</ele>
<time>2023-03-22T13:56:01.919Z</time>
</trkpt>
<trkpt lat="30.8484700" lon="34.7366200">
<ele>471.750000</ele>
<time>2023-03-22T13:56:01.919Z</time>
</trkpt>
<trkpt lat="30.8486400" lon="34.7361700">
<ele>467.929993</ele>
<time>2023-03-22T13:56:01.919Z</time>
</trkpt>
<trkpt lat="30.8490200" lon="34.7352200">
<ele>466.330017</ele>
<time>2023-03-22T13:56:01.919Z</time>
</trkpt>
<trkpt lat="30.8492400" lon="34.7345600">
<ele>466.389984</ele>
<time>2023-03-22T13:56:01.919Z</time>
</trkpt>
<trkpt lat="30.8496000" lon="34.7331800">
<ele>469.339996</ele>
<time>2023-03-22T13:56:01.919Z</time>
</trkpt>
<trkpt lat="30.8497000" lon="34.7327000">
<ele>468.399994</ele>
<time>2023-03-22T13:56:01.919Z</time>
</trkpt>
<trkpt lat="30.8499500" lon="34.7317600">
<ele>466.690002</ele>
<time>2023-03-22T13:56:01.919Z</time>
</trkpt>
<trkpt lat="30.8500100" lon="34.7316000">
<ele>467.390015</ele>
<time>2023-03-22T13:56:01.919Z</time>
</trkpt>
<trkpt lat="30.8500400" lon="34.7314400">
<ele>468.439972</ele>
<time>2023-03-22T13:56:01.919Z</time>
</trkpt>
<trkpt lat="30.8502600" lon="34.7307000">
<ele>469.670013</ele>
<time>2023-03-22T13:56:01.919Z</time>
</trkpt>
<trkpt lat="30.8504600" lon="34.7301300">
<ele>468.820007</ele>
<time>2023-03-22T13:56:01.919Z</time>
</trkpt>
<trkpt lat="30.8505000" lon="34.7299800">
<ele>468.860016</ele>
<time>2023-03-22T13:56:01.919Z</time>
</trkpt>
<trkpt lat="30.8505000" lon="34.7299800">
<ele>468.860016</ele>
<time>2023-03-22T13:56:01.919Z</time>
</trkpt>
<trkpt lat="30.8505000" lon="34.7299800">
<ele>468.860016</ele>
<time>2023-03-22T13:56:01.919Z</time>
</trkpt>
<trkpt lat="30.8505300" lon="34.7298600">
<ele>469.370026</ele>
<time>2023-03-22T13:56:01.919Z</time>
</trkpt>
<trkpt lat="30.8506800" lon="34.7294600">
<ele>475.470001</ele>
<time>2023-03-22T13:56:01.919Z</time>
</trkpt>
<trkpt lat="30.8507800" lon="34.7291200">
<ele>477.540009</ele>
<time>2023-03-22T13:56:01.919Z</time>
</trkpt>
<trkpt lat="30.8508900" lon="34.7288900">
<ele>479.180023</ele>
<time>2023-03-22T13:56:01.919Z</time>
</trkpt>
<trkpt lat="30.8510400" lon="34.7280500">
<ele>467.790009</ele>
<time>2023-03-22T13:56:01.919Z</time>
</trkpt>
<trkpt lat="30.8513300" lon="34.7266100">
<ele>470.060028</ele>
<time>2023-03-22T13:56:01.919Z</time>
</trkpt>
<trkpt lat="30.8513400" lon="34.7262200">
<ele>477.850006</ele>
<time>2023-03-22T13:56:01.919Z</time>
</trkpt>
<trkpt lat="30.8506400" lon="34.7252500">
<ele>479.839996</ele>
<time>2023-03-22T13:56:01.919Z</time>
</trkpt>
<trkpt lat="30.8503600" lon="34.7247000">
<ele>481.500000</ele>
<time>2023-03-22T13:56:01.919Z</time>
</trkpt>
<trkpt lat="30.8502600" lon="34.7245500">
<ele>483.169983</ele>
<time>2023-03-22T13:56:01.919Z</time>
</trkpt>
<trkpt lat="30.8500500" lon="34.7242800">
<ele>483.410004</ele>
<time>2023-03-22T13:56:01.919Z</time>
</trkpt>
<trkpt lat="30.8497400" lon="34.7240000">
<ele>487.839996</ele>
<time>2023-03-22T13:56:01.919Z</time>
</trkpt>
<trkpt lat="30.8496800" lon="34.7238600">
<ele>487.100006</ele>
<time>2023-03-22T13:56:01.919Z</time>
</trkpt>
<trkpt lat="30.8496300" lon="34.7237800">
<ele>485.179993</ele>
<time>2023-03-22T13:56:01.919Z</time>
</trkpt>
<trkpt lat="30.8494200" lon="34.7235500">
<ele>482.900024</ele>
<time>2023-03-22T13:56:01.919Z</time>
</trkpt>
<trkpt lat="30.8493300" lon="34.7233900">
<ele>480.019989</ele>
<time>2023-03-22T13:56:01.919Z</time>
</trkpt>
<trkpt lat="30.8492700" lon="34.7231800">
<ele>477.689972</ele>
<time>2023-03-22T13:56:01.919Z</time>
</trkpt>
<trkpt lat="30.8491400" lon="34.7228700">
<ele>477.100006</ele>
<time>2023-03-22T13:56:01.919Z</time>
</trkpt>
<trkpt lat="30.8489700" lon="34.7223700">
<ele>476.899994</ele>
<time>2023-03-22T13:56:01.919Z</time>
</trkpt>
<trkpt lat="30.8489200" lon="34.7222600">
<ele>477.559998</ele>
<time>2023-03-22T13:56:01.919Z</time>
</trkpt>
<trkpt lat="30.8487500" lon="34.7220600">
<ele>476.160004</ele>
<time>2023-03-22T13:56:01.919Z</time>
</trkpt>
<trkpt lat="30.8487100" lon="34.7219700">
<ele>475.269989</ele>
<time>2023-03-22T13:56:01.919Z</time>
</trkpt>
<trkpt lat="30.8486900" lon="34.7218600">
<ele>474.149994</ele>
<time>2023-03-22T13:56:01.919Z</time>
</trkpt>
<trkpt lat="30.8486800" lon="34.7217100">
<ele>472.509979</ele>
<time>2023-03-22T13:56:01.919Z</time>
</trkpt>
<trkpt lat="30.8485100" lon="34.7212900">
<ele>475.700012</ele>
<time>2023-03-22T13:56:01.919Z</time>
</trkpt>
<trkpt lat="30.8484200" lon="34.7207500">
<ele>476.559998</ele>
<time>2023-03-22T13:56:01.919Z</time>
</trkpt>
<trkpt lat="30.8483000" lon="34.7204000">
<ele>479.439972</ele>
<time>2023-03-22T13:56:01.919Z</time>
</trkpt>
<trkpt lat="30.8482500" lon="34.7200500">
<ele>478.100006</ele>
<time>2023-03-22T13:56:01.919Z</time>
</trkpt>
<trkpt lat="30.8480100" lon="34.7192600">
<ele>471.399994</ele>
<time>2023-03-22T13:56:01.919Z</time>
</trkpt>
<trkpt lat="30.8477700" lon="34.7187500">
<ele>472.079987</ele>
<time>2023-03-22T13:56:01.919Z</time>
</trkpt>
<trkpt lat="30.8476600" lon="34.7185500">
<ele>473.980011</ele>
<time>2023-03-22T13:56:01.919Z</time>
</trkpt>
<trkpt lat="30.8474800" lon="34.7181100">
<ele>471.739990</ele>
<time>2023-03-22T13:56:01.919Z</time>
</trkpt>
<trkpt lat="30.8474100" lon="34.7179900">
<ele>473.019989</ele>
<time>2023-03-22T13:56:01.919Z</time>
</trkpt>
<trkpt lat="30.8470900" lon="34.7175600">
<ele>475.620026</ele>
<time>2023-03-22T13:56:01.919Z</time>
</trkpt>
<trkpt lat="30.8469700" lon="34.7172900">
<ele>476.459991</ele>
<time>2023-03-22T13:56:01.919Z</time>
</trkpt>
<trkpt lat="30.8469100" lon="34.7171800">
<ele>477.699982</ele>
<time>2023-03-22T13:56:01.919Z</time>
</trkpt>
<trkpt lat="30.8467200" lon="34.7169200">
<ele>481.649994</ele>
<time>2023-03-22T13:56:01.919Z</time>
</trkpt>
<trkpt lat="30.8466200" lon="34.7167100">
<ele>482.090027</ele>
<time>2023-03-22T13:56:01.919Z</time>
</trkpt>
<trkpt lat="30.8464800" lon="34.7162500">
<ele>483.190002</ele>
<time>2023-03-22T13:56:01.919Z</time>
</trkpt>
<trkpt lat="30.8464300" lon="34.7160000">
<ele>482.640015</ele>
<time>2023-03-22T13:56:01.919Z</time>
</trkpt>
<trkpt lat="30.8464400" lon="34.7156200">
<ele>482.589996</ele>
<time>2023-03-22T13:56:01.919Z</time>
</trkpt>
<trkpt lat="30.8463900" lon="34.7155000">
<ele>483.190002</ele>
<time>2023-03-22T13:56:01.919Z</time>
</trkpt>
<trkpt lat="30.8462500" lon="34.7152800">
<ele>484.500000</ele>
<time>2023-03-22T13:56:01.919Z</time>
</trkpt>
<trkpt lat="30.8461100" lon="34.7149100">
<ele>485.340027</ele>
<time>2023-03-22T13:56:01.919Z</time>
</trkpt>
<trkpt lat="30.8459000" lon="34.7147000">
<ele>482.260010</ele>
<time>2023-03-22T13:56:01.919Z</time>
</trkpt>
<trkpt lat="30.8456600" lon="34.7144400">
<ele>480.590027</ele>
<time>2023-03-22T13:56:01.919Z</time>
</trkpt>
<trkpt lat="30.8451100" lon="34.7139400">
<ele>491.660004</ele>
<time>2023-03-22T13:56:01.919Z</time>
</trkpt>
<trkpt lat="30.8448400" lon="34.7136300">
<ele>505.839996</ele>
<time>2023-03-22T13:56:01.919Z</time>
</trkpt>
<trkpt lat="30.8438800" lon="34.7128900">
<ele>517.669983</ele>
<time>2023-03-22T13:56:01.919Z</time>
</trkpt>
<trkpt lat="30.8437600" lon="34.7127800">
<ele>520.739990</ele>
<time>2023-03-22T13:56:01.919Z</time>
</trkpt>
<trkpt lat="30.8434800" lon="34.7124800">
<ele>524.099976</ele>
<time>2023-03-22T13:56:01.919Z</time>
</trkpt>
<trkpt lat="30.8433300" lon="34.7122700">
<ele>523.159973</ele>
<time>2023-03-22T13:56:01.919Z</time>
</trkpt>
<trkpt lat="30.8432000" lon="34.7119300">
<ele>510.689972</ele>
<time>2023-03-22T13:56:01.919Z</time>
</trkpt>
<trkpt lat="30.8431500" lon="34.7117600">
<ele>506.799988</ele>
<time>2023-03-22T13:56:01.919Z</time>
</trkpt>
<trkpt lat="30.8430400" lon="34.7114000">
<ele>500.570007</ele>
<time>2023-03-22T13:56:01.919Z</time>
</trkpt>
<trkpt lat="30.8430500" lon="34.7113300">
<ele>498.919983</ele>
<time>2023-03-22T13:56:01.919Z</time>
</trkpt>
<trkpt lat="30.8431100" lon="34.7111400">
<ele>494.029999</ele>
<time>2023-03-22T13:56:01.919Z</time>
</trkpt>
<trkpt lat="30.8431400" lon="34.7107100">
<ele>490.970001</ele>
<time>2023-03-22T13:56:01.919Z</time>
</trkpt>
<trkpt lat="30.8431300" lon="34.7102100">
<ele>486.200012</ele>
<time>2023-03-22T13:56:01.919Z</time>
</trkpt>
<trkpt lat="30.8431200" lon="34.7101400">
<ele>485.359985</ele>
<time>2023-03-22T13:56:01.919Z</time>
</trkpt>
<trkpt lat="30.8430900" lon="34.7100300">
<ele>484.510010</ele>
<time>2023-03-22T13:56:01.919Z</time>
</trkpt>
<trkpt lat="30.8430200" lon="34.7099200">
<ele>483.360016</ele>
<time>2023-03-22T13:56:01.919Z</time>
</trkpt>
<trkpt lat="30.8420000" lon="34.7085400">
<ele>478.410004</ele>
<time>2023-03-22T13:56:01.919Z</time>
</trkpt>
<trkpt lat="30.8419500" lon="34.7084700">
<ele>479.470001</ele>
<time>2023-03-22T13:56:01.919Z</time>
</trkpt>
<trkpt lat="30.8418800" lon="34.7084200">
<ele>480.690002</ele>
<time>2023-03-22T13:56:01.919Z</time>
</trkpt>
<trkpt lat="30.8416100" lon="34.7083000">
<ele>483.519989</ele>
<time>2023-03-22T13:56:01.919Z</time>
</trkpt>
<trkpt lat="30.8414000" lon="34.7080700">
<ele>482.949982</ele>
<time>2023-03-22T13:56:01.919Z</time>
</trkpt>
<trkpt lat="30.8412000" lon="34.7077300">
<ele>483.070007</ele>
<time>2023-03-22T13:56:01.919Z</time>
</trkpt>
<trkpt lat="30.8411500" lon="34.7075200">
<ele>484.209991</ele>
<time>2023-03-22T13:56:01.919Z</time>
</trkpt>
<trkpt lat="30.8409500" lon="34.7072100">
<ele>478.839996</ele>
<time>2023-03-22T13:56:01.919Z</time>
</trkpt>
<trkpt lat="30.8409100" lon="34.7070200">
<ele>474.009979</ele>
<time>2023-03-22T13:56:01.919Z</time>
</trkpt>
<trkpt lat="30.8408900" lon="34.7066700">
<ele>467.079987</ele>
<time>2023-03-22T13:56:01.919Z</time>
</trkpt>
<trkpt lat="30.8408400" lon="34.7065100">
<ele>466.590027</ele>
<time>2023-03-22T13:56:01.919Z</time>
</trkpt>
<trkpt lat="30.8407300" lon="34.7062900">
<ele>468.009979</ele>
<time>2023-03-22T13:56:01.919Z</time>
</trkpt>
<trkpt lat="30.8406900" lon="34.7061300">
<ele>468.990021</ele>
<time>2023-03-22T13:56:01.919Z</time>
</trkpt>
<trkpt lat="30.8406300" lon="34.7060400">
<ele>469.550018</ele>
<time>2023-03-22T13:56:01.919Z</time>
</trkpt>
<trkpt lat="30.8405800" lon="34.7060100">
<ele>469.979980</ele>
<time>2023-03-22T13:56:01.919Z</time>
</trkpt>
<trkpt lat="30.8404800" lon="34.7060000">
<ele>468.239990</ele>
<time>2023-03-22T13:56:01.919Z</time>
</trkpt>
<trkpt lat="30.8403900" lon="34.7059600">
<ele>465.789978</ele>
<time>2023-03-22T13:56:01.919Z</time>
</trkpt>
<trkpt lat="30.8403200" lon="34.7058600">
<ele>463.940002</ele>
<time>2023-03-22T13:56:01.919Z</time>
</trkpt>
<trkpt lat="30.8402800" lon="34.7056800">
<ele>462.489990</ele>
<time>2023-03-22T13:56:01.919Z</time>
</trkpt>
<trkpt lat="30.8402800" lon="34.7056800">
<ele>462.489990</ele>
<time>2023-03-22T13:56:01.919Z</time>
</trkpt>
<trkpt lat="30.8402800" lon="34.7056800">
<ele>462.489990</ele>
<time>2023-03-22T13:56:01.919Z</time>
</trkpt>
<trkpt lat="30.8402400" lon="34.7054700">
<ele>461.910004</ele>
<time>2023-03-22T13:56:01.919Z</time>
</trkpt>
<trkpt lat="30.8401900" lon="34.7051400">
<ele>461.769989</ele>
<time>2023-03-22T13:56:01.919Z</time>
</trkpt>
<trkpt lat="30.8401400" lon="34.7049800">
<ele>462.520020</ele>
<time>2023-03-22T13:56:01.919Z</time>
</trkpt>
<trkpt lat="30.8397800" lon="34.7045900">
<ele>469.690002</ele>
<time>2023-03-22T13:56:01.919Z</time>
</trkpt>
<trkpt lat="30.8397200" lon="34.7045400">
<ele>470.709991</ele>
<time>2023-03-22T13:56:01.919Z</time>
</trkpt>
<trkpt lat="30.8396200" lon="34.7044200">
<ele>471.269989</ele>
<time>2023-03-22T13:56:01.919Z</time>
</trkpt>
<trkpt lat="30.8395300" lon="34.7041600">
<ele>471.139984</ele>
<time>2023-03-22T13:56:01.919Z</time>
</trkpt>
<trkpt lat="30.8395300" lon="34.7040000">
<ele>470.920013</ele>
<time>2023-03-22T13:56:01.919Z</time>
</trkpt>
<trkpt lat="30.8395100" lon="34.7039200">
<ele>471.119995</ele>
<time>2023-03-22T13:56:01.919Z</time>
</trkpt>
<trkpt lat="30.8392700" lon="34.7031800">
<ele>469.880005</ele>
<time>2023-03-22T13:56:01.919Z</time>
</trkpt>
<trkpt lat="30.8386800" lon="34.7021800">
<ele>461.930023</ele>
<time>2023-03-22T13:56:01.919Z</time>
</trkpt>
<trkpt lat="30.8386300" lon="34.7020600">
<ele>462.220001</ele>
<time>2023-03-22T13:56:01.919Z</time>
</trkpt>
<trkpt lat="30.8385500" lon="34.7016000">
<ele>463.250000</ele>
<time>2023-03-22T13:56:01.919Z</time>
</trkpt>
<trkpt lat="30.8384000" lon="34.7012700">
<ele>468.350006</ele>
<time>2023-03-22T13:56:01.919Z</time>
</trkpt>
<trkpt lat="30.8383600" lon="34.7012100">
<ele>469.619995</ele>
<time>2023-03-22T13:56:01.919Z</time>
</trkpt>
<trkpt lat="30.8381500" lon="34.7010600">
<ele>474.609985</ele>
<time>2023-03-22T13:56:01.919Z</time>
</trkpt>
<trkpt lat="30.8381100" lon="34.7010000">
<ele>475.739990</ele>
<time>2023-03-22T13:56:01.919Z</time>
</trkpt>
<trkpt lat="30.8380000" lon="34.7007300">
<ele>478.299988</ele>
<time>2023-03-22T13:56:01.919Z</time>
</trkpt>
<trkpt lat="30.8379100" lon="34.7006100">
<ele>479.190002</ele>
<time>2023-03-22T13:56:01.919Z</time>
</trkpt>
<trkpt lat="30.8378600" lon="34.7005100">
<ele>479.279999</ele>
<time>2023-03-22T13:56:01.919Z</time>
</trkpt>
<trkpt lat="30.8378200" lon="34.7003900">
<ele>478.509979</ele>
<time>2023-03-22T13:56:01.919Z</time>
</trkpt>
<trkpt lat="30.8377900" lon="34.7001100">
<ele>474.179993</ele>
<time>2023-03-22T13:56:01.919Z</time>
</trkpt>
<trkpt lat="30.8378100" lon="34.6999700">
<ele>471.130005</ele>
<time>2023-03-22T13:56:01.919Z</time>
</trkpt>
<trkpt lat="30.8378800" lon="34.6996200">
<ele>466.299988</ele>
<time>2023-03-22T13:56:01.919Z</time>
</trkpt>
<trkpt lat="30.8379800" lon="34.6988700">
<ele>460.340027</ele>
<time>2023-03-22T13:56:01.919Z</time>
</trkpt>
<trkpt lat="30.8381800" lon="34.6981000">
<ele>454.090027</ele>
<time>2023-03-22T13:56:01.935Z</time>
</trkpt>
<trkpt lat="30.8382700" lon="34.6977600">
<ele>452.859985</ele>
<time>2023-03-22T13:56:01.935Z</time>
</trkpt>
<trkpt lat="30.8384800" lon="34.6971500">
<ele>448.860016</ele>
<time>2023-03-22T13:56:01.935Z</time>
</trkpt>
<trkpt lat="30.8385200" lon="34.6969200">
<ele>446.540009</ele>
<time>2023-03-22T13:56:01.935Z</time>
</trkpt>
<trkpt lat="30.8385200" lon="34.6967200">
<ele>445.579987</ele>
<time>2023-03-22T13:56:01.935Z</time>
</trkpt>
<trkpt lat="30.8385200" lon="34.6968500">
<ele>446.200012</ele>
<time>2023-03-22T13:56:01.935Z</time>
</trkpt>
<trkpt lat="30.8385300" lon="34.6968800">
<ele>446.279999</ele>
<time>2023-03-22T13:56:01.935Z</time>
</trkpt>
<trkpt lat="30.8385300" lon="34.6968100">
<ele>445.960022</ele>
<time>2023-03-22T13:56:01.935Z</time>
</trkpt>
<trkpt lat="30.8385200" lon="34.6966600">
<ele>445.369995</ele>
<time>2023-03-22T13:56:01.935Z</time>
</trkpt>
<trkpt lat="30.8384600" lon="34.6965400">
<ele>446.210022</ele>
<time>2023-03-22T13:56:01.935Z</time>
</trkpt>
<trkpt lat="30.8383500" lon="34.6964200">
<ele>446.880005</ele>
<time>2023-03-22T13:56:01.935Z</time>
</trkpt>
<trkpt lat="30.8382100" lon="34.6963100">
<ele>448.929993</ele>
<time>2023-03-22T13:56:01.935Z</time>
</trkpt>
<trkpt lat="30.8381600" lon="34.6962500">
<ele>449.750000</ele>
<time>2023-03-22T13:56:01.935Z</time>
</trkpt>
<trkpt lat="30.8380900" lon="34.6959800">
<ele>451.880005</ele>
<time>2023-03-22T13:56:01.935Z</time>
</trkpt>
<trkpt lat="30.8378900" lon="34.6956100">
<ele>452.389984</ele>
<time>2023-03-22T13:56:01.935Z</time>
</trkpt>
<trkpt lat="30.8377900" lon="34.6952500">
<ele>453.260010</ele>
<time>2023-03-22T13:56:01.935Z</time>
</trkpt>
<trkpt lat="30.8376900" lon="34.6949500">
<ele>452.120026</ele>
<time>2023-03-22T13:56:01.935Z</time>
</trkpt>
<trkpt lat="30.8376700" lon="34.6947700">
<ele>450.729980</ele>
<time>2023-03-22T13:56:01.935Z</time>
</trkpt>
<trkpt lat="30.8376700" lon="34.6943900">
<ele>445.899994</ele>
<time>2023-03-22T13:56:01.935Z</time>
</trkpt>
<trkpt lat="30.8377500" lon="34.6940300">
<ele>445.449982</ele>
<time>2023-03-22T13:56:01.935Z</time>
</trkpt>
<trkpt lat="30.8378300" lon="34.6937800">
<ele>448.160004</ele>
<time>2023-03-22T13:56:01.935Z</time>
</trkpt>
<trkpt lat="30.8379200" lon="34.6934200">
<ele>453.100006</ele>
<time>2023-03-22T13:56:01.935Z</time>
</trkpt>
<trkpt lat="30.8379600" lon="34.6931200">
<ele>456.350006</ele>
<time>2023-03-22T13:56:01.935Z</time>
</trkpt>
<trkpt lat="30.8379700" lon="34.6929500">
<ele>456.169983</ele>
<time>2023-03-22T13:56:01.935Z</time>
</trkpt>
<trkpt lat="30.8379200" lon="34.6927900">
<ele>454.600006</ele>
<time>2023-03-22T13:56:01.935Z</time>
</trkpt>
<trkpt lat="30.8377500" lon="34.6923100">
<ele>448.520020</ele>
<time>2023-03-22T13:56:01.935Z</time>
</trkpt>
<trkpt lat="30.8377200" lon="34.6921200">
<ele>446.760010</ele>
<time>2023-03-22T13:56:01.935Z</time>
</trkpt>
<trkpt lat="30.8377400" lon="34.6912900">
<ele>437.549988</ele>
<time>2023-03-22T13:56:01.935Z</time>
</trkpt>
<trkpt lat="30.8377600" lon="34.6910200">
<ele>433.360016</ele>
<time>2023-03-22T13:56:01.935Z</time>
</trkpt>
<trkpt lat="30.8378300" lon="34.6906000">
<ele>429.040009</ele>
<time>2023-03-22T13:56:01.935Z</time>
</trkpt>
<trkpt lat="30.8378500" lon="34.6901000">
<ele>429.869995</ele>
<time>2023-03-22T13:56:01.935Z</time>
</trkpt>
<trkpt lat="30.8378600" lon="34.6900200">
<ele>430.949982</ele>
<time>2023-03-22T13:56:01.935Z</time>
</trkpt>
<trkpt lat="30.8380500" lon="34.6893900">
<ele>443.160004</ele>
<time>2023-03-22T13:56:01.935Z</time>
</trkpt>
<trkpt lat="30.8381200" lon="34.6890100">
<ele>441.179993</ele>
<time>2023-03-22T13:56:01.935Z</time>
</trkpt>
<trkpt lat="30.8381300" lon="34.6887400">
<ele>440.390015</ele>
<time>2023-03-22T13:56:01.935Z</time>
</trkpt>
<trkpt lat="30.8380900" lon="34.6884500">
<ele>443.940002</ele>
<time>2023-03-22T13:56:01.935Z</time>
</trkpt>
<trkpt lat="30.8378500" lon="34.6875400">
<ele>456.559998</ele>
<time>2023-03-22T13:56:01.935Z</time>
</trkpt>
<trkpt lat="30.8376400" lon="34.6871000">
<ele>456.839996</ele>
<time>2023-03-22T13:56:01.935Z</time>
</trkpt>
<trkpt lat="30.8370300" lon="34.6861600">
<ele>453.600006</ele>
<time>2023-03-22T13:56:01.935Z</time>
</trkpt>
<trkpt lat="30.8366200" lon="34.6853900">
<ele>455.169983</ele>
<time>2023-03-22T13:56:01.935Z</time>
</trkpt>
<trkpt lat="30.8360700" lon="34.6845700">
<ele>457.210022</ele>
<time>2023-03-22T13:56:01.935Z</time>
</trkpt>
<trkpt lat="30.8359300" lon="34.6843200">
<ele>456.020020</ele>
<time>2023-03-22T13:56:01.935Z</time>
</trkpt>
<trkpt lat="30.8359300" lon="34.6843200">
<ele>456.020020</ele>
<time>2023-03-22T13:56:01.935Z</time>
</trkpt>
<trkpt lat="30.8359300" lon="34.6843200">
<ele>456.020020</ele>
<time>2023-03-22T13:56:01.935Z</time>
</trkpt>
<trkpt lat="30.8358800" lon="34.6842300">
<ele>454.869995</ele>
<time>2023-03-22T13:56:01.935Z</time>
</trkpt>
<trkpt lat="30.8358400" lon="34.6841100">
<ele>452.790009</ele>
<time>2023-03-22T13:56:01.935Z</time>
</trkpt>
<trkpt lat="30.8358300" lon="34.6839300">
<ele>448.870026</ele>
<time>2023-03-22T13:56:01.935Z</time>
</trkpt>
<trkpt lat="30.8358400" lon="34.6837800">
<ele>446.090027</ele>
<time>2023-03-22T13:56:01.935Z</time>
</trkpt>
<trkpt lat="30.8361000" lon="34.6826400">
<ele>440.430023</ele>
<time>2023-03-22T13:56:01.935Z</time>
</trkpt>
<trkpt lat="30.8361100" lon="34.6825300">
<ele>441.670013</ele>
<time>2023-03-22T13:56:01.935Z</time>
</trkpt>
<trkpt lat="30.8360800" lon="34.6822300">
<ele>448.799988</ele>
<time>2023-03-22T13:56:01.935Z</time>
</trkpt>
<trkpt lat="30.8360200" lon="34.6819900">
<ele>449.550018</ele>
<time>2023-03-22T13:56:01.935Z</time>
</trkpt>
<trkpt lat="30.8359200" lon="34.6817100">
<ele>449.589996</ele>
<time>2023-03-22T13:56:01.935Z</time>
</trkpt>
<trkpt lat="30.8357700" lon="34.6814200">
<ele>457.470001</ele>
<time>2023-03-22T13:56:01.935Z</time>
</trkpt>
<trkpt lat="30.8355800" lon="34.6812100">
<ele>453.629974</ele>
<time>2023-03-22T13:56:01.935Z</time>
</trkpt>
<trkpt lat="30.8354800" lon="34.6811200">
<ele>449.369995</ele>
<time>2023-03-22T13:56:01.935Z</time>
</trkpt>
<trkpt lat="30.8350700" lon="34.6812800">
<ele>432.410004</ele>
<time>2023-03-22T13:56:01.935Z</time>
</trkpt>
<trkpt lat="30.8342800" lon="34.6814300">
<ele>424.859985</ele>
<time>2023-03-22T13:56:01.935Z</time>
</trkpt>
<trkpt lat="30.8333400" lon="34.6799000">
<ele>437.700012</ele>
<time>2023-03-22T13:56:01.935Z</time>
</trkpt>
<trkpt lat="30.8333400" lon="34.6799000">
<ele>437.700012</ele>
<time>2023-03-22T13:56:01.935Z</time>
</trkpt>
<trkpt lat="30.8325500" lon="34.6785900">
<ele>421.349976</ele>
<time>2023-03-22T13:56:01.935Z</time>
</trkpt>
<trkpt lat="30.8315500" lon="34.6775600">
<ele>423.700012</ele>
<time>2023-03-22T13:56:01.935Z</time>
</trkpt>
<trkpt lat="30.8314900" lon="34.6776300">
<ele>420.730011</ele>
<time>2023-03-22T13:56:01.935Z</time>
</trkpt>
<trkpt lat="30.8314100" lon="34.6776700">
<ele>417.519989</ele>
<time>2023-03-22T13:56:01.935Z</time>
</trkpt>
<trkpt lat="30.8309900" lon="34.6777100">
<ele>406.830017</ele>
<time>2023-03-22T13:56:01.935Z</time>
</trkpt>
<trkpt lat="30.8309600" lon="34.6777200">
<ele>405.989990</ele>
<time>2023-03-22T13:56:01.935Z</time>
</trkpt>
<trkpt lat="30.8309600" lon="34.6777200">
<ele>405.989990</ele>
<time>2023-03-22T13:56:01.935Z</time>
</trkpt>
<trkpt lat="30.8309600" lon="34.6777200">
<ele>405.989990</ele>
<time>2023-03-22T13:56:01.935Z</time>
</trkpt>
<trkpt lat="30.8308300" lon="34.6777700">
<ele>402.080017</ele>
<time>2023-03-22T13:56:01.935Z</time>
</trkpt>
<trkpt lat="30.8299500" lon="34.6783500">
<ele>406.559998</ele>
<time>2023-03-22T13:56:01.935Z</time>
</trkpt>
<trkpt lat="30.8297100" lon="34.6784700">
<ele>411.289978</ele>
<time>2023-03-22T13:56:01.935Z</time>
</trkpt>
<trkpt lat="30.8296000" lon="34.6784900">
<ele>413.009979</ele>
<time>2023-03-22T13:56:01.935Z</time>
</trkpt>
<trkpt lat="30.8295300" lon="34.6784900">
<ele>414.380005</ele>
<time>2023-03-22T13:56:01.935Z</time>
</trkpt>
<trkpt lat="30.8294100" lon="34.6784400">
<ele>417.549988</ele>
<time>2023-03-22T13:56:01.935Z</time>
</trkpt>
<trkpt lat="30.8293400" lon="34.6783800">
<ele>419.139984</ele>
<time>2023-03-22T13:56:01.935Z</time>
</trkpt>
<trkpt lat="30.8292600" lon="34.6782900">
<ele>420.419983</ele>
<time>2023-03-22T13:56:01.935Z</time>
</trkpt>
<trkpt lat="30.8292300" lon="34.6782100">
<ele>421.090027</ele>
<time>2023-03-22T13:56:01.935Z</time>
</trkpt>
<trkpt lat="30.8291400" lon="34.6778600">
<ele>419.120026</ele>
<time>2023-03-22T13:56:01.935Z</time>
</trkpt>
<trkpt lat="30.8291300" lon="34.6777100">
<ele>417.320007</ele>
<time>2023-03-22T13:56:01.935Z</time>
</trkpt>
<trkpt lat="30.8291300" lon="34.6777100">
<ele>417.320007</ele>
<time>2023-03-22T13:56:01.935Z</time>
</trkpt>
<trkpt lat="30.8291300" lon="34.6777100">
<ele>417.320007</ele>
<time>2023-03-22T13:56:01.935Z</time>
</trkpt>
<trkpt lat="30.8291000" lon="34.6774300">
<ele>414.459991</ele>
<time>2023-03-22T13:56:01.935Z</time>
</trkpt>
<trkpt lat="30.8288400" lon="34.6765800">
<ele>409.950012</ele>
<time>2023-03-22T13:56:01.935Z</time>
</trkpt>
<trkpt lat="30.8288100" lon="34.6764000">
<ele>411.779999</ele>
<time>2023-03-22T13:56:01.935Z</time>
</trkpt>
<trkpt lat="30.8288100" lon="34.6760100">
<ele>409.149994</ele>
<time>2023-03-22T13:56:01.935Z</time>
</trkpt>
<trkpt lat="30.8288400" lon="34.6758400">
<ele>407.699982</ele>
<time>2023-03-22T13:56:01.935Z</time>
</trkpt>
<trkpt lat="30.8289900" lon="34.6752500">
<ele>406.150024</ele>
<time>2023-03-22T13:56:01.935Z</time>
</trkpt>
<trkpt lat="30.8290400" lon="34.6749200">
<ele>403.759979</ele>
<time>2023-03-22T13:56:01.935Z</time>
</trkpt>
<trkpt lat="30.8290300" lon="34.6746500">
<ele>403.209991</ele>
<time>2023-03-22T13:56:01.935Z</time>
</trkpt>
<trkpt lat="30.8289400" lon="34.6742700">
<ele>403.960022</ele>
<time>2023-03-22T13:56:01.935Z</time>
</trkpt>
<trkpt lat="30.8288900" lon="34.6741500">
<ele>405.160004</ele>
<time>2023-03-22T13:56:01.935Z</time>
</trkpt>
<trkpt lat="30.8287700" lon="34.6739900">
<ele>409.360016</ele>
<time>2023-03-22T13:56:01.935Z</time>
</trkpt>
<trkpt lat="30.8283500" lon="34.6736300">
<ele>424.100006</ele>
<time>2023-03-22T13:56:01.935Z</time>
</trkpt>
<trkpt lat="30.8279800" lon="34.6733800">
<ele>424.839996</ele>
<time>2023-03-22T13:56:01.935Z</time>
</trkpt>
<trkpt lat="30.8279100" lon="34.6732500">
<ele>424.110016</ele>
<time>2023-03-22T13:56:01.935Z</time>
</trkpt>
<trkpt lat="30.8278800" lon="34.6731500">
<ele>424.149994</ele>
<time>2023-03-22T13:56:01.935Z</time>
</trkpt>
<trkpt lat="30.8278800" lon="34.6730300">
<ele>424.300018</ele>
<time>2023-03-22T13:56:01.935Z</time>
</trkpt>
<trkpt lat="30.8279300" lon="34.6723900">
<ele>420.899994</ele>
<time>2023-03-22T13:56:01.935Z</time>
</trkpt>
<trkpt lat="30.8279700" lon="34.6709300">
<ele>413.470032</ele>
<time>2023-03-22T13:56:01.935Z</time>
</trkpt>
<trkpt lat="30.8280700" lon="34.6699100">
<ele>405.839996</ele>
<time>2023-03-22T13:56:01.935Z</time>
</trkpt>
<trkpt lat="30.8280900" lon="34.6693000">
<ele>398.329987</ele>
<time>2023-03-22T13:56:01.935Z</time>
</trkpt>
<trkpt lat="30.8281300" lon="34.6688800">
<ele>400.079987</ele>
<time>2023-03-22T13:56:01.935Z</time>
</trkpt>
<trkpt lat="30.8281300" lon="34.6688800">
<ele>400.079987</ele>
<time>2023-03-22T13:56:01.935Z</time>
</trkpt>
<trkpt lat="30.8281300" lon="34.6688800">
<ele>400.079987</ele>
<time>2023-03-22T13:56:01.935Z</time>
</trkpt>
<trkpt lat="30.8281400" lon="34.6687800">
<ele>400.940002</ele>
<time>2023-03-22T13:56:01.935Z</time>
</trkpt>
<trkpt lat="30.8281000" lon="34.6678200">
<ele>405.010010</ele>
<time>2023-03-22T13:56:01.935Z</time>
</trkpt>
<trkpt lat="30.8281100" lon="34.6674100">
<ele>403.239990</ele>
<time>2023-03-22T13:56:01.935Z</time>
</trkpt>
<trkpt lat="30.8281400" lon="34.6672300">
<ele>403.459991</ele>
<time>2023-03-22T13:56:01.935Z</time>
</trkpt>
<trkpt lat="30.8282900" lon="34.6668900">
<ele>402.970001</ele>
<time>2023-03-22T13:56:01.935Z</time>
</trkpt>
<trkpt lat="30.8283000" lon="34.6667900">
<ele>401.820007</ele>
<time>2023-03-22T13:56:01.935Z</time>
</trkpt>
<trkpt lat="30.8282800" lon="34.6667100">
<ele>400.089996</ele>
<time>2023-03-22T13:56:01.935Z</time>
</trkpt>
<trkpt lat="30.8282100" lon="34.6665100">
<ele>397.759979</ele>
<time>2023-03-22T13:56:01.935Z</time>
</trkpt>
<trkpt lat="30.8281300" lon="34.6661700">
<ele>397.350006</ele>
<time>2023-03-22T13:56:01.935Z</time>
</trkpt>
<trkpt lat="30.8280400" lon="34.6659100">
<ele>397.880005</ele>
<time>2023-03-22T13:56:01.935Z</time>
</trkpt>
<trkpt lat="30.8280300" lon="34.6657700">
<ele>398.350006</ele>
<time>2023-03-22T13:56:01.935Z</time>
</trkpt>
<trkpt lat="30.8280400" lon="34.6652600">
<ele>395.950012</ele>
<time>2023-03-22T13:56:01.935Z</time>
</trkpt>
<trkpt lat="30.8280100" lon="34.6645100">
<ele>396.389984</ele>
<time>2023-03-22T13:56:01.935Z</time>
</trkpt>
<trkpt lat="30.8280500" lon="34.6641000">
<ele>396.699982</ele>
<time>2023-03-22T13:56:01.935Z</time>
</trkpt>
<trkpt lat="30.8280500" lon="34.6638100">
<ele>396.470001</ele>
<time>2023-03-22T13:56:01.935Z</time>
</trkpt>
<trkpt lat="30.8280100" lon="34.6636700">
<ele>396.399994</ele>
<time>2023-03-22T13:56:01.935Z</time>
</trkpt>
<trkpt lat="30.8279200" lon="34.6634700">
<ele>393.589996</ele>
<time>2023-03-22T13:56:01.935Z</time>
</trkpt>
<trkpt lat="30.8278200" lon="34.6631700">
<ele>390.310028</ele>
<time>2023-03-22T13:56:01.935Z</time>
</trkpt>
<trkpt lat="30.8276300" lon="34.6627600">
<ele>389.470001</ele>
<time>2023-03-22T13:56:01.935Z</time>
</trkpt>
<trkpt lat="30.8274700" lon="34.6621500">
<ele>391.200012</ele>
<time>2023-03-22T13:56:01.935Z</time>
</trkpt>
<trkpt lat="30.8272900" lon="34.6617100">
<ele>392.179993</ele>
<time>2023-03-22T13:56:01.935Z</time>
</trkpt>
<trkpt lat="30.8270700" lon="34.6610400">
<ele>393.320007</ele>
<time>2023-03-22T13:56:01.935Z</time>
</trkpt>
<trkpt lat="30.8270000" lon="34.6607800">
<ele>390.209991</ele>
<time>2023-03-22T13:56:01.935Z</time>
</trkpt>
<trkpt lat="30.8269300" lon="34.6604000">
<ele>381.510010</ele>
<time>2023-03-22T13:56:01.935Z</time>
</trkpt>
<trkpt lat="30.8268700" lon="34.6602500">
<ele>378.329987</ele>
<time>2023-03-22T13:56:01.935Z</time>
</trkpt>
<trkpt lat="30.8267400" lon="34.6600900">
<ele>373.000000</ele>
<time>2023-03-22T13:56:01.935Z</time>
</trkpt>
<trkpt lat="30.8266200" lon="34.6600100">
<ele>370.220001</ele>
<time>2023-03-22T13:56:01.935Z</time>
</trkpt>
<trkpt lat="30.8264500" lon="34.6599300">
<ele>368.630005</ele>
<time>2023-03-22T13:56:01.935Z</time>
</trkpt>
<trkpt lat="30.8263100" lon="34.6598400">
<ele>366.760010</ele>
<time>2023-03-22T13:56:01.935Z</time>
</trkpt>
<trkpt lat="30.8262300" lon="34.6597400">
<ele>365.209991</ele>
<time>2023-03-22T13:56:01.935Z</time>
</trkpt>
<trkpt lat="30.8261000" lon="34.6594700">
<ele>366.880005</ele>
<time>2023-03-22T13:56:01.935Z</time>
</trkpt>
<trkpt lat="30.8260400" lon="34.6591900">
<ele>371.200012</ele>
<time>2023-03-22T13:56:01.935Z</time>
</trkpt>
<trkpt lat="30.8262500" lon="34.6591200">
<ele>367.839996</ele>
<time>2023-03-22T13:56:01.935Z</time>
</trkpt>
<trkpt lat="30.8266900" lon="34.6588500">
<ele>370.170013</ele>
<time>2023-03-22T13:56:01.935Z</time>
</trkpt>
<trkpt lat="30.8274000" lon="34.6580700">
<ele>370.559998</ele>
<time>2023-03-22T13:56:01.935Z</time>
</trkpt>
<trkpt lat="30.8275600" lon="34.6578500">
<ele>367.799988</ele>
<time>2023-03-22T13:56:01.935Z</time>
</trkpt>
<trkpt lat="30.8275600" lon="34.6575800">
<ele>364.199982</ele>
<time>2023-03-22T13:56:01.935Z</time>
</trkpt>
<trkpt lat="30.8278700" lon="34.6572400">
<ele>364.649994</ele>
<time>2023-03-22T13:56:01.935Z</time>
</trkpt>
<trkpt lat="30.8280500" lon="34.6567600">
<ele>366.380005</ele>
<time>2023-03-22T13:56:01.935Z</time>
</trkpt>
<trkpt lat="30.8280500" lon="34.6567600">
<ele>366.380005</ele>
<time>2023-03-22T13:56:01.935Z</time>
</trkpt>
<trkpt lat="30.8280500" lon="34.6567600">
<ele>366.380005</ele>
<time>2023-03-22T13:56:01.935Z</time>
</trkpt>
<trkpt lat="30.8280900" lon="34.6566500">
<ele>367.539978</ele>
<time>2023-03-22T13:56:01.935Z</time>
</trkpt>
<trkpt lat="30.8283500" lon="34.6558400">
<ele>372.140015</ele>
<time>2023-03-22T13:56:01.935Z</time>
</trkpt>
<trkpt lat="30.8284800" lon="34.6552300">
<ele>369.739990</ele>
<time>2023-03-22T13:56:01.935Z</time>
</trkpt>
<trkpt lat="30.8286100" lon="34.6546100">
<ele>366.209991</ele>
<time>2023-03-22T13:56:01.935Z</time>
</trkpt>
<trkpt lat="30.8288500" lon="34.6540400">
<ele>363.599976</ele>
<time>2023-03-22T13:56:01.935Z</time>
</trkpt>
<trkpt lat="30.8290900" lon="34.6534800">
<ele>369.089996</ele>
<time>2023-03-22T13:56:01.935Z</time>
</trkpt>
<trkpt lat="30.8290800" lon="34.6526800">
<ele>372.830017</ele>
<time>2023-03-22T13:56:01.935Z</time>
</trkpt>
<trkpt lat="30.8291400" lon="34.6523600">
<ele>370.679993</ele>
<time>2023-03-22T13:56:01.935Z</time>
</trkpt>
<trkpt lat="30.8292600" lon="34.6517500">
<ele>366.369995</ele>
<time>2023-03-22T13:56:01.935Z</time>
</trkpt>
<trkpt lat="30.8292400" lon="34.6511400">
<ele>361.970032</ele>
<time>2023-03-22T13:56:01.935Z</time>
</trkpt>
<trkpt lat="30.8293000" lon="34.6504000">
<ele>363.309998</ele>
<time>2023-03-22T13:56:01.935Z</time>
</trkpt>
<trkpt lat="30.8293600" lon="34.6496600">
<ele>362.600006</ele>
<time>2023-03-22T13:56:01.935Z</time>
</trkpt>
<trkpt lat="30.8296700" lon="34.6490500">
<ele>360.009979</ele>
<time>2023-03-22T13:56:01.935Z</time>
</trkpt>
<trkpt lat="30.8299700" lon="34.6484500">
<ele>354.609985</ele>
<time>2023-03-22T13:56:01.935Z</time>
</trkpt>
<trkpt lat="30.8302800" lon="34.6479600">
<ele>360.450012</ele>
<time>2023-03-22T13:56:01.935Z</time>
</trkpt>
<trkpt lat="30.8305900" lon="34.6474600">
<ele>374.750000</ele>
<time>2023-03-22T13:56:01.935Z</time>
</trkpt>
<trkpt lat="30.8309000" lon="34.6469700">
<ele>376.709991</ele>
<time>2023-03-22T13:56:01.935Z</time>
</trkpt>
<trkpt lat="30.8309000" lon="34.6469700">
<ele>376.709991</ele>
<time>2023-03-22T13:56:01.935Z</time>
</trkpt>
<trkpt lat="30.8309000" lon="34.6469700">
<ele>376.709991</ele>
<time>2023-03-22T13:56:01.935Z</time>
</trkpt>
<trkpt lat="30.8309500" lon="34.6469000">
<ele>376.740021</ele>
<time>2023-03-22T13:56:01.935Z</time>
</trkpt>
<trkpt lat="30.8312800" lon="34.6466400">
<ele>376.119995</ele>
<time>2023-03-22T13:56:01.935Z</time>
</trkpt>
<trkpt lat="30.8314700" lon="34.6465700">
<ele>371.660004</ele>
<time>2023-03-22T13:56:01.935Z</time>
</trkpt>
<trkpt lat="30.8316100" lon="34.6466000">
<ele>368.609985</ele>
<time>2023-03-22T13:56:01.935Z</time>
</trkpt>
<trkpt lat="30.8320200" lon="34.6461500">
<ele>355.010010</ele>
<time>2023-03-22T13:56:01.935Z</time>
</trkpt>
<trkpt lat="30.8325800" lon="34.6458600">
<ele>355.590027</ele>
<time>2023-03-22T13:56:01.935Z</time>
</trkpt>
<trkpt lat="30.8330900" lon="34.6454200">
<ele>363.910004</ele>
<time>2023-03-22T13:56:01.935Z</time>
</trkpt>
<trkpt lat="30.8332100" lon="34.6452400">
<ele>363.680023</ele>
<time>2023-03-22T13:56:01.935Z</time>
</trkpt>
<trkpt lat="30.8330300" lon="34.6443400">
<ele>348.659973</ele>
<time>2023-03-22T13:56:01.935Z</time>
</trkpt>
<trkpt lat="30.8330600" lon="34.6438600">
<ele>357.799988</ele>
<time>2023-03-22T13:56:01.935Z</time>
</trkpt>
<trkpt lat="30.8331500" lon="34.6436300">
<ele>355.979980</ele>
<time>2023-03-22T13:56:01.935Z</time>
</trkpt>
<trkpt lat="30.8331500" lon="34.6431900">
<ele>350.969971</ele>
<time>2023-03-22T13:56:01.935Z</time>
</trkpt>
<trkpt lat="30.8333300" lon="34.6430800">
<ele>351.149994</ele>
<time>2023-03-22T13:56:01.935Z</time>
</trkpt>
<trkpt lat="30.8338400" lon="34.6423700">
<ele>353.190002</ele>
<time>2023-03-22T13:56:01.935Z</time>
</trkpt>
<trkpt lat="30.8341100" lon="34.6418400">
<ele>353.239990</ele>
<time>2023-03-22T13:56:01.935Z</time>
</trkpt>
<trkpt lat="30.8340700" lon="34.6416800">
<ele>355.729980</ele>
<time>2023-03-22T13:56:01.935Z</time>
</trkpt>
<trkpt lat="30.8340900" lon="34.6414000">
<ele>357.219971</ele>
<time>2023-03-22T13:56:01.935Z</time>
</trkpt>
<trkpt lat="30.8344200" lon="34.6408900">
<ele>351.919983</ele>
<time>2023-03-22T13:56:01.935Z</time>
</trkpt>
<trkpt lat="30.8347900" lon="34.6401700">
<ele>343.929993</ele>
<time>2023-03-22T13:56:01.935Z</time>
</trkpt>
<trkpt lat="30.8349000" lon="34.6396300">
<ele>342.690002</ele>
<time>2023-03-22T13:56:01.935Z</time>
</trkpt>
<trkpt lat="30.8351400" lon="34.6391000">
<ele>343.720001</ele>
<time>2023-03-22T13:56:01.935Z</time>
</trkpt>
<trkpt lat="30.8351400" lon="34.6391000">
<ele>343.720001</ele>
<time>2023-03-22T13:56:01.935Z</time>
</trkpt>
<trkpt lat="30.8351400" lon="34.6391000">
<ele>343.720001</ele>
<time>2023-03-22T13:56:01.935Z</time>
</trkpt>
<trkpt lat="30.8352800" lon="34.6388000">
<ele>339.369995</ele>
<time>2023-03-22T13:56:01.935Z</time>
</trkpt>
<trkpt lat="30.8355800" lon="34.6384100">
<ele>338.019989</ele>
<time>2023-03-22T13:56:01.935Z</time>
</trkpt>
<trkpt lat="30.8358800" lon="34.6380200">
<ele>343.779968</ele>
<time>2023-03-22T13:56:01.935Z</time>
</trkpt>
<trkpt lat="30.8361900" lon="34.6376200">
<ele>340.940002</ele>
<time>2023-03-22T13:56:01.935Z</time>
</trkpt>
<trkpt lat="30.8364900" lon="34.6372300">
<ele>340.000000</ele>
<time>2023-03-22T13:56:01.935Z</time>
</trkpt>
<trkpt lat="30.8367900" lon="34.6368400">
<ele>339.969971</ele>
<time>2023-03-22T13:56:01.935Z</time>
</trkpt>
<trkpt lat="30.8371800" lon="34.6364600">
<ele>338.709991</ele>
<time>2023-03-22T13:56:01.935Z</time>
</trkpt>
<trkpt lat="30.8375400" lon="34.6362200">
<ele>341.800018</ele>
<time>2023-03-22T13:56:01.935Z</time>
</trkpt>
<trkpt lat="30.8378200" lon="34.6358300">
<ele>341.410004</ele>
<time>2023-03-22T13:56:01.935Z</time>
</trkpt>
<trkpt lat="30.8380700" lon="34.6357600">
<ele>343.190002</ele>
<time>2023-03-22T13:56:01.935Z</time>
</trkpt>
<trkpt lat="30.8382800" lon="34.6356300">
<ele>344.519989</ele>
<time>2023-03-22T13:56:01.935Z</time>
</trkpt>
<trkpt lat="30.8383400" lon="34.6355100">
<ele>343.809998</ele>
<time>2023-03-22T13:56:01.935Z</time>
</trkpt>
<trkpt lat="30.8383300" lon="34.6350200">
<ele>340.090027</ele>
<time>2023-03-22T13:56:01.935Z</time>
</trkpt>
<trkpt lat="30.8384800" lon="34.6347400">
<ele>335.880005</ele>
<time>2023-03-22T13:56:01.935Z</time>
</trkpt>
<trkpt lat="30.8385200" lon="34.6345000">
<ele>334.870026</ele>
<time>2023-03-22T13:56:01.935Z</time>
</trkpt>
<trkpt lat="30.8383900" lon="34.6342600">
<ele>337.899994</ele>
<time>2023-03-22T13:56:01.935Z</time>
</trkpt>
<trkpt lat="30.8383900" lon="34.6339500">
<ele>346.619995</ele>
<time>2023-03-22T13:56:01.935Z</time>
</trkpt>
<trkpt lat="30.8386700" lon="34.6334000">
<ele>342.929993</ele>
<time>2023-03-22T13:56:01.935Z</time>
</trkpt>
<trkpt lat="30.8389400" lon="34.6328400">
<ele>347.679993</ele>
<time>2023-03-22T13:56:01.935Z</time>
</trkpt>
<trkpt lat="30.8392100" lon="34.6323600">
<ele>350.669983</ele>
<time>2023-03-22T13:56:01.935Z</time>
</trkpt>
<trkpt lat="30.8394700" lon="34.6318900">
<ele>348.619995</ele>
<time>2023-03-22T13:56:01.935Z</time>
</trkpt>
<trkpt lat="30.8397400" lon="34.6314100">
<ele>360.540009</ele>
<time>2023-03-22T13:56:01.935Z</time>
</trkpt>
<trkpt lat="30.8398100" lon="34.6312500">
<ele>362.160004</ele>
<time>2023-03-22T13:56:01.935Z</time>
</trkpt>
<trkpt lat="30.8398200" lon="34.6307800">
<ele>364.790009</ele>
<time>2023-03-22T13:56:01.935Z</time>
</trkpt>
<trkpt lat="30.8401900" lon="34.6305400">
<ele>354.339996</ele>
<time>2023-03-22T13:56:01.935Z</time>
</trkpt>
<trkpt lat="30.8404700" lon="34.6300900">
<ele>344.660004</ele>
<time>2023-03-22T13:56:01.935Z</time>
</trkpt>
<trkpt lat="30.8408000" lon="34.6295100">
<ele>334.429993</ele>
<time>2023-03-22T13:56:01.935Z</time>
</trkpt>
<trkpt lat="30.8408000" lon="34.6295100">
<ele>334.429993</ele>
<time>2023-03-22T13:56:01.935Z</time>
</trkpt>
<trkpt lat="30.8408000" lon="34.6295100">
<ele>334.429993</ele>
<time>2023-03-22T13:56:01.935Z</time>
</trkpt>
<trkpt lat="30.8410600" lon="34.6290500">
<ele>323.369995</ele>
<time>2023-03-22T13:56:01.935Z</time>
</trkpt>
<trkpt lat="30.8413100" lon="34.6285900">
<ele>327.389984</ele>
<time>2023-03-22T13:56:01.935Z</time>
</trkpt>
<trkpt lat="30.8415700" lon="34.6281200">
<ele>332.600006</ele>
<time>2023-03-22T13:56:01.935Z</time>
</trkpt>
<trkpt lat="30.8418300" lon="34.6276600">
<ele>336.589996</ele>
<time>2023-03-22T13:56:01.935Z</time>
</trkpt>
<trkpt lat="30.8420800" lon="34.6272000">
<ele>354.309998</ele>
<time>2023-03-22T13:56:01.935Z</time>
</trkpt>
<trkpt lat="30.8423400" lon="34.6267400">
<ele>362.029999</ele>
<time>2023-03-22T13:56:01.935Z</time>
</trkpt>
<trkpt lat="30.8426000" lon="34.6262800">
<ele>355.420013</ele>
<time>2023-03-22T13:56:01.935Z</time>
</trkpt>
<trkpt lat="30.8428500" lon="34.6258100">
<ele>356.390015</ele>
<time>2023-03-22T13:56:01.935Z</time>
</trkpt>
<trkpt lat="30.8431100" lon="34.6253500">
<ele>354.269989</ele>
<time>2023-03-22T13:56:01.935Z</time>
</trkpt>
<trkpt lat="30.8433600" lon="34.6248900">
<ele>354.329987</ele>
<time>2023-03-22T13:56:01.935Z</time>
</trkpt>
<trkpt lat="30.8436200" lon="34.6244300">
<ele>349.970001</ele>
<time>2023-03-22T13:56:01.935Z</time>
</trkpt>
<trkpt lat="30.8438800" lon="34.6239600">
<ele>347.179993</ele>
<time>2023-03-22T13:56:01.935Z</time>
</trkpt>
<trkpt lat="30.8441300" lon="34.6235000">
<ele>347.259979</ele>
<time>2023-03-22T13:56:01.935Z</time>
</trkpt>
<trkpt lat="30.8443900" lon="34.6230400">
<ele>356.230011</ele>
<time>2023-03-22T13:56:01.935Z</time>
</trkpt>
<trkpt lat="30.8444700" lon="34.6229900">
<ele>355.739990</ele>
<time>2023-03-22T13:56:01.935Z</time>
</trkpt>
<trkpt lat="30.8446000" lon="34.6230700">
<ele>355.959991</ele>
<time>2023-03-22T13:56:01.935Z</time>
</trkpt>
<trkpt lat="30.8446700" lon="34.6231400">
<ele>356.289978</ele>
<time>2023-03-22T13:56:01.935Z</time>
</trkpt>
<trkpt lat="30.8447700" lon="34.6232700">
<ele>358.800018</ele>
<time>2023-03-22T13:56:01.935Z</time>
</trkpt>
<trkpt lat="30.8449300" lon="34.6234500">
<ele>360.640015</ele>
<time>2023-03-22T13:56:01.935Z</time>
</trkpt>
<trkpt lat="30.8450500" lon="34.6235400">
<ele>361.179993</ele>
<time>2023-03-22T13:56:01.935Z</time>
</trkpt>
<trkpt lat="30.8453000" lon="34.6237900">
<ele>357.660004</ele>
<time>2023-03-22T13:56:01.935Z</time>
</trkpt>
<trkpt lat="30.8454000" lon="34.6238300">
<ele>354.630005</ele>
<time>2023-03-22T13:56:01.935Z</time>
</trkpt>
<trkpt lat="30.8455000" lon="34.6239400">
<ele>350.570007</ele>
<time>2023-03-22T13:56:01.935Z</time>
</trkpt>
<trkpt lat="30.8457900" lon="34.6241700">
<ele>342.929993</ele>
<time>2023-03-22T13:56:01.935Z</time>
</trkpt>
<trkpt lat="30.8460500" lon="34.6242600">
<ele>337.310028</ele>
<time>2023-03-22T13:56:01.935Z</time>
</trkpt>
<trkpt lat="30.8462100" lon="34.6242500">
<ele>337.520020</ele>
<time>2023-03-22T13:56:01.935Z</time>
</trkpt>
<trkpt lat="30.8464700" lon="34.6242000">
<ele>340.929993</ele>
<time>2023-03-22T13:56:01.935Z</time>
</trkpt>
<trkpt lat="30.8468100" lon="34.6242000">
<ele>342.669983</ele>
<time>2023-03-22T13:56:01.935Z</time>
</trkpt>
<trkpt lat="30.8473200" lon="34.6241200">
<ele>338.920013</ele>
<time>2023-03-22T13:56:01.935Z</time>
</trkpt>
<trkpt lat="30.8474200" lon="34.6241100">
<ele>338.320007</ele>
<time>2023-03-22T13:56:01.935Z</time>
</trkpt>
<trkpt lat="30.8474200" lon="34.6241100">
<ele>338.320007</ele>
<time>2023-03-22T13:56:01.935Z</time>
</trkpt>
<trkpt lat="30.8474200" lon="34.6241100">
<ele>338.320007</ele>
<time>2023-03-22T13:56:01.935Z</time>
</trkpt>
<trkpt lat="30.8477900" lon="34.6240900">
<ele>338.989990</ele>
<time>2023-03-22T13:56:01.935Z</time>
</trkpt>
<trkpt lat="30.8478800" lon="34.6240700">
<ele>337.500000</ele>
<time>2023-03-22T13:56:01.935Z</time>
</trkpt>
<trkpt lat="30.8482400" lon="34.6240100">
<ele>332.510010</ele>
<time>2023-03-22T13:56:01.935Z</time>
</trkpt>
<trkpt lat="30.8483500" lon="34.6240200">
<ele>330.869995</ele>
<time>2023-03-22T13:56:01.935Z</time>
</trkpt>
<trkpt lat="30.8487500" lon="34.6241000">
<ele>325.020020</ele>
<time>2023-03-22T13:56:01.935Z</time>
</trkpt>
<trkpt lat="30.8489200" lon="34.6241100">
<ele>323.910004</ele>
<time>2023-03-22T13:56:01.935Z</time>
</trkpt>
<trkpt lat="30.8490100" lon="34.6241000">
<ele>324.100006</ele>
<time>2023-03-22T13:56:01.935Z</time>
</trkpt>
<trkpt lat="30.8493700" lon="34.6240100">
<ele>322.639984</ele>
<time>2023-03-22T13:56:01.935Z</time>
</trkpt>
<trkpt lat="30.8494400" lon="34.6240200">
<ele>322.490021</ele>
<time>2023-03-22T13:56:01.935Z</time>
</trkpt>
<trkpt lat="30.8498100" lon="34.6241100">
<ele>323.339996</ele>
<time>2023-03-22T13:56:01.935Z</time>
</trkpt>
<trkpt lat="30.8500800" lon="34.6242400">
<ele>327.819977</ele>
<time>2023-03-22T13:56:01.935Z</time>
</trkpt>
<trkpt lat="30.8502200" lon="34.6242300">
<ele>328.539978</ele>
<time>2023-03-22T13:56:01.935Z</time>
</trkpt>
<trkpt lat="30.8506900" lon="34.6240900">
<ele>328.280029</ele>
<time>2023-03-22T13:56:01.935Z</time>
</trkpt>
<trkpt lat="30.8507900" lon="34.6241000">
<ele>331.140015</ele>
<time>2023-03-22T13:56:01.935Z</time>
</trkpt>
<trkpt lat="30.8509900" lon="34.6240900">
<ele>326.449982</ele>
<time>2023-03-22T13:56:01.935Z</time>
</trkpt>
<trkpt lat="30.8510800" lon="34.6240400">
<ele>323.720001</ele>
<time>2023-03-22T13:56:01.935Z</time>
</trkpt>
<trkpt lat="30.8511400" lon="34.6240300">
<ele>322.240021</ele>
<time>2023-03-22T13:56:01.935Z</time>
</trkpt>
<trkpt lat="30.8512100" lon="34.6240200">
<ele>320.679993</ele>
<time>2023-03-22T13:56:01.935Z</time>
</trkpt>
<trkpt lat="30.8512800" lon="34.6240200">
<ele>318.959991</ele>
<time>2023-03-22T13:56:01.935Z</time>
</trkpt>
<trkpt lat="30.8513600" lon="34.6240000">
<ele>317.669983</ele>
<time>2023-03-22T13:56:01.935Z</time>
</trkpt>
<trkpt lat="30.8514300" lon="34.6239900">
<ele>316.959991</ele>
<time>2023-03-22T13:56:01.935Z</time>
</trkpt>
<trkpt lat="30.8515000" lon="34.6239900">
<ele>316.269989</ele>
<time>2023-03-22T13:56:01.935Z</time>
</trkpt>
<trkpt lat="30.8515700" lon="34.6239900">
<ele>315.579987</ele>
<time>2023-03-22T13:56:01.935Z</time>
</trkpt>
<trkpt lat="30.8516400" lon="34.6240000">
<ele>314.830017</ele>
<time>2023-03-22T13:56:01.935Z</time>
</trkpt>
<trkpt lat="30.8516900" lon="34.6240000">
<ele>314.920013</ele>
<time>2023-03-22T13:56:01.935Z</time>
</trkpt>
<trkpt lat="30.8517400" lon="34.6239800">
<ele>315.829987</ele>
<time>2023-03-22T13:56:01.935Z</time>
</trkpt>
<trkpt lat="30.8518100" lon="34.6239600">
<ele>317.299988</ele>
<time>2023-03-22T13:56:01.935Z</time>
</trkpt>
<trkpt lat="30.8518600" lon="34.6239500">
<ele>318.430023</ele>
<time>2023-03-22T13:56:01.935Z</time>
</trkpt>
<trkpt lat="30.8519400" lon="34.6239300">
<ele>320.570007</ele>
<time>2023-03-22T13:56:01.935Z</time>
</trkpt>
<trkpt lat="30.8519900" lon="34.6239200">
<ele>320.100006</ele>
<time>2023-03-22T13:56:01.935Z</time>
</trkpt>
<trkpt lat="30.8520400" lon="34.6239200">
<ele>319.119995</ele>
<time>2023-03-22T13:56:01.935Z</time>
</trkpt>
<trkpt lat="30.8520900" lon="34.6239200">
<ele>318.139984</ele>
<time>2023-03-22T13:56:01.935Z</time>
</trkpt>
<trkpt lat="30.8521800" lon="34.6239100">
<ele>316.819977</ele>
<time>2023-03-22T13:56:01.935Z</time>
</trkpt>
<trkpt lat="30.8522300" lon="34.6239200">
<ele>315.550018</ele>
<time>2023-03-22T13:56:01.935Z</time>
</trkpt>
<trkpt lat="30.8522800" lon="34.6239300">
<ele>315.109985</ele>
<time>2023-03-22T13:56:01.935Z</time>
</trkpt>
<trkpt lat="30.8523400" lon="34.6239500">
<ele>314.230011</ele>
<time>2023-03-22T13:56:01.935Z</time>
</trkpt>
<trkpt lat="30.8524500" lon="34.6239800">
<ele>312.999969</ele>
<time>2023-03-22T13:56:01.935Z</time>
</trkpt>
<trkpt lat="30.8527000" lon="34.6240700">
<ele>312.020020</ele>
<time>2023-03-22T13:56:01.935Z</time>
</trkpt>
<trkpt lat="30.8529700" lon="34.6242500">
<ele>314.179993</ele>
<time>2023-03-22T13:56:01.935Z</time>
</trkpt>
<trkpt lat="30.8530300" lon="34.6242700">
<ele>315.589996</ele>
<time>2023-03-22T13:56:01.935Z</time>
</trkpt>
<trkpt lat="30.8533600" lon="34.6245300">
<ele>327.729980</ele>
<time>2023-03-22T13:56:01.935Z</time>
</trkpt>
<trkpt lat="30.8534700" lon="34.6246700">
<ele>333.010010</ele>
<time>2023-03-22T13:56:01.935Z</time>
</trkpt>
<trkpt lat="30.8534900" lon="34.6248000">
<ele>334.830017</ele>
<time>2023-03-22T13:56:01.935Z</time>
</trkpt>
<trkpt lat="30.8536000" lon="34.6247700">
<ele>340.420013</ele>
<time>2023-03-22T13:56:01.935Z</time>
</trkpt>
<trkpt lat="30.8537400" lon="34.6250400">
<ele>346.859985</ele>
<time>2023-03-22T13:56:01.935Z</time>
</trkpt>
<trkpt lat="30.8538600" lon="34.6252100">
<ele>349.670013</ele>
<time>2023-03-22T13:56:01.935Z</time>
</trkpt>
<trkpt lat="30.8539300" lon="34.6253600">
<ele>349.570007</ele>
<time>2023-03-22T13:56:01.935Z</time>
</trkpt>
<trkpt lat="30.8541000" lon="34.6255600">
<ele>349.760010</ele>
<time>2023-03-22T13:56:01.935Z</time>
</trkpt>
<trkpt lat="30.8543400" lon="34.6256900">
<ele>356.160004</ele>
<time>2023-03-22T13:56:01.935Z</time>
</trkpt>
<trkpt lat="30.8546200" lon="34.6259300">
<ele>354.730011</ele>
<time>2023-03-22T13:56:01.935Z</time>
</trkpt>
<trkpt lat="30.8549900" lon="34.6260700">
<ele>358.500000</ele>
<time>2023-03-22T13:56:01.935Z</time>
</trkpt>
<trkpt lat="30.8552200" lon="34.6262200">
<ele>356.449982</ele>
<time>2023-03-22T13:56:01.935Z</time>
</trkpt>
<trkpt lat="30.8552700" lon="34.6262800">
<ele>355.079987</ele>
<time>2023-03-22T13:56:01.935Z</time>
</trkpt>
<trkpt lat="30.8553600" lon="34.6263400">
<ele>353.790009</ele>
<time>2023-03-22T13:56:01.935Z</time>
</trkpt>
<trkpt lat="30.8555300" lon="34.6264200">
<ele>353.669983</ele>
<time>2023-03-22T13:56:01.935Z</time>
</trkpt>
<trkpt lat="30.8556300" lon="34.6265500">
<ele>353.529999</ele>
<time>2023-03-22T13:56:01.935Z</time>
</trkpt>
<trkpt lat="30.8557600" lon="34.6266300">
<ele>353.230011</ele>
<time>2023-03-22T13:56:01.935Z</time>
</trkpt>
<trkpt lat="30.8560300" lon="34.6269100">
<ele>348.789978</ele>
<time>2023-03-22T13:56:01.935Z</time>
</trkpt>
<trkpt lat="30.8561300" lon="34.6269900">
<ele>347.739990</ele>
<time>2023-03-22T13:56:01.935Z</time>
</trkpt>
<trkpt lat="30.8564900" lon="34.6271700">
<ele>348.260010</ele>
<time>2023-03-22T13:56:01.935Z</time>
</trkpt>
<trkpt lat="30.8565400" lon="34.6271700">
<ele>348.700012</ele>
<time>2023-03-22T13:56:01.935Z</time>
</trkpt>
<trkpt lat="30.8567100" lon="34.6272500">
<ele>350.370026</ele>
<time>2023-03-22T13:56:01.935Z</time>
</trkpt>
<trkpt lat="30.8567600" lon="34.6272900">
<ele>350.759979</ele>
<time>2023-03-22T13:56:01.935Z</time>
</trkpt>
<trkpt lat="30.8568900" lon="34.6273500">
<ele>351.950012</ele>
<time>2023-03-22T13:56:01.935Z</time>
</trkpt>
<trkpt lat="30.8569600" lon="34.6273700">
<ele>352.220001</ele>
<time>2023-03-22T13:56:01.935Z</time>
</trkpt>
<trkpt lat="30.8570900" lon="34.6274500">
<ele>349.989990</ele>
<time>2023-03-22T13:56:01.935Z</time>
</trkpt>
<trkpt lat="30.8572600" lon="34.6276200">
<ele>348.380005</ele>
<time>2023-03-22T13:56:01.935Z</time>
</trkpt>
<trkpt lat="30.8573500" lon="34.6277200">
<ele>348.109985</ele>
<time>2023-03-22T13:56:01.935Z</time>
</trkpt>
<trkpt lat="30.8574500" lon="34.6278700">
<ele>348.809998</ele>
<time>2023-03-22T13:56:01.935Z</time>
</trkpt>
<trkpt lat="30.8574500" lon="34.6278700">
<ele>348.809998</ele>
<time>2023-03-22T13:56:01.935Z</time>
</trkpt>
<trkpt lat="30.8574500" lon="34.6278700">
<ele>348.809998</ele>
<time>2023-03-22T13:56:01.935Z</time>
</trkpt>
<trkpt lat="30.8574700" lon="34.6279000">
<ele>349.040009</ele>
<time>2023-03-22T13:56:01.935Z</time>
</trkpt>
<trkpt lat="30.8575100" lon="34.6279900">
<ele>350.020020</ele>
<time>2023-03-22T13:56:01.935Z</time>
</trkpt>
<trkpt lat="30.8577000" lon="34.6282400">
<ele>350.280029</ele>
<time>2023-03-22T13:56:01.935Z</time>
</trkpt>
<trkpt lat="30.8579700" lon="34.6284700">
<ele>358.500000</ele>
<time>2023-03-22T13:56:01.935Z</time>
</trkpt>
<trkpt lat="30.8581000" lon="34.6286400">
<ele>363.349976</ele>
<time>2023-03-22T13:56:01.935Z</time>
</trkpt>
<trkpt lat="30.8583900" lon="34.6289500">
<ele>359.339996</ele>
<time>2023-03-22T13:56:01.935Z</time>
</trkpt>
<trkpt lat="30.8584300" lon="34.6289900">
<ele>357.630005</ele>
<time>2023-03-22T13:56:01.951Z</time>
</trkpt>
<trkpt lat="30.8584900" lon="34.6290000">
<ele>356.100006</ele>
<time>2023-03-22T13:56:01.951Z</time>
</trkpt>
<trkpt lat="30.8587800" lon="34.6290000">
<ele>349.389984</ele>
<time>2023-03-22T13:56:01.951Z</time>
</trkpt>
<trkpt lat="30.8590000" lon="34.6290200">
<ele>344.609985</ele>
<time>2023-03-22T13:56:01.951Z</time>
</trkpt>
<trkpt lat="30.8591400" lon="34.6290000">
<ele>342.459991</ele>
<time>2023-03-22T13:56:01.951Z</time>
</trkpt>
<trkpt lat="30.8594600" lon="34.6289000">
<ele>342.660004</ele>
<time>2023-03-22T13:56:01.951Z</time>
</trkpt>
<trkpt lat="30.8596200" lon="34.6288700">
<ele>340.630005</ele>
<time>2023-03-22T13:56:01.951Z</time>
</trkpt>
<trkpt lat="30.8597500" lon="34.6288600">
<ele>339.199982</ele>
<time>2023-03-22T13:56:01.951Z</time>
</trkpt>
<trkpt lat="30.8599200" lon="34.6288800">
<ele>338.359985</ele>
<time>2023-03-22T13:56:01.951Z</time>
</trkpt>
<trkpt lat="30.8600600" lon="34.6288800">
<ele>338.059998</ele>
<time>2023-03-22T13:56:01.951Z</time>
</trkpt>
<trkpt lat="30.8603900" lon="34.6287700">
<ele>340.099976</ele>
<time>2023-03-22T13:56:01.951Z</time>
</trkpt>
<trkpt lat="30.8606200" lon="34.6286500">
<ele>341.479980</ele>
<time>2023-03-22T13:56:01.951Z</time>
</trkpt>
<trkpt lat="30.8608400" lon="34.6285700">
<ele>338.680023</ele>
<time>2023-03-22T13:56:01.951Z</time>
</trkpt>
<trkpt lat="30.8609000" lon="34.6285300">
<ele>337.029999</ele>
<time>2023-03-22T13:56:01.951Z</time>
</trkpt>
<trkpt lat="30.8611800" lon="34.6285100">
<ele>332.380005</ele>
<time>2023-03-22T13:56:01.951Z</time>
</trkpt>
<trkpt lat="30.8614000" lon="34.6285200">
<ele>334.619995</ele>
<time>2023-03-22T13:56:01.951Z</time>
</trkpt>
<trkpt lat="30.8614500" lon="34.6285400">
<ele>334.419983</ele>
<time>2023-03-22T13:56:01.951Z</time>
</trkpt>
<trkpt lat="30.8615900" lon="34.6285500">
<ele>333.649994</ele>
<time>2023-03-22T13:56:01.951Z</time>
</trkpt>
<trkpt lat="30.8616900" lon="34.6285100">
<ele>332.720001</ele>
<time>2023-03-22T13:56:01.951Z</time>
</trkpt>
<trkpt lat="30.8620600" lon="34.6284500">
<ele>326.269989</ele>
<time>2023-03-22T13:56:01.951Z</time>
</trkpt>
<trkpt lat="30.8622000" lon="34.6284000">
<ele>326.260010</ele>
<time>2023-03-22T13:56:01.951Z</time>
</trkpt>
<trkpt lat="30.8623700" lon="34.6283900">
<ele>327.920013</ele>
<time>2023-03-22T13:56:01.951Z</time>
</trkpt>
<trkpt lat="30.8625300" lon="34.6283100">
<ele>327.529999</ele>
<time>2023-03-22T13:56:01.951Z</time>
</trkpt>
<trkpt lat="30.8626700" lon="34.6282800">
<ele>327.320007</ele>
<time>2023-03-22T13:56:01.951Z</time>
</trkpt>
<trkpt lat="30.8628900" lon="34.6282600">
<ele>328.620026</ele>
<time>2023-03-22T13:56:01.951Z</time>
</trkpt>
<trkpt lat="30.8632900" lon="34.6282900">
<ele>326.480011</ele>
<time>2023-03-22T13:56:01.951Z</time>
</trkpt>
<trkpt lat="30.8634600" lon="34.6282600">
<ele>330.639984</ele>
<time>2023-03-22T13:56:01.951Z</time>
</trkpt>
<trkpt lat="30.8638600" lon="34.6281300">
<ele>336.020020</ele>
<time>2023-03-22T13:56:01.951Z</time>
</trkpt>
<trkpt lat="30.8640000" lon="34.6281100">
<ele>335.680023</ele>
<time>2023-03-22T13:56:01.951Z</time>
</trkpt>
<trkpt lat="30.8644900" lon="34.6280900">
<ele>331.839996</ele>
<time>2023-03-22T13:56:01.951Z</time>
</trkpt>
<trkpt lat="30.8646600" lon="34.6281100">
<ele>331.220001</ele>
<time>2023-03-22T13:56:01.951Z</time>
</trkpt>
<trkpt lat="30.8650100" lon="34.6280800">
<ele>335.040009</ele>
<time>2023-03-22T13:56:01.951Z</time>
</trkpt>
<trkpt lat="30.8656600" lon="34.6280700">
<ele>337.359985</ele>
<time>2023-03-22T13:56:01.951Z</time>
</trkpt>
<trkpt lat="30.8658800" lon="34.6280500">
<ele>338.349976</ele>
<time>2023-03-22T13:56:01.951Z</time>
</trkpt>
<trkpt lat="30.8662900" lon="34.6280000">
<ele>339.159973</ele>
<time>2023-03-22T13:56:01.951Z</time>
</trkpt>
<trkpt lat="30.8663700" lon="34.6279900">
<ele>338.829987</ele>
<time>2023-03-22T13:56:01.951Z</time>
</trkpt>
<trkpt lat="30.8665100" lon="34.6280200">
<ele>339.480011</ele>
<time>2023-03-22T13:56:01.951Z</time>
</trkpt>
<trkpt lat="30.8667400" lon="34.6279200">
<ele>340.459991</ele>
<time>2023-03-22T13:56:01.951Z</time>
</trkpt>
<trkpt lat="30.8669400" lon="34.6277900">
<ele>338.149994</ele>
<time>2023-03-22T13:56:01.951Z</time>
</trkpt>
<trkpt lat="30.8671100" lon="34.6277600">
<ele>335.980011</ele>
<time>2023-03-22T13:56:01.951Z</time>
</trkpt>
<trkpt lat="30.8672700" lon="34.6277700">
<ele>334.549988</ele>
<time>2023-03-22T13:56:01.951Z</time>
</trkpt>
<trkpt lat="30.8674300" lon="34.6278700">
<ele>334.079987</ele>
<time>2023-03-22T13:56:01.951Z</time>
</trkpt>
<trkpt lat="30.8674900" lon="34.6278800">
<ele>333.790009</ele>
<time>2023-03-22T13:56:01.951Z</time>
</trkpt>
<trkpt lat="30.8676200" lon="34.6278700">
<ele>334.100006</ele>
<time>2023-03-22T13:56:01.951Z</time>
</trkpt>
<trkpt lat="30.8677200" lon="34.6278200">
<ele>334.530029</ele>
<time>2023-03-22T13:56:01.951Z</time>
</trkpt>
<trkpt lat="30.8677200" lon="34.6278200">
<ele>334.530029</ele>
<time>2023-03-22T13:56:01.951Z</time>
</trkpt>
<trkpt lat="30.8677200" lon="34.6278200">
<ele>334.530029</ele>
<time>2023-03-22T13:56:01.951Z</time>
</trkpt>
<trkpt lat="30.8677900" lon="34.6277800">
<ele>334.820007</ele>
<time>2023-03-22T13:56:01.951Z</time>
</trkpt>
<trkpt lat="30.8679300" lon="34.6277600">
<ele>332.739990</ele>
<time>2023-03-22T13:56:01.951Z</time>
</trkpt>
<trkpt lat="30.8684100" lon="34.6278100">
<ele>335.900024</ele>
<time>2023-03-22T13:56:01.951Z</time>
</trkpt>
<trkpt lat="30.8686800" lon="34.6277400">
<ele>338.279999</ele>
<time>2023-03-22T13:56:01.951Z</time>
</trkpt>
<trkpt lat="30.8687100" lon="34.6277300">
<ele>338.839996</ele>
<time>2023-03-22T13:56:01.951Z</time>
</trkpt>
<trkpt lat="30.8690500" lon="34.6276800">
<ele>342.870026</ele>
<time>2023-03-22T13:56:01.951Z</time>
</trkpt>
<trkpt lat="30.8692100" lon="34.6276300">
<ele>341.590027</ele>
<time>2023-03-22T13:56:01.951Z</time>
</trkpt>
<trkpt lat="30.8693700" lon="34.6275500">
<ele>337.669983</ele>
<time>2023-03-22T13:56:01.951Z</time>
</trkpt>
<trkpt lat="30.8696400" lon="34.6274900">
<ele>331.679993</ele>
<time>2023-03-22T13:56:01.951Z</time>
</trkpt>
<trkpt lat="30.8700900" lon="34.6274700">
<ele>328.470001</ele>
<time>2023-03-22T13:56:01.951Z</time>
</trkpt>
<trkpt lat="30.8703700" lon="34.6275100">
<ele>328.000000</ele>
<time>2023-03-22T13:56:01.951Z</time>
</trkpt>
<trkpt lat="30.8705300" lon="34.6275200">
<ele>326.140015</ele>
<time>2023-03-22T13:56:01.951Z</time>
</trkpt>
<trkpt lat="30.8706700" lon="34.6274800">
<ele>322.920013</ele>
<time>2023-03-22T13:56:01.951Z</time>
</trkpt>
<trkpt lat="30.8709000" lon="34.6275200">
<ele>321.500000</ele>
<time>2023-03-22T13:56:01.951Z</time>
</trkpt>
<trkpt lat="30.8709500" lon="34.6275100">
<ele>321.619995</ele>
<time>2023-03-22T13:56:01.951Z</time>
</trkpt>
<trkpt lat="30.8713500" lon="34.6274300">
<ele>325.830017</ele>
<time>2023-03-22T13:56:01.951Z</time>
</trkpt>
<trkpt lat="30.8716000" lon="34.6273500">
<ele>327.720001</ele>
<time>2023-03-22T13:56:01.951Z</time>
</trkpt>
<trkpt lat="30.8716800" lon="34.6273100">
<ele>328.220001</ele>
<time>2023-03-22T13:56:01.951Z</time>
</trkpt>
<trkpt lat="30.8717200" lon="34.6272800">
<ele>327.819977</ele>
<time>2023-03-22T13:56:01.951Z</time>
</trkpt>
<trkpt lat="30.8718200" lon="34.6272600">
<ele>327.029999</ele>
<time>2023-03-22T13:56:01.951Z</time>
</trkpt>
<trkpt lat="30.8718900" lon="34.6272700">
<ele>326.559998</ele>
<time>2023-03-22T13:56:01.951Z</time>
</trkpt>
<trkpt lat="30.8719500" lon="34.6272500">
<ele>326.199982</ele>
<time>2023-03-22T13:56:01.951Z</time>
</trkpt>
<trkpt lat="30.8720700" lon="34.6271700">
<ele>328.740021</ele>
<time>2023-03-22T13:56:01.951Z</time>
</trkpt>
<trkpt lat="30.8724700" lon="34.6270500">
<ele>337.250000</ele>
<time>2023-03-22T13:56:01.951Z</time>
</trkpt>
<trkpt lat="30.8729800" lon="34.6267700">
<ele>341.829987</ele>
<time>2023-03-22T13:56:01.951Z</time>
</trkpt>
<trkpt lat="30.8732100" lon="34.6267100">
<ele>344.989990</ele>
<time>2023-03-22T13:56:01.951Z</time>
</trkpt>
<trkpt lat="30.8732400" lon="34.6266700">
<ele>345.329987</ele>
<time>2023-03-22T13:56:01.951Z</time>
</trkpt>
<trkpt lat="30.8732900" lon="34.6266700">
<ele>346.229980</ele>
<time>2023-03-22T13:56:01.951Z</time>
</trkpt>
<trkpt lat="30.8748700" lon="34.6262800">
<ele>325.410004</ele>
<time>2023-03-22T13:56:01.951Z</time>
</trkpt>
<trkpt lat="30.8750300" lon="34.6261600">
<ele>322.549988</ele>
<time>2023-03-22T13:56:01.951Z</time>
</trkpt>
<trkpt lat="30.8752300" lon="34.6260300">
<ele>322.710022</ele>
<time>2023-03-22T13:56:01.951Z</time>
</trkpt>
<trkpt lat="30.8752300" lon="34.6260300">
<ele>322.710022</ele>
<time>2023-03-22T13:56:01.951Z</time>
</trkpt>
<trkpt lat="30.8752300" lon="34.6260300">
<ele>322.710022</ele>
<time>2023-03-22T13:56:01.951Z</time>
</trkpt>
<trkpt lat="30.8754100" lon="34.6259200">
<ele>325.169983</ele>
<time>2023-03-22T13:56:01.951Z</time>
</trkpt>
<trkpt lat="30.8756000" lon="34.6258500">
<ele>327.899994</ele>
<time>2023-03-22T13:56:01.951Z</time>
</trkpt>
<trkpt lat="30.8757500" lon="34.6258400">
<ele>327.320007</ele>
<time>2023-03-22T13:56:01.951Z</time>
</trkpt>
<trkpt lat="30.8759100" lon="34.6258500">
<ele>326.780029</ele>
<time>2023-03-22T13:56:01.951Z</time>
</trkpt>
<trkpt lat="30.8760000" lon="34.6258700">
<ele>326.529999</ele>
<time>2023-03-22T13:56:01.951Z</time>
</trkpt>
<trkpt lat="30.8764100" lon="34.6260300">
<ele>325.629974</ele>
<time>2023-03-22T13:56:01.951Z</time>
</trkpt>
<trkpt lat="30.8770400" lon="34.6261400">
<ele>328.480011</ele>
<time>2023-03-22T13:56:01.951Z</time>
</trkpt>
<trkpt lat="30.8774200" lon="34.6261000">
<ele>326.119995</ele>
<time>2023-03-22T13:56:01.951Z</time>
</trkpt>
<trkpt lat="30.8782500" lon="34.6260700">
<ele>315.839996</ele>
<time>2023-03-22T13:56:01.951Z</time>
</trkpt>
<trkpt lat="30.8783800" lon="34.6260400">
<ele>315.459991</ele>
<time>2023-03-22T13:56:01.951Z</time>
</trkpt>
<trkpt lat="30.8785500" lon="34.6259600">
<ele>318.000000</ele>
<time>2023-03-22T13:56:01.951Z</time>
</trkpt>
<trkpt lat="30.8785800" lon="34.6259500">
<ele>318.489990</ele>
<time>2023-03-22T13:56:01.951Z</time>
</trkpt>
<trkpt lat="30.8787000" lon="34.6259300">
<ele>318.049988</ele>
<time>2023-03-22T13:56:01.951Z</time>
</trkpt>
<trkpt lat="30.8787900" lon="34.6258800">
<ele>316.750000</ele>
<time>2023-03-22T13:56:01.951Z</time>
</trkpt>
<trkpt lat="30.8790000" lon="34.6258400">
<ele>316.639984</ele>
<time>2023-03-22T13:56:01.951Z</time>
</trkpt>
<trkpt lat="30.8791500" lon="34.6259200">
<ele>318.819977</ele>
<time>2023-03-22T13:56:01.951Z</time>
</trkpt>
<trkpt lat="30.8792600" lon="34.6259500">
<ele>319.190002</ele>
<time>2023-03-22T13:56:01.951Z</time>
</trkpt>
<trkpt lat="30.8794100" lon="34.6259800">
<ele>319.410004</ele>
<time>2023-03-22T13:56:01.951Z</time>
</trkpt>
<trkpt lat="30.8794600" lon="34.6259600">
<ele>319.320007</ele>
<time>2023-03-22T13:56:01.951Z</time>
</trkpt>
<trkpt lat="30.8795900" lon="34.6259700">
<ele>317.400024</ele>
<time>2023-03-22T13:56:01.951Z</time>
</trkpt>
<trkpt lat="30.8801200" lon="34.6260700">
<ele>317.119995</ele>
<time>2023-03-22T13:56:01.951Z</time>
</trkpt>
<trkpt lat="30.8802400" lon="34.6261300">
<ele>319.119995</ele>
<time>2023-03-22T13:56:01.951Z</time>
</trkpt>
<trkpt lat="30.8803100" lon="34.6262400">
<ele>318.829987</ele>
<time>2023-03-22T13:56:01.951Z</time>
</trkpt>
<trkpt lat="30.8804200" lon="34.6263300">
<ele>318.949982</ele>
<time>2023-03-22T13:56:01.951Z</time>
</trkpt>
<trkpt lat="30.8806100" lon="34.6264100">
<ele>320.619995</ele>
<time>2023-03-22T13:56:01.951Z</time>
</trkpt>
<trkpt lat="30.8810100" lon="34.6265100">
<ele>326.420013</ele>
<time>2023-03-22T13:56:01.951Z</time>
</trkpt>
<trkpt lat="30.8813500" lon="34.6266600">
<ele>328.950012</ele>
<time>2023-03-22T13:56:01.951Z</time>
</trkpt>
<trkpt lat="30.8815700" lon="34.6268400">
<ele>323.870026</ele>
<time>2023-03-22T13:56:01.951Z</time>
</trkpt>
<trkpt lat="30.8817600" lon="34.6270600">
<ele>318.540009</ele>
<time>2023-03-22T13:56:01.951Z</time>
</trkpt>
<trkpt lat="30.8822600" lon="34.6273200">
<ele>309.619995</ele>
<time>2023-03-22T13:56:01.951Z</time>
</trkpt>
<trkpt lat="30.8823500" lon="34.6274900">
<ele>317.109985</ele>
<time>2023-03-22T13:56:01.951Z</time>
</trkpt>
<trkpt lat="30.8818900" lon="34.6277600">
<ele>316.460022</ele>
<time>2023-03-22T13:56:01.951Z</time>
</trkpt>
<trkpt lat="30.8816500" lon="34.6279400">
<ele>321.850006</ele>
<time>2023-03-22T13:56:01.951Z</time>
</trkpt>
<trkpt lat="30.8815800" lon="34.6280300">
<ele>324.850006</ele>
<time>2023-03-22T13:56:01.951Z</time>
</trkpt>
<trkpt lat="30.8815600" lon="34.6281100">
<ele>326.869995</ele>
<time>2023-03-22T13:56:01.951Z</time>
</trkpt>
<trkpt lat="30.8815900" lon="34.6282600">
<ele>330.339996</ele>
<time>2023-03-22T13:56:01.951Z</time>
</trkpt>
<trkpt lat="30.8815300" lon="34.6284500">
<ele>332.009979</ele>
<time>2023-03-22T13:56:01.951Z</time>
</trkpt>
<trkpt lat="30.8814200" lon="34.6287800">
<ele>331.089996</ele>
<time>2023-03-22T13:56:01.951Z</time>
</trkpt>
<trkpt lat="30.8813400" lon="34.6290800">
<ele>330.389984</ele>
<time>2023-03-22T13:56:01.951Z</time>
</trkpt>
<trkpt lat="30.8813200" lon="34.6293200">
<ele>329.900024</ele>
<time>2023-03-22T13:56:01.951Z</time>
</trkpt>
<trkpt lat="30.8819600" lon="34.6296800">
<ele>336.410004</ele>
<time>2023-03-22T13:56:01.951Z</time>
</trkpt>
<trkpt lat="30.8821800" lon="34.6298300">
<ele>334.589996</ele>
<time>2023-03-22T13:56:01.951Z</time>
</trkpt>
<trkpt lat="30.8821800" lon="34.6298300">
<ele>334.589996</ele>
<time>2023-03-22T13:56:01.951Z</time>
</trkpt>
<trkpt lat="30.8821600" lon="34.6298900">
<ele>334.209991</ele>
<time>2023-03-22T13:56:01.951Z</time>
</trkpt>
<trkpt lat="30.8818400" lon="34.6301400">
<ele>332.260010</ele>
<time>2023-03-22T13:56:01.951Z</time>
</trkpt>
<trkpt lat="30.8817400" lon="34.6301800">
<ele>331.820007</ele>
<time>2023-03-22T13:56:01.951Z</time>
</trkpt>
<trkpt lat="30.8818700" lon="34.6302900">
<ele>333.529999</ele>
<time>2023-03-22T13:56:01.951Z</time>
</trkpt>
<trkpt lat="30.8820900" lon="34.6304800">
<ele>336.079987</ele>
<time>2023-03-22T13:56:01.951Z</time>
</trkpt>
<trkpt lat="30.8824200" lon="34.6302000">
<ele>335.219971</ele>
<time>2023-03-22T13:56:01.951Z</time>
</trkpt>
<trkpt lat="30.8825400" lon="34.6304300">
<ele>337.770020</ele>
<time>2023-03-22T13:56:01.951Z</time>
</trkpt>
<trkpt lat="30.8826900" lon="34.6303400">
<ele>337.730011</ele>
<time>2023-03-22T13:56:01.951Z</time>
</trkpt>
<trkpt lat="30.8828600" lon="34.6303000">
<ele>338.920013</ele>
<time>2023-03-22T13:56:01.951Z</time>
</trkpt>
<trkpt lat="30.8830300" lon="34.6304500">
<ele>340.220001</ele>
<time>2023-03-22T13:56:01.951Z</time>
</trkpt>
<trkpt lat="30.8830800" lon="34.6304800">
<ele>340.070007</ele>
<time>2023-03-22T13:56:01.951Z</time>
</trkpt>
<trkpt lat="30.8832000" lon="34.6304900">
<ele>339.069977</ele>
<time>2023-03-22T13:56:01.951Z</time>
</trkpt>
<trkpt lat="30.8832700" lon="34.6304500">
<ele>338.540009</ele>
<time>2023-03-22T13:56:01.951Z</time>
</trkpt>
<trkpt lat="30.8833400" lon="34.6306700">
<ele>337.959991</ele>
<time>2023-03-22T13:56:01.951Z</time>
</trkpt>
<trkpt lat="30.8833400" lon="34.6306700">
<ele>337.959991</ele>
<time>2023-03-22T13:56:01.951Z</time>
</trkpt>
<trkpt lat="30.8833400" lon="34.6306700">
<ele>337.959991</ele>
<time>2023-03-22T13:56:01.951Z</time>
</trkpt>
<trkpt lat="30.8833400" lon="34.6306700">
<ele>337.959991</ele>
<time>2023-03-22T13:56:01.951Z</time>
</trkpt>
<trkpt lat="30.8831800" lon="34.6307200">
<ele>338.120026</ele>
<time>2023-03-22T13:56:01.951Z</time>
</trkpt>
<trkpt lat="30.8830300" lon="34.6307900">
<ele>337.449982</ele>
<time>2023-03-22T13:56:01.951Z</time>
</trkpt>
<trkpt lat="30.8829400" lon="34.6310000">
<ele>337.500000</ele>
<time>2023-03-22T13:56:01.951Z</time>
</trkpt>
<trkpt lat="30.8828000" lon="34.6309900">
<ele>338.040009</ele>
<time>2023-03-22T13:56:01.951Z</time>
</trkpt>
<trkpt lat="30.8825000" lon="34.6309900">
<ele>341.440002</ele>
<time>2023-03-22T13:56:01.951Z</time>
</trkpt>
<trkpt lat="30.8825000" lon="34.6309900">
<ele>341.440002</ele>
<time>2023-03-22T13:56:01.951Z</time>
</trkpt>
<trkpt lat="30.8825000" lon="34.6309900">
<ele>341.440002</ele>
<time>2023-03-22T13:56:01.951Z</time>
</trkpt>
<trkpt lat="30.8823900" lon="34.6310200">
<ele>341.330017</ele>
<time>2023-03-22T13:56:01.951Z</time>
</trkpt>
<trkpt lat="30.8823100" lon="34.6310200">
<ele>341.339996</ele>
<time>2023-03-22T13:56:01.951Z</time>
</trkpt>
<trkpt lat="30.8822800" lon="34.6310900">
<ele>341.690002</ele>
<time>2023-03-22T13:56:01.951Z</time>
</trkpt>
<trkpt lat="30.8821100" lon="34.6312400">
<ele>339.110016</ele>
<time>2023-03-22T13:56:01.951Z</time>
</trkpt>
<trkpt lat="30.8819800" lon="34.6313400">
<ele>335.940002</ele>
<time>2023-03-22T13:56:01.951Z</time>
</trkpt>
<trkpt lat="30.8818600" lon="34.6314000">
<ele>334.980011</ele>
<time>2023-03-22T13:56:01.951Z</time>
</trkpt>
<trkpt lat="30.8818600" lon="34.6314000">
<ele>334.980011</ele>
<time>2023-03-22T13:56:01.951Z</time>
</trkpt>
<trkpt lat="30.8817800" lon="34.6314000">
<ele>335.009979</ele>
<time>2023-03-22T13:56:01.951Z</time>
</trkpt>
<trkpt lat="30.8817300" lon="34.6313300">
<ele>334.879974</ele>
<time>2023-03-22T13:56:01.951Z</time>
</trkpt>
<trkpt lat="30.8817000" lon="34.6312100">
<ele>334.510010</ele>
<time>2023-03-22T13:56:01.951Z</time>
</trkpt>
<trkpt lat="30.8817000" lon="34.6310700">
<ele>334.480011</ele>
<time>2023-03-22T13:56:01.951Z</time>
</trkpt>
<trkpt lat="30.8817200" lon="34.6310100">
<ele>334.899994</ele>
<time>2023-03-22T13:56:01.951Z</time>
</trkpt>
<trkpt lat="30.8816600" lon="34.6309700">
<ele>334.899994</ele>
<time>2023-03-22T13:56:01.951Z</time>
</trkpt>
<trkpt lat="30.8814300" lon="34.6308800">
<ele>331.400024</ele>
<time>2023-03-22T13:56:01.951Z</time>
</trkpt>
<trkpt lat="30.8810800" lon="34.6310000">
<ele>333.649994</ele>
<time>2023-03-22T13:56:01.951Z</time>
</trkpt>
<trkpt lat="30.8809700" lon="34.6309600">
<ele>334.940002</ele>
<time>2023-03-22T13:56:01.951Z</time>
</trkpt>
<trkpt lat="30.8806900" lon="34.6310500">
<ele>336.240021</ele>
<time>2023-03-22T13:56:01.951Z</time>
</trkpt>
<trkpt lat="30.8806600" lon="34.6307900">
<ele>335.040009</ele>
<time>2023-03-22T13:56:01.951Z</time>
</trkpt>
<trkpt lat="30.8806500" lon="34.6307200">
<ele>334.520020</ele>
<time>2023-03-22T13:56:01.951Z</time>
</trkpt>
<trkpt lat="30.8804100" lon="34.6305800">
<ele>337.189972</ele>
<time>2023-03-22T13:56:01.951Z</time>
</trkpt>
<trkpt lat="30.8802200" lon="34.6304800">
<ele>339.130005</ele>
<time>2023-03-22T13:56:01.951Z</time>
</trkpt>
<trkpt lat="30.8800500" lon="34.6304600">
<ele>338.690002</ele>
<time>2023-03-22T13:56:01.951Z</time>
</trkpt>
<trkpt lat="30.8799200" lon="34.6304200">
<ele>337.459991</ele>
<time>2023-03-22T13:56:01.951Z</time>
</trkpt>
<trkpt lat="30.8798500" lon="34.6303100">
<ele>336.209991</ele>
<time>2023-03-22T13:56:01.951Z</time>
</trkpt>
<trkpt lat="30.8797200" lon="34.6303100">
<ele>336.000000</ele>
<time>2023-03-22T13:56:01.951Z</time>
</trkpt>
<trkpt lat="30.8794600" lon="34.6300500">
<ele>335.089996</ele>
<time>2023-03-22T13:56:01.951Z</time>
</trkpt>
<trkpt lat="30.8792000" lon="34.6299400">
<ele>329.239990</ele>
<time>2023-03-22T13:56:01.951Z</time>
</trkpt>
<trkpt lat="30.8791100" lon="34.6297000">
<ele>326.290009</ele>
<time>2023-03-22T13:56:01.951Z</time>
</trkpt>
<trkpt lat="30.8788100" lon="34.6300600">
<ele>329.560028</ele>
<time>2023-03-22T13:56:01.951Z</time>
</trkpt>
<trkpt lat="30.8787800" lon="34.6303700">
<ele>330.859985</ele>
<time>2023-03-22T13:56:01.951Z</time>
</trkpt>
<trkpt lat="30.8785300" lon="34.6304600">
<ele>330.570007</ele>
<time>2023-03-22T13:56:01.951Z</time>
</trkpt>
<trkpt lat="30.8781100" lon="34.6302800">
<ele>323.559998</ele>
<time>2023-03-22T13:56:01.951Z</time>
</trkpt>
<trkpt lat="30.8778900" lon="34.6304000">
<ele>320.209991</ele>
<time>2023-03-22T13:56:01.951Z</time>
</trkpt>
<trkpt lat="30.8777000" lon="34.6310900">
<ele>321.170013</ele>
<time>2023-03-22T13:56:01.951Z</time>
</trkpt>
<trkpt lat="30.8776900" lon="34.6321100">
<ele>332.369995</ele>
<time>2023-03-22T13:56:01.951Z</time>
</trkpt>
<trkpt lat="30.8775200" lon="34.6330300">
<ele>330.089996</ele>
<time>2023-03-22T13:56:01.951Z</time>
</trkpt>
<trkpt lat="30.8774900" lon="34.6339700">
<ele>321.070007</ele>
<time>2023-03-22T13:56:01.951Z</time>
</trkpt>
<trkpt lat="30.8772400" lon="34.6343200">
<ele>327.580017</ele>
<time>2023-03-22T13:56:01.951Z</time>
</trkpt>
<trkpt lat="30.8771700" lon="34.6347400">
<ele>326.739990</ele>
<time>2023-03-22T13:56:01.951Z</time>
</trkpt>
<trkpt lat="30.8772100" lon="34.6356100">
<ele>328.989990</ele>
<time>2023-03-22T13:56:01.951Z</time>
</trkpt>
<trkpt lat="30.8773100" lon="34.6359900">
<ele>332.200012</ele>
<time>2023-03-22T13:56:01.951Z</time>
</trkpt>
<trkpt lat="30.8773200" lon="34.6368100">
<ele>335.859985</ele>
<time>2023-03-22T13:56:01.951Z</time>
</trkpt>
<trkpt lat="30.8773200" lon="34.6368100">
<ele>335.859985</ele>
<time>2023-03-22T13:56:01.951Z</time>
</trkpt>
<trkpt lat="30.8773200" lon="34.6368100">
<ele>335.859985</ele>
<time>2023-03-22T13:56:01.951Z</time>
</trkpt>
<trkpt lat="30.8773300" lon="34.6372400">
<ele>336.070007</ele>
<time>2023-03-22T13:56:01.951Z</time>
</trkpt>
<trkpt lat="30.8773600" lon="34.6375700">
<ele>337.990021</ele>
<time>2023-03-22T13:56:01.951Z</time>
</trkpt>
<trkpt lat="30.8776400" lon="34.6382900">
<ele>336.720001</ele>
<time>2023-03-22T13:56:01.951Z</time>
</trkpt>
<trkpt lat="30.8776800" lon="34.6388900">
<ele>335.420013</ele>
<time>2023-03-22T13:56:01.951Z</time>
</trkpt>
<trkpt lat="30.8778700" lon="34.6393200">
<ele>338.100006</ele>
<time>2023-03-22T13:56:01.951Z</time>
</trkpt>
<trkpt lat="30.8781700" lon="34.6397300">
<ele>341.410004</ele>
<time>2023-03-22T13:56:01.951Z</time>
</trkpt>
<trkpt lat="30.8784600" lon="34.6401300">
<ele>342.940002</ele>
<time>2023-03-22T13:56:01.951Z</time>
</trkpt>
<trkpt lat="30.8787400" lon="34.6406900">
<ele>345.029999</ele>
<time>2023-03-22T13:56:01.951Z</time>
</trkpt>
<trkpt lat="30.8790600" lon="34.6416000">
<ele>349.149994</ele>
<time>2023-03-22T13:56:01.951Z</time>
</trkpt>
<trkpt lat="30.8796100" lon="34.6420800">
<ele>344.100006</ele>
<time>2023-03-22T13:56:01.951Z</time>
</trkpt>
<trkpt lat="30.8797200" lon="34.6422500">
<ele>344.970001</ele>
<time>2023-03-22T13:56:01.951Z</time>
</trkpt>
<trkpt lat="30.8797800" lon="34.6426900">
<ele>344.120026</ele>
<time>2023-03-22T13:56:01.951Z</time>
</trkpt>
<trkpt lat="30.8796900" lon="34.6429300">
<ele>341.460022</ele>
<time>2023-03-22T13:56:01.951Z</time>
</trkpt>
<trkpt lat="30.8796100" lon="34.6431400">
<ele>337.999969</ele>
<time>2023-03-22T13:56:01.951Z</time>
</trkpt>
<trkpt lat="30.8797100" lon="34.6433800">
<ele>339.549988</ele>
<time>2023-03-22T13:56:01.951Z</time>
</trkpt>
<trkpt lat="30.8800400" lon="34.6437800">
<ele>343.660004</ele>
<time>2023-03-22T13:56:01.951Z</time>
</trkpt>
<trkpt lat="30.8803700" lon="34.6441800">
<ele>349.699982</ele>
<time>2023-03-22T13:56:01.951Z</time>
</trkpt>
<trkpt lat="30.8807000" lon="34.6445800">
<ele>353.809998</ele>
<time>2023-03-22T13:56:01.951Z</time>
</trkpt>
<trkpt lat="30.8809600" lon="34.6451500">
<ele>354.119995</ele>
<time>2023-03-22T13:56:01.951Z</time>
</trkpt>
<trkpt lat="30.8812100" lon="34.6457100">
<ele>354.510010</ele>
<time>2023-03-22T13:56:01.951Z</time>
</trkpt>
<trkpt lat="30.8815500" lon="34.6464200">
<ele>352.609985</ele>
<time>2023-03-22T13:56:01.951Z</time>
</trkpt>
<trkpt lat="30.8815500" lon="34.6464200">
<ele>352.609985</ele>
<time>2023-03-22T13:56:01.951Z</time>
</trkpt>
<trkpt lat="30.8815500" lon="34.6464200">
<ele>352.609985</ele>
<time>2023-03-22T13:56:01.951Z</time>
</trkpt>
<trkpt lat="30.8815500" lon="34.6464200">
<ele>352.609985</ele>
<time>2023-03-22T13:56:01.951Z</time>
</trkpt>
<trkpt lat="30.8818700" lon="34.6471000">
<ele>352.779999</ele>
<time>2023-03-22T13:56:01.951Z</time>
</trkpt>
<trkpt lat="30.8820400" lon="34.6473600">
<ele>354.990021</ele>
<time>2023-03-22T13:56:01.951Z</time>
</trkpt>
<trkpt lat="30.8823100" lon="34.6475600">
<ele>354.779968</ele>
<time>2023-03-22T13:56:01.951Z</time>
</trkpt>
<trkpt lat="30.8824200" lon="34.6477700">
<ele>354.029999</ele>
<time>2023-03-22T13:56:01.951Z</time>
</trkpt>
<trkpt lat="30.8824900" lon="34.6481600">
<ele>353.549988</ele>
<time>2023-03-22T13:56:01.951Z</time>
</trkpt>
<trkpt lat="30.8826000" lon="34.6490100">
<ele>362.369995</ele>
<time>2023-03-22T13:56:01.951Z</time>
</trkpt>
<trkpt lat="30.8825800" lon="34.6493400">
<ele>361.299988</ele>
<time>2023-03-22T13:56:01.951Z</time>
</trkpt>
<trkpt lat="30.8828300" lon="34.6498700">
<ele>355.049988</ele>
<time>2023-03-22T13:56:01.951Z</time>
</trkpt>
<trkpt lat="30.8828700" lon="34.6501700">
<ele>355.479980</ele>
<time>2023-03-22T13:56:01.951Z</time>
</trkpt>
<trkpt lat="30.8829400" lon="34.6503900">
<ele>358.059998</ele>
<time>2023-03-22T13:56:01.951Z</time>
</trkpt>
<trkpt lat="30.8830600" lon="34.6507200">
<ele>361.150024</ele>
<time>2023-03-22T13:56:01.951Z</time>
</trkpt>
<trkpt lat="30.8833800" lon="34.6512100">
<ele>359.449982</ele>
<time>2023-03-22T13:56:01.951Z</time>
</trkpt>
<trkpt lat="30.8838000" lon="34.6516000">
<ele>360.470001</ele>
<time>2023-03-22T13:56:01.951Z</time>
</trkpt>
<trkpt lat="30.8840000" lon="34.6521800">
<ele>364.299988</ele>
<time>2023-03-22T13:56:01.951Z</time>
</trkpt>
<trkpt lat="30.8841900" lon="34.6527500">
<ele>360.859985</ele>
<time>2023-03-22T13:56:01.951Z</time>
</trkpt>
<trkpt lat="30.8843900" lon="34.6533300">
<ele>357.009979</ele>
<time>2023-03-22T13:56:01.951Z</time>
</trkpt>
<trkpt lat="30.8845800" lon="34.6539000">
<ele>364.179993</ele>
<time>2023-03-22T13:56:01.951Z</time>
</trkpt>
<trkpt lat="30.8849000" lon="34.6544400">
<ele>369.059998</ele>
<time>2023-03-22T13:56:01.951Z</time>
</trkpt>
<trkpt lat="30.8852200" lon="34.6549800">
<ele>364.150024</ele>
<time>2023-03-22T13:56:01.951Z</time>
</trkpt>
<trkpt lat="30.8854200" lon="34.6558300">
<ele>373.040009</ele>
<time>2023-03-22T13:56:01.951Z</time>
</trkpt>
<trkpt lat="30.8857500" lon="34.6566200">
<ele>381.199982</ele>
<time>2023-03-22T13:56:01.951Z</time>
</trkpt>
<trkpt lat="30.8863100" lon="34.6569100">
<ele>368.160004</ele>
<time>2023-03-22T13:56:01.951Z</time>
</trkpt>
<trkpt lat="30.8864200" lon="34.6571300">
<ele>363.070007</ele>
<time>2023-03-22T13:56:01.951Z</time>
</trkpt>
<trkpt lat="30.8863600" lon="34.6575000">
<ele>369.100006</ele>
<time>2023-03-22T13:56:01.951Z</time>
</trkpt>
<trkpt lat="30.8869000" lon="34.6578200">
<ele>379.560028</ele>
<time>2023-03-22T13:56:01.951Z</time>
</trkpt>
<trkpt lat="30.8870200" lon="34.6584200">
<ele>379.319977</ele>
<time>2023-03-22T13:56:01.951Z</time>
</trkpt>
<trkpt lat="30.8874500" lon="34.6589400">
<ele>376.720001</ele>
<time>2023-03-22T13:56:01.951Z</time>
</trkpt>
<trkpt lat="30.8878700" lon="34.6594500">
<ele>371.080017</ele>
<time>2023-03-22T13:56:01.951Z</time>
</trkpt>
<trkpt lat="30.8880000" lon="34.6597900">
<ele>375.289978</ele>
<time>2023-03-22T13:56:01.951Z</time>
</trkpt>
<trkpt lat="30.8879500" lon="34.6602500">
<ele>378.400024</ele>
<time>2023-03-22T13:56:01.951Z</time>
</trkpt>
<trkpt lat="30.8887300" lon="34.6601300">
<ele>393.050018</ele>
<time>2023-03-22T13:56:01.951Z</time>
</trkpt>
<trkpt lat="30.8888900" lon="34.6603700">
<ele>394.029999</ele>
<time>2023-03-22T13:56:01.951Z</time>
</trkpt>
<trkpt lat="30.8889000" lon="34.6606200">
<ele>392.649994</ele>
<time>2023-03-22T13:56:01.951Z</time>
</trkpt>
<trkpt lat="30.8891900" lon="34.6612200">
<ele>394.429993</ele>
<time>2023-03-22T13:56:01.951Z</time>
</trkpt>
<trkpt lat="30.8894700" lon="34.6618200">
<ele>389.450012</ele>
<time>2023-03-22T13:56:01.951Z</time>
</trkpt>
<trkpt lat="30.8897200" lon="34.6622800">
<ele>388.420013</ele>
<time>2023-03-22T13:56:01.951Z</time>
</trkpt>
<trkpt lat="30.8899700" lon="34.6627300">
<ele>390.500000</ele>
<time>2023-03-22T13:56:01.951Z</time>
</trkpt>
<trkpt lat="30.8902200" lon="34.6631900">
<ele>396.170013</ele>
<time>2023-03-22T13:56:01.951Z</time>
</trkpt>
<trkpt lat="30.8904600" lon="34.6636400">
<ele>400.830017</ele>
<time>2023-03-22T13:56:01.951Z</time>
</trkpt>
<trkpt lat="30.8907100" lon="34.6640900">
<ele>400.580017</ele>
<time>2023-03-22T13:56:01.951Z</time>
</trkpt>
<trkpt lat="30.8909600" lon="34.6645500">
<ele>400.809998</ele>
<time>2023-03-22T13:56:01.951Z</time>
</trkpt>
<trkpt lat="30.8913700" lon="34.6651100">
<ele>399.009979</ele>
<time>2023-03-22T13:56:01.951Z</time>
</trkpt>
<trkpt lat="30.8917700" lon="34.6656700">
<ele>396.890015</ele>
<time>2023-03-22T13:56:01.951Z</time>
</trkpt>
<trkpt lat="30.8918400" lon="34.6658400">
<ele>399.970001</ele>
<time>2023-03-22T13:56:01.951Z</time>
</trkpt>
<trkpt lat="30.8919200" lon="34.6664300">
<ele>403.799988</ele>
<time>2023-03-22T13:56:01.951Z</time>
</trkpt>
<trkpt lat="30.8920000" lon="34.6670200">
<ele>398.820007</ele>
<time>2023-03-22T13:56:01.951Z</time>
</trkpt>
<trkpt lat="30.8922200" lon="34.6675200">
<ele>401.019989</ele>
<time>2023-03-22T13:56:01.951Z</time>
</trkpt>
<trkpt lat="30.8924200" lon="34.6679800">
<ele>401.399994</ele>
<time>2023-03-22T13:56:01.951Z</time>
</trkpt>
<trkpt lat="30.8928300" lon="34.6687200">
<ele>395.289978</ele>
<time>2023-03-22T13:56:01.951Z</time>
</trkpt>
<trkpt lat="30.8928500" lon="34.6688300">
<ele>394.630005</ele>
<time>2023-03-22T13:56:01.951Z</time>
</trkpt>
<trkpt lat="30.8929700" lon="34.6694500">
<ele>399.110016</ele>
<time>2023-03-22T13:56:01.951Z</time>
</trkpt>
<trkpt lat="30.8931900" lon="34.6701300">
<ele>404.919983</ele>
<time>2023-03-22T13:56:01.951Z</time>
</trkpt>
<trkpt lat="30.8934100" lon="34.6704700">
<ele>396.819977</ele>
<time>2023-03-22T13:56:01.951Z</time>
</trkpt>
<trkpt lat="30.8937200" lon="34.6711400">
<ele>393.359985</ele>
<time>2023-03-22T13:56:01.951Z</time>
</trkpt>
<trkpt lat="30.8940900" lon="34.6716700">
<ele>410.170013</ele>
<time>2023-03-22T13:56:01.951Z</time>
</trkpt>
<trkpt lat="30.8941800" lon="34.6717500">
<ele>410.609985</ele>
<time>2023-03-22T13:56:01.951Z</time>
</trkpt>
<trkpt lat="30.8941800" lon="34.6717500">
<ele>410.609985</ele>
<time>2023-03-22T13:56:01.951Z</time>
</trkpt>
<trkpt lat="30.8941800" lon="34.6717500">
<ele>410.609985</ele>
<time>2023-03-22T13:56:01.951Z</time>
</trkpt>
<trkpt lat="30.8945100" lon="34.6720700">
<ele>412.029999</ele>
<time>2023-03-22T13:56:01.951Z</time>
</trkpt>
<trkpt lat="30.8950700" lon="34.6728800">
<ele>404.170013</ele>
<time>2023-03-22T13:56:01.951Z</time>
</trkpt>
<trkpt lat="30.8952800" lon="34.6731200">
<ele>403.209991</ele>
<time>2023-03-22T13:56:01.951Z</time>
</trkpt>
<trkpt lat="30.8955000" lon="34.6733700">
<ele>403.199982</ele>
<time>2023-03-22T13:56:01.951Z</time>
</trkpt>
<trkpt lat="30.8958000" lon="34.6739100">
<ele>401.220001</ele>
<time>2023-03-22T13:56:01.951Z</time>
</trkpt>
<trkpt lat="30.8960900" lon="34.6744400">
<ele>401.860016</ele>
<time>2023-03-22T13:56:01.951Z</time>
</trkpt>
<trkpt lat="30.8963900" lon="34.6749800">
<ele>402.240021</ele>
<time>2023-03-22T13:56:01.951Z</time>
</trkpt>
<trkpt lat="30.8967200" lon="34.6753900">
<ele>408.139984</ele>
<time>2023-03-22T13:56:01.951Z</time>
</trkpt>
<trkpt lat="30.8970500" lon="34.6758000">
<ele>410.229980</ele>
<time>2023-03-22T13:56:01.951Z</time>
</trkpt>
<trkpt lat="30.8973800" lon="34.6762000">
<ele>407.569977</ele>
<time>2023-03-22T13:56:01.951Z</time>
</trkpt>
<trkpt lat="30.8977000" lon="34.6766100">
<ele>409.299988</ele>
<time>2023-03-22T13:56:01.951Z</time>
</trkpt>
<trkpt lat="30.8980300" lon="34.6770200">
<ele>413.359985</ele>
<time>2023-03-22T13:56:01.951Z</time>
</trkpt>
<trkpt lat="30.8983600" lon="34.6774300">
<ele>409.789978</ele>
<time>2023-03-22T13:56:01.951Z</time>
</trkpt>
<trkpt lat="30.8986600" lon="34.6778700">
<ele>401.899994</ele>
<time>2023-03-22T13:56:01.951Z</time>
</trkpt>
<trkpt lat="30.8989600" lon="34.6783100">
<ele>404.489990</ele>
<time>2023-03-22T13:56:01.951Z</time>
</trkpt>
<trkpt lat="30.8993100" lon="34.6786700">
<ele>396.000000</ele>
<time>2023-03-22T13:56:01.951Z</time>
</trkpt>
<trkpt lat="30.8996600" lon="34.6790200">
<ele>394.529999</ele>
<time>2023-03-22T13:56:01.951Z</time>
</trkpt>
<trkpt lat="30.9000100" lon="34.6793800">
<ele>410.760010</ele>
<time>2023-03-22T13:56:01.951Z</time>
</trkpt>
<trkpt lat="30.9003600" lon="34.6797400">
<ele>412.529968</ele>
<time>2023-03-22T13:56:01.951Z</time>
</trkpt>
<trkpt lat="30.9007100" lon="34.6801000">
<ele>409.879974</ele>
<time>2023-03-22T13:56:01.951Z</time>
</trkpt>
<trkpt lat="30.9010600" lon="34.6804500">
<ele>407.619995</ele>
<time>2023-03-22T13:56:01.951Z</time>
</trkpt>
<trkpt lat="30.9014100" lon="34.6808100">
<ele>407.170013</ele>
<time>2023-03-22T13:56:01.951Z</time>
</trkpt>
<trkpt lat="30.9014800" lon="34.6808700">
<ele>406.669983</ele>
<time>2023-03-22T13:56:01.951Z</time>
</trkpt>
<trkpt lat="30.9016900" lon="34.6812600">
<ele>405.410004</ele>
<time>2023-03-22T13:56:01.951Z</time>
</trkpt>
<trkpt lat="30.9019400" lon="34.6815100">
<ele>404.170013</ele>
<time>2023-03-22T13:56:01.951Z</time>
</trkpt>
<trkpt lat="30.9021000" lon="34.6818700">
<ele>396.449982</ele>
<time>2023-03-22T13:56:01.951Z</time>
</trkpt>
<trkpt lat="30.9020800" lon="34.6820500">
<ele>394.309998</ele>
<time>2023-03-22T13:56:01.951Z</time>
</trkpt>
<trkpt lat="30.9023300" lon="34.6826800">
<ele>391.970001</ele>
<time>2023-03-22T13:56:01.951Z</time>
</trkpt>
<trkpt lat="30.9024800" lon="34.6830400">
<ele>388.970001</ele>
<time>2023-03-22T13:56:01.951Z</time>
</trkpt>
<trkpt lat="30.9027700" lon="34.6832400">
<ele>387.000000</ele>
<time>2023-03-22T13:56:01.951Z</time>
</trkpt>
<trkpt lat="30.9031800" lon="34.6833700">
<ele>385.929993</ele>
<time>2023-03-22T13:56:01.951Z</time>
</trkpt>
<trkpt lat="30.9036900" lon="34.6837300">
<ele>388.500000</ele>
<time>2023-03-22T13:56:01.951Z</time>
</trkpt>
<trkpt lat="30.9041200" lon="34.6840400">
<ele>397.010010</ele>
<time>2023-03-22T13:56:01.951Z</time>
</trkpt>
<trkpt lat="30.9045900" lon="34.6844700">
<ele>394.630005</ele>
<time>2023-03-22T13:56:01.951Z</time>
</trkpt>
<trkpt lat="30.9050000" lon="34.6849200">
<ele>384.860016</ele>
<time>2023-03-22T13:56:01.951Z</time>
</trkpt>
<trkpt lat="30.9054100" lon="34.6853700">
<ele>385.680023</ele>
<time>2023-03-22T13:56:01.951Z</time>
</trkpt>
<trkpt lat="30.9058100" lon="34.6856500">
<ele>383.470001</ele>
<time>2023-03-22T13:56:01.951Z</time>
</trkpt>
<trkpt lat="30.9061600" lon="34.6858700">
<ele>378.100006</ele>
<time>2023-03-22T13:56:01.951Z</time>
</trkpt>
<trkpt lat="30.9061600" lon="34.6858700">
<ele>378.100006</ele>
<time>2023-03-22T13:56:01.951Z</time>
</trkpt>
<trkpt lat="30.9065200" lon="34.6860900">
<ele>379.180023</ele>
<time>2023-03-22T13:56:01.951Z</time>
</trkpt>
<trkpt lat="30.9066600" lon="34.6861500">
<ele>381.749969</ele>
<time>2023-03-22T13:56:01.951Z</time>
</trkpt>
<trkpt lat="30.9072700" lon="34.6864000">
<ele>377.580017</ele>
<time>2023-03-22T13:56:01.951Z</time>
</trkpt>
<trkpt lat="30.9080000" lon="34.6868800">
<ele>380.029999</ele>
<time>2023-03-22T13:56:01.951Z</time>
</trkpt>
<trkpt lat="30.9107600" lon="34.6878200">
<ele>384.300018</ele>
<time>2023-03-22T13:56:01.951Z</time>
</trkpt>
<trkpt lat="30.9125800" lon="34.6881700">
<ele>395.990021</ele>
<time>2023-03-22T13:56:01.951Z</time>
</trkpt>
<trkpt lat="30.9132900" lon="34.6885100">
<ele>390.540009</ele>
<time>2023-03-22T13:56:01.951Z</time>
</trkpt>
<trkpt lat="30.9138500" lon="34.6889200">
<ele>383.840027</ele>
<time>2023-03-22T13:56:01.951Z</time>
</trkpt>
<trkpt lat="30.9144100" lon="34.6890400">
<ele>377.750000</ele>
<time>2023-03-22T13:56:01.951Z</time>
</trkpt>
<trkpt lat="30.9145300" lon="34.6892000">
<ele>377.440002</ele>
<time>2023-03-22T13:56:01.951Z</time>
</trkpt>
<trkpt lat="30.9146400" lon="34.6894100">
<ele>378.519989</ele>
<time>2023-03-22T13:56:01.951Z</time>
</trkpt>
<trkpt lat="30.9148400" lon="34.6897100">
<ele>378.020020</ele>
<time>2023-03-22T13:56:01.951Z</time>
</trkpt>
<trkpt lat="30.9150500" lon="34.6901000">
<ele>375.519989</ele>
<time>2023-03-22T13:56:01.951Z</time>
</trkpt>
<trkpt lat="30.9152100" lon="34.6904400">
<ele>376.770020</ele>
<time>2023-03-22T13:56:01.951Z</time>
</trkpt>
<trkpt lat="30.9153500" lon="34.6907100">
<ele>377.869995</ele>
<time>2023-03-22T13:56:01.951Z</time>
</trkpt>
<trkpt lat="30.9154900" lon="34.6908700">
<ele>376.980011</ele>
<time>2023-03-22T13:56:01.951Z</time>
</trkpt>
<trkpt lat="30.9156900" lon="34.6910600">
<ele>379.420013</ele>
<time>2023-03-22T13:56:01.951Z</time>
</trkpt>
<trkpt lat="30.9158800" lon="34.6912600">
<ele>382.269989</ele>
<time>2023-03-22T13:56:01.951Z</time>
</trkpt>
<trkpt lat="30.9162900" lon="34.6916500">
<ele>379.449982</ele>
<time>2023-03-22T13:56:01.951Z</time>
</trkpt>
<trkpt lat="30.9166600" lon="34.6919400">
<ele>376.940002</ele>
<time>2023-03-22T13:56:01.951Z</time>
</trkpt>
<trkpt lat="30.9175500" lon="34.6930200">
<ele>363.519989</ele>
<time>2023-03-22T13:56:01.951Z</time>
</trkpt>
<trkpt lat="30.9176600" lon="34.6931400">
<ele>364.059998</ele>
<time>2023-03-22T13:56:01.951Z</time>
</trkpt>
<trkpt lat="30.9178400" lon="34.6932700">
<ele>365.600006</ele>
<time>2023-03-22T13:56:01.951Z</time>
</trkpt>
<trkpt lat="30.9180700" lon="34.6934700">
<ele>367.500000</ele>
<time>2023-03-22T13:56:01.951Z</time>
</trkpt>
<trkpt lat="30.9184300" lon="34.6939100">
<ele>373.579987</ele>
<time>2023-03-22T13:56:01.951Z</time>
</trkpt>
<trkpt lat="30.9186000" lon="34.6940800">
<ele>374.170013</ele>
<time>2023-03-22T13:56:01.951Z</time>
</trkpt>
<trkpt lat="30.9188800" lon="34.6944600">
<ele>378.880005</ele>
<time>2023-03-22T13:56:01.951Z</time>
</trkpt>
<trkpt lat="30.9189600" lon="34.6946800">
<ele>377.930023</ele>
<time>2023-03-22T13:56:01.951Z</time>
</trkpt>
<trkpt lat="30.9190400" lon="34.6948000">
<ele>377.839996</ele>
<time>2023-03-22T13:56:01.951Z</time>
</trkpt>
<trkpt lat="30.9191500" lon="34.6948800">
<ele>377.160004</ele>
<time>2023-03-22T13:56:01.951Z</time>
</trkpt>
<trkpt lat="30.9192100" lon="34.6949400">
<ele>376.029999</ele>
<time>2023-03-22T13:56:01.951Z</time>
</trkpt>
<trkpt lat="30.9193200" lon="34.6952200">
<ele>375.350006</ele>
<time>2023-03-22T13:56:01.951Z</time>
</trkpt>
<trkpt lat="30.9196600" lon="34.6957000">
<ele>381.089996</ele>
<time>2023-03-22T13:56:01.951Z</time>
</trkpt>
<trkpt lat="30.9202400" lon="34.6964500">
<ele>380.690002</ele>
<time>2023-03-22T13:56:01.951Z</time>
</trkpt>
<trkpt lat="30.9206000" lon="34.6969800">
<ele>376.339996</ele>
<time>2023-03-22T13:56:01.951Z</time>
</trkpt>
<trkpt lat="30.9211100" lon="34.6975700">
<ele>368.750000</ele>
<time>2023-03-22T13:56:01.951Z</time>
</trkpt>
<trkpt lat="30.9212300" lon="34.6978000">
<ele>365.600006</ele>
<time>2023-03-22T13:56:01.951Z</time>
</trkpt>
<trkpt lat="30.9215500" lon="34.6981700">
<ele>366.970001</ele>
<time>2023-03-22T13:56:01.951Z</time>
</trkpt>
<trkpt lat="30.9218100" lon="34.6986300">
<ele>365.990021</ele>
<time>2023-03-22T13:56:01.951Z</time>
</trkpt>
<trkpt lat="30.9220500" lon="34.6989700">
<ele>365.909973</ele>
<time>2023-03-22T13:56:01.951Z</time>
</trkpt>
<trkpt lat="30.9221400" lon="34.6991700">
<ele>361.720001</ele>
<time>2023-03-22T13:56:01.951Z</time>
</trkpt>
<trkpt lat="30.9223100" lon="34.6995700">
<ele>355.920013</ele>
<time>2023-03-22T13:56:01.951Z</time>
</trkpt>
<trkpt lat="30.9223300" lon="34.6996300">
<ele>356.270020</ele>
<time>2023-03-22T13:56:01.951Z</time>
</trkpt>
<trkpt lat="30.9224200" lon="34.6998800">
<ele>361.110016</ele>
<time>2023-03-22T13:56:01.951Z</time>
</trkpt>
<trkpt lat="30.9227500" lon="34.7003100">
<ele>375.230011</ele>
<time>2023-03-22T13:56:01.951Z</time>
</trkpt>
<trkpt lat="30.9230500" lon="34.7006400">
<ele>377.259979</ele>
<time>2023-03-22T13:56:01.951Z</time>
</trkpt>
<trkpt lat="30.9231600" lon="34.7007800">
<ele>375.769989</ele>
<time>2023-03-22T13:56:01.951Z</time>
</trkpt>
<trkpt lat="30.9232700" lon="34.7009800">
<ele>372.670013</ele>
<time>2023-03-22T13:56:01.951Z</time>
</trkpt>
<trkpt lat="30.9233400" lon="34.7011100">
<ele>369.939972</ele>
<time>2023-03-22T13:56:01.951Z</time>
</trkpt>
<trkpt lat="30.9234300" lon="34.7013700">
<ele>366.440002</ele>
<time>2023-03-22T13:56:01.951Z</time>
</trkpt>
<trkpt lat="30.9234900" lon="34.7015100">
<ele>364.799988</ele>
<time>2023-03-22T13:56:01.951Z</time>
</trkpt>
<trkpt lat="30.9235900" lon="34.7016700">
<ele>363.200012</ele>
<time>2023-03-22T13:56:01.951Z</time>
</trkpt>
<trkpt lat="30.9236600" lon="34.7017600">
<ele>362.149994</ele>
<time>2023-03-22T13:56:01.951Z</time>
</trkpt>
<trkpt lat="30.9235400" lon="34.7017800">
<ele>362.950012</ele>
<time>2023-03-22T13:56:01.951Z</time>
</trkpt>
<trkpt lat="30.9234800" lon="34.7018100">
<ele>363.380005</ele>
<time>2023-03-22T13:56:01.951Z</time>
</trkpt>
<trkpt lat="30.9234500" lon="34.7018700">
<ele>363.279999</ele>
<time>2023-03-22T13:56:01.951Z</time>
</trkpt>
<trkpt lat="30.9234000" lon="34.7020200">
<ele>363.279999</ele>
<time>2023-03-22T13:56:01.951Z</time>
</trkpt>
<trkpt lat="30.9234000" lon="34.7020200">
<ele>363.279999</ele>
<time>2023-03-22T13:56:01.951Z</time>
</trkpt>
<trkpt lat="30.9234000" lon="34.7020200">
<ele>363.279999</ele>
<time>2023-03-22T13:56:01.951Z</time>
</trkpt>
<trkpt lat="30.9234000" lon="34.7020200">
<ele>363.279999</ele>
<time>2023-03-22T13:56:01.951Z</time>
</trkpt>
<trkpt lat="30.9233500" lon="34.7020600">
<ele>363.819977</ele>
<time>2023-03-22T13:56:01.951Z</time>
</trkpt>
<trkpt lat="30.9232600" lon="34.7020900">
<ele>365.459991</ele>
<time>2023-03-22T13:56:01.951Z</time>
</trkpt>
<trkpt lat="30.9231300" lon="34.7021000">
<ele>368.070007</ele>
<time>2023-03-22T13:56:01.951Z</time>
</trkpt>
<trkpt lat="30.9230600" lon="34.7021000">
<ele>369.470001</ele>
<time>2023-03-22T13:56:01.951Z</time>
</trkpt>
<trkpt lat="30.9226200" lon="34.7021600">
<ele>363.299988</ele>
<time>2023-03-22T13:56:01.951Z</time>
</trkpt>
<trkpt lat="30.9222400" lon="34.7023000">
<ele>356.720001</ele>
<time>2023-03-22T13:56:01.951Z</time>
</trkpt>
<trkpt lat="30.9219700" lon="34.7024300">
<ele>355.220001</ele>
<time>2023-03-22T13:56:01.951Z</time>
</trkpt>
<trkpt lat="30.9218300" lon="34.7024700">
<ele>354.009979</ele>
<time>2023-03-22T13:56:01.951Z</time>
</trkpt>
<trkpt lat="30.9217000" lon="34.7024500">
<ele>352.080017</ele>
<time>2023-03-22T13:56:01.951Z</time>
</trkpt>
<trkpt lat="30.9213500" lon="34.7024500">
<ele>354.929993</ele>
<time>2023-03-22T13:56:01.951Z</time>
</trkpt>
<trkpt lat="30.9211000" lon="34.7025500">
<ele>360.410004</ele>
<time>2023-03-22T13:56:01.951Z</time>
</trkpt>
<trkpt lat="30.9209000" lon="34.7025500">
<ele>363.160004</ele>
<time>2023-03-22T13:56:01.951Z</time>
</trkpt>
<trkpt lat="30.9207900" lon="34.7025100">
<ele>363.359985</ele>
<time>2023-03-22T13:56:01.951Z</time>
</trkpt>
<trkpt lat="30.9206500" lon="34.7025100">
<ele>363.829987</ele>
<time>2023-03-22T13:56:01.951Z</time>
</trkpt>
<trkpt lat="30.9205800" lon="34.7025300">
<ele>364.360016</ele>
<time>2023-03-22T13:56:01.951Z</time>
</trkpt>
<trkpt lat="30.9205000" lon="34.7025200">
<ele>363.519989</ele>
<time>2023-03-22T13:56:01.951Z</time>
</trkpt>
<trkpt lat="30.9204100" lon="34.7025500">
<ele>362.809998</ele>
<time>2023-03-22T13:56:01.951Z</time>
</trkpt>
<trkpt lat="30.9202100" lon="34.7025200">
<ele>360.680023</ele>
<time>2023-03-22T13:56:01.951Z</time>
</trkpt>
<trkpt lat="30.9201200" lon="34.7025500">
<ele>361.649994</ele>
<time>2023-03-22T13:56:01.951Z</time>
</trkpt>
<trkpt lat="30.9199200" lon="34.7026900">
<ele>364.250000</ele>
<time>2023-03-22T13:56:01.966Z</time>
</trkpt>
<trkpt lat="30.9197600" lon="34.7028600">
<ele>367.799988</ele>
<time>2023-03-22T13:56:01.966Z</time>
</trkpt>
<trkpt lat="30.9196500" lon="34.7029600">
<ele>366.880005</ele>
<time>2023-03-22T13:56:01.966Z</time>
</trkpt>
<trkpt lat="30.9195300" lon="34.7030100">
<ele>362.339996</ele>
<time>2023-03-22T13:56:01.966Z</time>
</trkpt>
<trkpt lat="30.9193400" lon="34.7031500">
<ele>358.149994</ele>
<time>2023-03-22T13:56:01.966Z</time>
</trkpt>
<trkpt lat="30.9191000" lon="34.7034600">
<ele>357.560028</ele>
<time>2023-03-22T13:56:01.966Z</time>
</trkpt>
<trkpt lat="30.9190700" lon="34.7035100">
<ele>358.140015</ele>
<time>2023-03-22T13:56:01.966Z</time>
</trkpt>
<trkpt lat="30.9189800" lon="34.7035800">
<ele>358.419983</ele>
<time>2023-03-22T13:56:01.966Z</time>
</trkpt>
<trkpt lat="30.9188100" lon="34.7038100">
<ele>359.579987</ele>
<time>2023-03-22T13:56:01.966Z</time>
</trkpt>
<trkpt lat="30.9187300" lon="34.7039300">
<ele>360.600006</ele>
<time>2023-03-22T13:56:01.966Z</time>
</trkpt>
<trkpt lat="30.9186500" lon="34.7041000">
<ele>363.080017</ele>
<time>2023-03-22T13:56:01.966Z</time>
</trkpt>
<trkpt lat="30.9185500" lon="34.7042400">
<ele>364.820007</ele>
<time>2023-03-22T13:56:01.966Z</time>
</trkpt>
<trkpt lat="30.9185000" lon="34.7042900">
<ele>365.239990</ele>
<time>2023-03-22T13:56:01.966Z</time>
</trkpt>
<trkpt lat="30.9183800" lon="34.7045000">
<ele>367.639984</ele>
<time>2023-03-22T13:56:01.966Z</time>
</trkpt>
<trkpt lat="30.9183000" lon="34.7045900">
<ele>369.010010</ele>
<time>2023-03-22T13:56:01.966Z</time>
</trkpt>
<trkpt lat="30.9182200" lon="34.7046400">
<ele>369.320007</ele>
<time>2023-03-22T13:56:01.966Z</time>
</trkpt>
<trkpt lat="30.9180600" lon="34.7046600">
<ele>368.040009</ele>
<time>2023-03-22T13:56:01.966Z</time>
</trkpt>
<trkpt lat="30.9178300" lon="34.7045700">
<ele>367.559998</ele>
<time>2023-03-22T13:56:01.966Z</time>
</trkpt>
<trkpt lat="30.9177300" lon="34.7045600">
<ele>367.069977</ele>
<time>2023-03-22T13:56:01.966Z</time>
</trkpt>
<trkpt lat="30.9176600" lon="34.7045800">
<ele>366.639984</ele>
<time>2023-03-22T13:56:01.966Z</time>
</trkpt>
<trkpt lat="30.9174700" lon="34.7047000">
<ele>365.160004</ele>
<time>2023-03-22T13:56:01.966Z</time>
</trkpt>
<trkpt lat="30.9171900" lon="34.7047300">
<ele>358.769989</ele>
<time>2023-03-22T13:56:01.966Z</time>
</trkpt>
<trkpt lat="30.9171600" lon="34.7047400">
<ele>358.549988</ele>
<time>2023-03-22T13:56:01.966Z</time>
</trkpt>
<trkpt lat="30.9171000" lon="34.7047700">
<ele>358.119995</ele>
<time>2023-03-22T13:56:01.966Z</time>
</trkpt>
<trkpt lat="30.9170300" lon="34.7048700">
<ele>357.619995</ele>
<time>2023-03-22T13:56:01.966Z</time>
</trkpt>
<trkpt lat="30.9169800" lon="34.7050600">
<ele>357.529999</ele>
<time>2023-03-22T13:56:01.966Z</time>
</trkpt>
<trkpt lat="30.9169200" lon="34.7051600">
<ele>357.349976</ele>
<time>2023-03-22T13:56:01.966Z</time>
</trkpt>
<trkpt lat="30.9167800" lon="34.7052800">
<ele>356.220001</ele>
<time>2023-03-22T13:56:01.966Z</time>
</trkpt>
<trkpt lat="30.9166600" lon="34.7053000">
<ele>354.750000</ele>
<time>2023-03-22T13:56:01.966Z</time>
</trkpt>
<trkpt lat="30.9165400" lon="34.7053400">
<ele>352.930023</ele>
<time>2023-03-22T13:56:01.966Z</time>
</trkpt>
<trkpt lat="30.9163100" lon="34.7055300">
<ele>351.929993</ele>
<time>2023-03-22T13:56:01.966Z</time>
</trkpt>
<trkpt lat="30.9161700" lon="34.7056800">
<ele>354.980011</ele>
<time>2023-03-22T13:56:01.966Z</time>
</trkpt>
<trkpt lat="30.9161700" lon="34.7056800">
<ele>354.980011</ele>
<time>2023-03-22T13:56:01.966Z</time>
</trkpt>
<trkpt lat="30.9159600" lon="34.7059200">
<ele>355.039978</ele>
<time>2023-03-22T13:56:01.966Z</time>
</trkpt>
<trkpt lat="30.9157700" lon="34.7061700">
<ele>358.410004</ele>
<time>2023-03-22T13:56:01.966Z</time>
</trkpt>
<trkpt lat="30.9157300" lon="34.7062900">
<ele>359.559998</ele>
<time>2023-03-22T13:56:01.966Z</time>
</trkpt>
<trkpt lat="30.9155800" lon="34.7065000">
<ele>361.580017</ele>
<time>2023-03-22T13:56:01.966Z</time>
</trkpt>
<trkpt lat="30.9153900" lon="34.7068900">
<ele>362.480011</ele>
<time>2023-03-22T13:56:01.966Z</time>
</trkpt>
<trkpt lat="30.9153000" lon="34.7072500">
<ele>362.449982</ele>
<time>2023-03-22T13:56:01.966Z</time>
</trkpt>
<trkpt lat="30.9152200" lon="34.7074200">
<ele>363.899994</ele>
<time>2023-03-22T13:56:01.966Z</time>
</trkpt>
<trkpt lat="30.9150500" lon="34.7077200">
<ele>364.910004</ele>
<time>2023-03-22T13:56:01.966Z</time>
</trkpt>
<trkpt lat="30.9148100" lon="34.7080400">
<ele>362.279999</ele>
<time>2023-03-22T13:56:01.966Z</time>
</trkpt>
<trkpt lat="30.9146100" lon="34.7085100">
<ele>364.209991</ele>
<time>2023-03-22T13:56:01.966Z</time>
</trkpt>
<trkpt lat="30.9144300" lon="34.7088400">
<ele>369.169983</ele>
<time>2023-03-22T13:56:01.966Z</time>
</trkpt>
<trkpt lat="30.9143400" lon="34.7091000">
<ele>370.470001</ele>
<time>2023-03-22T13:56:01.966Z</time>
</trkpt>
<trkpt lat="30.9142300" lon="34.7095300">
<ele>363.429993</ele>
<time>2023-03-22T13:56:01.966Z</time>
</trkpt>
<trkpt lat="30.9141300" lon="34.7101000">
<ele>356.970001</ele>
<time>2023-03-22T13:56:01.966Z</time>
</trkpt>
<trkpt lat="30.9141100" lon="34.7101600">
<ele>356.390015</ele>
<time>2023-03-22T13:56:01.966Z</time>
</trkpt>
<trkpt lat="30.9140500" lon="34.7102900">
<ele>355.450012</ele>
<time>2023-03-22T13:56:01.966Z</time>
</trkpt>
<trkpt lat="30.9139900" lon="34.7103700">
<ele>355.670013</ele>
<time>2023-03-22T13:56:01.966Z</time>
</trkpt>
<trkpt lat="30.9138400" lon="34.7105300">
<ele>356.759979</ele>
<time>2023-03-22T13:56:01.966Z</time>
</trkpt>
<trkpt lat="30.9137700" lon="34.7105900">
<ele>358.979980</ele>
<time>2023-03-22T13:56:01.966Z</time>
</trkpt>
<trkpt lat="30.9136600" lon="34.7106400">
<ele>361.880005</ele>
<time>2023-03-22T13:56:01.966Z</time>
</trkpt>
<trkpt lat="30.9135500" lon="34.7107100">
<ele>365.090027</ele>
<time>2023-03-22T13:56:01.966Z</time>
</trkpt>
<trkpt lat="30.9131900" lon="34.7108700">
<ele>370.830017</ele>
<time>2023-03-22T13:56:01.966Z</time>
</trkpt>
<trkpt lat="30.9129000" lon="34.7109500">
<ele>366.779999</ele>
<time>2023-03-22T13:56:01.966Z</time>
</trkpt>
<trkpt lat="30.9127400" lon="34.7109800">
<ele>364.649994</ele>
<time>2023-03-22T13:56:01.966Z</time>
</trkpt>
<trkpt lat="30.9123100" lon="34.7110800">
<ele>352.339996</ele>
<time>2023-03-22T13:56:01.966Z</time>
</trkpt>
<trkpt lat="30.9122200" lon="34.7111000">
<ele>350.759979</ele>
<time>2023-03-22T13:56:01.966Z</time>
</trkpt>
<trkpt lat="30.9121800" lon="34.7111200">
<ele>350.059998</ele>
<time>2023-03-22T13:56:01.966Z</time>
</trkpt>
<trkpt lat="30.9121400" lon="34.7111800">
<ele>350.230011</ele>
<time>2023-03-22T13:56:01.966Z</time>
</trkpt>
<trkpt lat="30.9121400" lon="34.7111800">
<ele>350.230011</ele>
<time>2023-03-22T13:56:01.966Z</time>
</trkpt>
<trkpt lat="30.9121400" lon="34.7111800">
<ele>350.230011</ele>
<time>2023-03-22T13:56:01.966Z</time>
</trkpt>
<trkpt lat="30.9121400" lon="34.7111800">
<ele>350.230011</ele>
<time>2023-03-22T13:56:01.966Z</time>
</trkpt>
<trkpt lat="30.9120800" lon="34.7112700">
<ele>349.670013</ele>
<time>2023-03-22T13:56:01.966Z</time>
</trkpt>
<trkpt lat="30.9120200" lon="34.7113100">
<ele>348.500000</ele>
<time>2023-03-22T13:56:01.966Z</time>
</trkpt>
<trkpt lat="30.9119300" lon="34.7113000">
<ele>347.450012</ele>
<time>2023-03-22T13:56:01.966Z</time>
</trkpt>
<trkpt lat="30.9115800" lon="34.7113500">
<ele>350.370026</ele>
<time>2023-03-22T13:56:01.966Z</time>
</trkpt>
<trkpt lat="30.9115600" lon="34.7113700">
<ele>350.230011</ele>
<time>2023-03-22T13:56:01.966Z</time>
</trkpt>
<trkpt lat="30.9114800" lon="34.7115200">
<ele>352.779999</ele>
<time>2023-03-22T13:56:01.966Z</time>
</trkpt>
<trkpt lat="30.9111100" lon="34.7117500">
<ele>354.510010</ele>
<time>2023-03-22T13:56:01.966Z</time>
</trkpt>
<trkpt lat="30.9108600" lon="34.7120400">
<ele>359.789978</ele>
<time>2023-03-22T13:56:01.966Z</time>
</trkpt>
<trkpt lat="30.9107000" lon="34.7121700">
<ele>361.370026</ele>
<time>2023-03-22T13:56:01.966Z</time>
</trkpt>
<trkpt lat="30.9105900" lon="34.7121900">
<ele>360.970001</ele>
<time>2023-03-22T13:56:01.966Z</time>
</trkpt>
<trkpt lat="30.9105000" lon="34.7122200">
<ele>362.990021</ele>
<time>2023-03-22T13:56:01.966Z</time>
</trkpt>
<trkpt lat="30.9103500" lon="34.7123500">
<ele>367.759979</ele>
<time>2023-03-22T13:56:01.966Z</time>
</trkpt>
<trkpt lat="30.9101800" lon="34.7125700">
<ele>368.050018</ele>
<time>2023-03-22T13:56:01.966Z</time>
</trkpt>
<trkpt lat="30.9100900" lon="34.7127800">
<ele>367.010010</ele>
<time>2023-03-22T13:56:01.966Z</time>
</trkpt>
<trkpt lat="30.9100600" lon="34.7129100">
<ele>367.579987</ele>
<time>2023-03-22T13:56:01.966Z</time>
</trkpt>
<trkpt lat="30.9099600" lon="34.7130900">
<ele>368.730011</ele>
<time>2023-03-22T13:56:01.966Z</time>
</trkpt>
<trkpt lat="30.9098700" lon="34.7133900">
<ele>369.339996</ele>
<time>2023-03-22T13:56:01.966Z</time>
</trkpt>
<trkpt lat="30.9098200" lon="34.7137500">
<ele>367.559998</ele>
<time>2023-03-22T13:56:01.966Z</time>
</trkpt>
<trkpt lat="30.9097400" lon="34.7140100">
<ele>367.060028</ele>
<time>2023-03-22T13:56:01.966Z</time>
</trkpt>
<trkpt lat="30.9096700" lon="34.7141500">
<ele>366.269989</ele>
<time>2023-03-22T13:56:01.966Z</time>
</trkpt>
<trkpt lat="30.9095400" lon="34.7143000">
<ele>365.589996</ele>
<time>2023-03-22T13:56:01.966Z</time>
</trkpt>
<trkpt lat="30.9093800" lon="34.7145700">
<ele>368.850006</ele>
<time>2023-03-22T13:56:01.966Z</time>
</trkpt>
<trkpt lat="30.9092300" lon="34.7149300">
<ele>372.130005</ele>
<time>2023-03-22T13:56:01.966Z</time>
</trkpt>
<trkpt lat="30.9091700" lon="34.7150100">
<ele>372.130005</ele>
<time>2023-03-22T13:56:01.966Z</time>
</trkpt>
<trkpt lat="30.9090200" lon="34.7151100">
<ele>374.269989</ele>
<time>2023-03-22T13:56:01.966Z</time>
</trkpt>
<trkpt lat="30.9089300" lon="34.7152400">
<ele>376.899994</ele>
<time>2023-03-22T13:56:01.966Z</time>
</trkpt>
<trkpt lat="30.9088800" lon="34.7152700">
<ele>377.949982</ele>
<time>2023-03-22T13:56:01.966Z</time>
</trkpt>
<trkpt lat="30.9087500" lon="34.7153300">
<ele>379.000000</ele>
<time>2023-03-22T13:56:01.966Z</time>
</trkpt>
<trkpt lat="30.9084800" lon="34.7154900">
<ele>380.469971</ele>
<time>2023-03-22T13:56:01.966Z</time>
</trkpt>
<trkpt lat="30.9083800" lon="34.7155300">
<ele>380.829987</ele>
<time>2023-03-22T13:56:01.966Z</time>
</trkpt>
<trkpt lat="30.9083200" lon="34.7155800">
<ele>381.089996</ele>
<time>2023-03-22T13:56:01.966Z</time>
</trkpt>
<trkpt lat="30.9081500" lon="34.7157200">
<ele>381.929993</ele>
<time>2023-03-22T13:56:01.966Z</time>
</trkpt>
<trkpt lat="30.9081700" lon="34.7158600">
<ele>381.279968</ele>
<time>2023-03-22T13:56:01.966Z</time>
</trkpt>
<trkpt lat="30.9081600" lon="34.7160000">
<ele>379.679993</ele>
<time>2023-03-22T13:56:01.966Z</time>
</trkpt>
<trkpt lat="30.9081500" lon="34.7160700">
<ele>378.830017</ele>
<time>2023-03-22T13:56:01.966Z</time>
</trkpt>
<trkpt lat="30.9081200" lon="34.7162000">
<ele>377.839996</ele>
<time>2023-03-22T13:56:01.966Z</time>
</trkpt>
<trkpt lat="30.9080800" lon="34.7163400">
<ele>377.190002</ele>
<time>2023-03-22T13:56:01.966Z</time>
</trkpt>
<trkpt lat="30.9081400" lon="34.7165400">
<ele>374.609985</ele>
<time>2023-03-22T13:56:01.966Z</time>
</trkpt>
<trkpt lat="30.9081700" lon="34.7166900">
<ele>372.619995</ele>
<time>2023-03-22T13:56:01.966Z</time>
</trkpt>
<trkpt lat="30.9081500" lon="34.7171500">
<ele>370.339996</ele>
<time>2023-03-22T13:56:01.966Z</time>
</trkpt>
<trkpt lat="30.9081700" lon="34.7173500">
<ele>371.489990</ele>
<time>2023-03-22T13:56:01.966Z</time>
</trkpt>
<trkpt lat="30.9081900" lon="34.7177500">
<ele>372.979980</ele>
<time>2023-03-22T13:56:01.966Z</time>
</trkpt>
<trkpt lat="30.9081900" lon="34.7178300">
<ele>373.779999</ele>
<time>2023-03-22T13:56:01.966Z</time>
</trkpt>
<trkpt lat="30.9081300" lon="34.7180900">
<ele>377.309998</ele>
<time>2023-03-22T13:56:01.966Z</time>
</trkpt>
<trkpt lat="30.9081000" lon="34.7182900">
<ele>378.960022</ele>
<time>2023-03-22T13:56:01.966Z</time>
</trkpt>
<trkpt lat="30.9081000" lon="34.7194100">
<ele>379.900024</ele>
<time>2023-03-22T13:56:01.966Z</time>
</trkpt>
<trkpt lat="30.9080700" lon="34.7197000">
<ele>374.800018</ele>
<time>2023-03-22T13:56:01.966Z</time>
</trkpt>
<trkpt lat="30.9080600" lon="34.7202500">
<ele>375.649994</ele>
<time>2023-03-22T13:56:01.966Z</time>
</trkpt>
<trkpt lat="30.9080400" lon="34.7203300">
<ele>376.029999</ele>
<time>2023-03-22T13:56:01.966Z</time>
</trkpt>
<trkpt lat="30.9079900" lon="34.7204600">
<ele>375.920013</ele>
<time>2023-03-22T13:56:01.966Z</time>
</trkpt>
<trkpt lat="30.9076600" lon="34.7209400">
<ele>372.759979</ele>
<time>2023-03-22T13:56:01.966Z</time>
</trkpt>
<trkpt lat="30.9075900" lon="34.7210900">
<ele>373.980011</ele>
<time>2023-03-22T13:56:01.966Z</time>
</trkpt>
<trkpt lat="30.9075800" lon="34.7216900">
<ele>384.640015</ele>
<time>2023-03-22T13:56:01.966Z</time>
</trkpt>
<trkpt lat="30.9074500" lon="34.7224300">
<ele>378.839996</ele>
<time>2023-03-22T13:56:01.966Z</time>
</trkpt>
<trkpt lat="30.9074300" lon="34.7228600">
<ele>377.550018</ele>
<time>2023-03-22T13:56:01.966Z</time>
</trkpt>
<trkpt lat="30.9073300" lon="34.7235600">
<ele>374.239990</ele>
<time>2023-03-22T13:56:01.966Z</time>
</trkpt>
<trkpt lat="30.9073200" lon="34.7240600">
<ele>370.040009</ele>
<time>2023-03-22T13:56:01.966Z</time>
</trkpt>
<trkpt lat="30.9072600" lon="34.7243300">
<ele>366.949982</ele>
<time>2023-03-22T13:56:01.966Z</time>
</trkpt>
<trkpt lat="30.9072600" lon="34.7243300">
<ele>366.949982</ele>
<time>2023-03-22T13:56:01.966Z</time>
</trkpt>
<trkpt lat="30.9072600" lon="34.7243300">
<ele>366.949982</ele>
<time>2023-03-22T13:56:01.966Z</time>
</trkpt>
<trkpt lat="30.9071900" lon="34.7246600">
<ele>370.440002</ele>
<time>2023-03-22T13:56:01.966Z</time>
</trkpt>
<trkpt lat="30.9071200" lon="34.7249200">
<ele>374.080017</ele>
<time>2023-03-22T13:56:01.966Z</time>
</trkpt>
<trkpt lat="30.9070200" lon="34.7251700">
<ele>375.339996</ele>
<time>2023-03-22T13:56:01.966Z</time>
</trkpt>
<trkpt lat="30.9067700" lon="34.7257000">
<ele>369.609985</ele>
<time>2023-03-22T13:56:01.966Z</time>
</trkpt>
<trkpt lat="30.9065900" lon="34.7260000">
<ele>369.039978</ele>
<time>2023-03-22T13:56:01.966Z</time>
</trkpt>
<trkpt lat="30.9064200" lon="34.7262500">
<ele>371.940002</ele>
<time>2023-03-22T13:56:01.966Z</time>
</trkpt>
<trkpt lat="30.9062300" lon="34.7265000">
<ele>372.830017</ele>
<time>2023-03-22T13:56:01.966Z</time>
</trkpt>
<trkpt lat="30.9061600" lon="34.7265800">
<ele>372.849976</ele>
<time>2023-03-22T13:56:01.966Z</time>
</trkpt>
<trkpt lat="30.9059900" lon="34.7267500">
<ele>374.680023</ele>
<time>2023-03-22T13:56:01.966Z</time>
</trkpt>
<trkpt lat="30.9057100" lon="34.7270800">
<ele>377.179993</ele>
<time>2023-03-22T13:56:01.966Z</time>
</trkpt>
<trkpt lat="30.9056200" lon="34.7271700">
<ele>378.730011</ele>
<time>2023-03-22T13:56:01.966Z</time>
</trkpt>
<trkpt lat="30.9054900" lon="34.7272300">
<ele>379.420013</ele>
<time>2023-03-22T13:56:01.966Z</time>
</trkpt>
<trkpt lat="30.9052700" lon="34.7272500">
<ele>378.020020</ele>
<time>2023-03-22T13:56:01.966Z</time>
</trkpt>
<trkpt lat="30.9050900" lon="34.7273100">
<ele>380.410004</ele>
<time>2023-03-22T13:56:01.966Z</time>
</trkpt>
<trkpt lat="30.9049600" lon="34.7273800">
<ele>382.300018</ele>
<time>2023-03-22T13:56:01.966Z</time>
</trkpt>
<trkpt lat="30.9043800" lon="34.7278600">
<ele>382.699982</ele>
<time>2023-03-22T13:56:01.966Z</time>
</trkpt>
<trkpt lat="30.9043400" lon="34.7278900">
<ele>383.330017</ele>
<time>2023-03-22T13:56:01.966Z</time>
</trkpt>
<trkpt lat="30.9037000" lon="34.7282100">
<ele>384.500000</ele>
<time>2023-03-22T13:56:01.966Z</time>
</trkpt>
<trkpt lat="30.9033500" lon="34.7283400">
<ele>386.929993</ele>
<time>2023-03-22T13:56:01.966Z</time>
</trkpt>
<trkpt lat="30.9032500" lon="34.7283600">
<ele>387.220001</ele>
<time>2023-03-22T13:56:01.966Z</time>
</trkpt>
<trkpt lat="30.9031300" lon="34.7284000">
<ele>387.659973</ele>
<time>2023-03-22T13:56:01.966Z</time>
</trkpt>
<trkpt lat="30.9028100" lon="34.7283800">
<ele>381.320007</ele>
<time>2023-03-22T13:56:01.966Z</time>
</trkpt>
<trkpt lat="30.9026400" lon="34.7284300">
<ele>378.220001</ele>
<time>2023-03-22T13:56:01.966Z</time>
</trkpt>
<trkpt lat="30.9023100" lon="34.7286200">
<ele>378.089996</ele>
<time>2023-03-22T13:56:01.966Z</time>
</trkpt>
<trkpt lat="30.9019700" lon="34.7288900">
<ele>379.909973</ele>
<time>2023-03-22T13:56:01.966Z</time>
</trkpt>
<trkpt lat="30.9018600" lon="34.7289200">
<ele>381.600006</ele>
<time>2023-03-22T13:56:01.966Z</time>
</trkpt>
<trkpt lat="30.9017400" lon="34.7289200">
<ele>383.710022</ele>
<time>2023-03-22T13:56:01.966Z</time>
</trkpt>
<trkpt lat="30.9016600" lon="34.7289500">
<ele>385.210022</ele>
<time>2023-03-22T13:56:01.966Z</time>
</trkpt>
<trkpt lat="30.9015900" lon="34.7290000">
<ele>387.369995</ele>
<time>2023-03-22T13:56:01.966Z</time>
</trkpt>
<trkpt lat="30.9015300" lon="34.7290800">
<ele>389.089996</ele>
<time>2023-03-22T13:56:01.966Z</time>
</trkpt>
<trkpt lat="30.9015100" lon="34.7292100">
<ele>389.799988</ele>
<time>2023-03-22T13:56:01.966Z</time>
</trkpt>
<trkpt lat="30.9015200" lon="34.7293000">
<ele>390.160004</ele>
<time>2023-03-22T13:56:01.966Z</time>
</trkpt>
<trkpt lat="30.9017000" lon="34.7296800">
<ele>388.660004</ele>
<time>2023-03-22T13:56:01.966Z</time>
</trkpt>
<trkpt lat="30.9018400" lon="34.7299100">
<ele>391.250031</ele>
<time>2023-03-22T13:56:01.966Z</time>
</trkpt>
<trkpt lat="30.9020200" lon="34.7303300">
<ele>393.730011</ele>
<time>2023-03-22T13:56:01.966Z</time>
</trkpt>
<trkpt lat="30.9022200" lon="34.7312300">
<ele>391.290009</ele>
<time>2023-03-22T13:56:01.966Z</time>
</trkpt>
<trkpt lat="30.9022500" lon="34.7314300">
<ele>389.410004</ele>
<time>2023-03-22T13:56:01.966Z</time>
</trkpt>
<trkpt lat="30.9022400" lon="34.7316900">
<ele>390.090027</ele>
<time>2023-03-22T13:56:01.966Z</time>
</trkpt>
<trkpt lat="30.9022100" lon="34.7318200">
<ele>386.769989</ele>
<time>2023-03-22T13:56:01.966Z</time>
</trkpt>
<trkpt lat="30.9021600" lon="34.7319500">
<ele>384.230011</ele>
<time>2023-03-22T13:56:01.966Z</time>
</trkpt>
<trkpt lat="30.9020600" lon="34.7321000">
<ele>381.970001</ele>
<time>2023-03-22T13:56:01.966Z</time>
</trkpt>
<trkpt lat="30.9018700" lon="34.7323300">
<ele>378.059998</ele>
<time>2023-03-22T13:56:01.966Z</time>
</trkpt>
<trkpt lat="30.9015500" lon="34.7326700">
<ele>377.269989</ele>
<time>2023-03-22T13:56:01.966Z</time>
</trkpt>
<trkpt lat="30.9014400" lon="34.7327700">
<ele>376.500000</ele>
<time>2023-03-22T13:56:01.966Z</time>
</trkpt>
<trkpt lat="30.9010800" lon="34.7330400">
<ele>385.800018</ele>
<time>2023-03-22T13:56:01.966Z</time>
</trkpt>
<trkpt lat="30.9008900" lon="34.7331500">
<ele>388.980011</ele>
<time>2023-03-22T13:56:01.966Z</time>
</trkpt>
<trkpt lat="30.9006400" lon="34.7332400">
<ele>394.399994</ele>
<time>2023-03-22T13:56:01.966Z</time>
</trkpt>
<trkpt lat="30.9003400" lon="34.7333000">
<ele>399.110016</ele>
<time>2023-03-22T13:56:01.966Z</time>
</trkpt>
<trkpt lat="30.9001300" lon="34.7332500">
<ele>401.189972</ele>
<time>2023-03-22T13:56:01.966Z</time>
</trkpt>
<trkpt lat="30.8999200" lon="34.7332500">
<ele>402.779999</ele>
<time>2023-03-22T13:56:01.966Z</time>
</trkpt>
<trkpt lat="30.8997100" lon="34.7332100">
<ele>405.859985</ele>
<time>2023-03-22T13:56:01.966Z</time>
</trkpt>
<trkpt lat="30.8995000" lon="34.7332100">
<ele>407.290009</ele>
<time>2023-03-22T13:56:01.966Z</time>
</trkpt>
<trkpt lat="30.8993100" lon="34.7331900">
<ele>411.200012</ele>
<time>2023-03-22T13:56:01.966Z</time>
</trkpt>
<trkpt lat="30.8991000" lon="34.7331700">
<ele>414.280029</ele>
<time>2023-03-22T13:56:01.966Z</time>
</trkpt>
<trkpt lat="30.8987600" lon="34.7330800">
<ele>410.179993</ele>
<time>2023-03-22T13:56:01.966Z</time>
</trkpt>
<trkpt lat="30.8978500" lon="34.7329600">
<ele>404.609985</ele>
<time>2023-03-22T13:56:01.966Z</time>
</trkpt>
<trkpt lat="30.8976300" lon="34.7330100">
<ele>404.439972</ele>
<time>2023-03-22T13:56:01.966Z</time>
</trkpt>
<trkpt lat="30.8974200" lon="34.7331000">
<ele>401.480011</ele>
<time>2023-03-22T13:56:01.966Z</time>
</trkpt>
<trkpt lat="30.8973100" lon="34.7331600">
<ele>400.339996</ele>
<time>2023-03-22T13:56:01.966Z</time>
</trkpt>
<trkpt lat="30.8972600" lon="34.7332300">
<ele>398.959991</ele>
<time>2023-03-22T13:56:01.966Z</time>
</trkpt>
<trkpt lat="30.8972000" lon="34.7333200">
<ele>397.649994</ele>
<time>2023-03-22T13:56:01.966Z</time>
</trkpt>
<trkpt lat="30.8969900" lon="34.7337700">
<ele>393.529999</ele>
<time>2023-03-22T13:56:01.966Z</time>
</trkpt>
<trkpt lat="30.8969100" lon="34.7340300">
<ele>394.690002</ele>
<time>2023-03-22T13:56:01.966Z</time>
</trkpt>
<trkpt lat="30.8969100" lon="34.7340300">
<ele>394.690002</ele>
<time>2023-03-22T13:56:01.966Z</time>
</trkpt>
<trkpt lat="30.8968700" lon="34.7341400">
<ele>396.340027</ele>
<time>2023-03-22T13:56:01.966Z</time>
</trkpt>
<trkpt lat="30.8966400" lon="34.7347400">
<ele>403.419983</ele>
<time>2023-03-22T13:56:01.966Z</time>
</trkpt>
<trkpt lat="30.8965900" lon="34.7349700">
<ele>404.009979</ele>
<time>2023-03-22T13:56:01.966Z</time>
</trkpt>
<trkpt lat="30.8965900" lon="34.7350500">
<ele>404.229980</ele>
<time>2023-03-22T13:56:01.966Z</time>
</trkpt>
<trkpt lat="30.8967300" lon="34.7358200">
<ele>402.110016</ele>
<time>2023-03-22T13:56:01.966Z</time>
</trkpt>
<trkpt lat="30.8968500" lon="34.7361500">
<ele>402.070007</ele>
<time>2023-03-22T13:56:01.966Z</time>
</trkpt>
<trkpt lat="30.8970000" lon="34.7364400">
<ele>403.750031</ele>
<time>2023-03-22T13:56:01.966Z</time>
</trkpt>
<trkpt lat="30.8971700" lon="34.7370000">
<ele>409.199982</ele>
<time>2023-03-22T13:56:01.966Z</time>
</trkpt>
<trkpt lat="30.8972600" lon="34.7371900">
<ele>410.040009</ele>
<time>2023-03-22T13:56:01.966Z</time>
</trkpt>
<trkpt lat="30.8973300" lon="34.7374800">
<ele>409.100006</ele>
<time>2023-03-22T13:56:01.966Z</time>
</trkpt>
<trkpt lat="30.8973800" lon="34.7377300">
<ele>407.699982</ele>
<time>2023-03-22T13:56:01.966Z</time>
</trkpt>
<trkpt lat="30.8974100" lon="34.7378100">
<ele>407.049988</ele>
<time>2023-03-22T13:56:01.966Z</time>
</trkpt>
<trkpt lat="30.8979000" lon="34.7384600">
<ele>405.550018</ele>
<time>2023-03-22T13:56:01.966Z</time>
</trkpt>
<trkpt lat="30.8983700" lon="34.7394200">
<ele>412.990021</ele>
<time>2023-03-22T13:56:01.966Z</time>
</trkpt>
<trkpt lat="30.8986400" lon="34.7399000">
<ele>416.250031</ele>
<time>2023-03-22T13:56:01.966Z</time>
</trkpt>
<trkpt lat="30.8987900" lon="34.7401400">
<ele>416.540009</ele>
<time>2023-03-22T13:56:01.966Z</time>
</trkpt>
<trkpt lat="30.8992900" lon="34.7407900">
<ele>417.260010</ele>
<time>2023-03-22T13:56:01.966Z</time>
</trkpt>
<trkpt lat="30.8992900" lon="34.7407900">
<ele>417.260010</ele>
<time>2023-03-22T13:56:01.966Z</time>
</trkpt>
<trkpt lat="30.8992900" lon="34.7407900">
<ele>417.260010</ele>
<time>2023-03-22T13:56:01.966Z</time>
</trkpt>
<trkpt lat="30.8992900" lon="34.7407900">
<ele>417.260010</ele>
<time>2023-03-22T13:56:01.966Z</time>
</trkpt>
<trkpt lat="30.8994300" lon="34.7409900">
<ele>416.760010</ele>
<time>2023-03-22T13:56:01.966Z</time>
</trkpt>
<trkpt lat="30.8998400" lon="34.7416100">
<ele>420.140015</ele>
<time>2023-03-22T13:56:01.966Z</time>
</trkpt>
<trkpt lat="30.9002800" lon="34.7421900">
<ele>432.820007</ele>
<time>2023-03-22T13:56:01.966Z</time>
</trkpt>
<trkpt lat="30.9005400" lon="34.7424500">
<ele>425.279999</ele>
<time>2023-03-22T13:56:01.966Z</time>
</trkpt>
<trkpt lat="30.9010700" lon="34.7430600">
<ele>423.720001</ele>
<time>2023-03-22T13:56:01.966Z</time>
</trkpt>
<trkpt lat="30.9014300" lon="34.7433400">
<ele>423.119995</ele>
<time>2023-03-22T13:56:01.966Z</time>
</trkpt>
<trkpt lat="30.9015500" lon="34.7434600">
<ele>423.119995</ele>
<time>2023-03-22T13:56:01.966Z</time>
</trkpt>
<trkpt lat="30.9019400" lon="34.7439900">
<ele>423.250000</ele>
<time>2023-03-22T13:56:01.966Z</time>
</trkpt>
<trkpt lat="30.9021800" lon="34.7445600">
<ele>423.950012</ele>
<time>2023-03-22T13:56:01.966Z</time>
</trkpt>
<trkpt lat="30.9023800" lon="34.7448800">
<ele>424.320007</ele>
<time>2023-03-22T13:56:01.966Z</time>
</trkpt>
<trkpt lat="30.9024800" lon="34.7450800">
<ele>423.809998</ele>
<time>2023-03-22T13:56:01.966Z</time>
</trkpt>
<trkpt lat="30.9026800" lon="34.7456000">
<ele>417.679993</ele>
<time>2023-03-22T13:56:01.966Z</time>
</trkpt>
<trkpt lat="30.9027500" lon="34.7459100">
<ele>415.780029</ele>
<time>2023-03-22T13:56:01.966Z</time>
</trkpt>
<trkpt lat="30.9028400" lon="34.7463700">
<ele>413.859985</ele>
<time>2023-03-22T13:56:01.966Z</time>
</trkpt>
<trkpt lat="30.9028600" lon="34.7467000">
<ele>411.859985</ele>
<time>2023-03-22T13:56:01.966Z</time>
</trkpt>
<trkpt lat="30.9028600" lon="34.7471400">
<ele>410.059998</ele>
<time>2023-03-22T13:56:01.966Z</time>
</trkpt>
<trkpt lat="30.9028500" lon="34.7473400">
<ele>408.320007</ele>
<time>2023-03-22T13:56:01.966Z</time>
</trkpt>
<trkpt lat="30.9028200" lon="34.7474700">
<ele>407.430023</ele>
<time>2023-03-22T13:56:01.966Z</time>
</trkpt>
<trkpt lat="30.9026900" lon="34.7477200">
<ele>406.419983</ele>
<time>2023-03-22T13:56:01.966Z</time>
</trkpt>
<trkpt lat="30.9026200" lon="34.7478200">
<ele>406.069977</ele>
<time>2023-03-22T13:56:01.966Z</time>
</trkpt>
<trkpt lat="30.9022800" lon="34.7481000">
<ele>404.359985</ele>
<time>2023-03-22T13:56:01.966Z</time>
</trkpt>
<trkpt lat="30.9021300" lon="34.7482500">
<ele>402.540009</ele>
<time>2023-03-22T13:56:01.966Z</time>
</trkpt>
<trkpt lat="30.9020600" lon="34.7483600">
<ele>401.929993</ele>
<time>2023-03-22T13:56:01.966Z</time>
</trkpt>
<trkpt lat="30.9016000" lon="34.7492100">
<ele>405.389984</ele>
<time>2023-03-22T13:56:01.966Z</time>
</trkpt>
<trkpt lat="30.9014200" lon="34.7494800">
<ele>405.599976</ele>
<time>2023-03-22T13:56:01.966Z</time>
</trkpt>
<trkpt lat="30.9013700" lon="34.7495400">
<ele>404.909973</ele>
<time>2023-03-22T13:56:01.966Z</time>
</trkpt>
<trkpt lat="30.9012600" lon="34.7496100">
<ele>403.889984</ele>
<time>2023-03-22T13:56:01.966Z</time>
</trkpt>
<trkpt lat="30.9011300" lon="34.7496500">
<ele>402.240021</ele>
<time>2023-03-22T13:56:01.966Z</time>
</trkpt>
<trkpt lat="30.9003200" lon="34.7497300">
<ele>399.970001</ele>
<time>2023-03-22T13:56:01.966Z</time>
</trkpt>
<trkpt lat="30.9001000" lon="34.7498700">
<ele>397.190002</ele>
<time>2023-03-22T13:56:01.966Z</time>
</trkpt>
<trkpt lat="30.8998400" lon="34.7501000">
<ele>402.149994</ele>
<time>2023-03-22T13:56:01.966Z</time>
</trkpt>
<trkpt lat="30.8995100" lon="34.7502200">
<ele>405.320007</ele>
<time>2023-03-22T13:56:01.966Z</time>
</trkpt>
<trkpt lat="30.8993400" lon="34.7502900">
<ele>404.730011</ele>
<time>2023-03-22T13:56:01.966Z</time>
</trkpt>
<trkpt lat="30.8991800" lon="34.7503700">
<ele>405.029999</ele>
<time>2023-03-22T13:56:01.966Z</time>
</trkpt>
<trkpt lat="30.8990100" lon="34.7504000">
<ele>405.429993</ele>
<time>2023-03-22T13:56:01.966Z</time>
</trkpt>
<trkpt lat="30.8988300" lon="34.7504100">
<ele>406.140015</ele>
<time>2023-03-22T13:56:01.966Z</time>
</trkpt>
<trkpt lat="30.8986800" lon="34.7503700">
<ele>406.160004</ele>
<time>2023-03-22T13:56:01.966Z</time>
</trkpt>
<trkpt lat="30.8985400" lon="34.7503600">
<ele>405.379974</ele>
<time>2023-03-22T13:56:01.966Z</time>
</trkpt>
<trkpt lat="30.8983200" lon="34.7503900">
<ele>402.660004</ele>
<time>2023-03-22T13:56:01.966Z</time>
</trkpt>
<trkpt lat="30.8978900" lon="34.7504900">
<ele>402.220001</ele>
<time>2023-03-22T13:56:01.966Z</time>
</trkpt>
<trkpt lat="30.8973500" lon="34.7506500">
<ele>398.779999</ele>
<time>2023-03-22T13:56:01.966Z</time>
</trkpt>
<trkpt lat="30.8972400" lon="34.7506500">
<ele>399.550018</ele>
<time>2023-03-22T13:56:01.966Z</time>
</trkpt>
<trkpt lat="30.8970700" lon="34.7506000">
<ele>400.499969</ele>
<time>2023-03-22T13:56:01.966Z</time>
</trkpt>
<trkpt lat="30.8969400" lon="34.7506000">
<ele>401.520020</ele>
<time>2023-03-22T13:56:01.966Z</time>
</trkpt>
<trkpt lat="30.8968400" lon="34.7506300">
<ele>402.630005</ele>
<time>2023-03-22T13:56:01.966Z</time>
</trkpt>
<trkpt lat="30.8967200" lon="34.7507100">
<ele>403.740021</ele>
<time>2023-03-22T13:56:01.966Z</time>
</trkpt>
<trkpt lat="30.8966100" lon="34.7508100">
<ele>405.110016</ele>
<time>2023-03-22T13:56:01.966Z</time>
</trkpt>
<trkpt lat="30.8964800" lon="34.7509500">
<ele>408.320007</ele>
<time>2023-03-22T13:56:01.966Z</time>
</trkpt>
<trkpt lat="30.8963700" lon="34.7511000">
<ele>409.069977</ele>
<time>2023-03-22T13:56:01.966Z</time>
</trkpt>
<trkpt lat="30.8963300" lon="34.7511900">
<ele>410.170013</ele>
<time>2023-03-22T13:56:01.966Z</time>
</trkpt>
<trkpt lat="30.8961900" lon="34.7517100">
<ele>413.009979</ele>
<time>2023-03-22T13:56:01.966Z</time>
</trkpt>
<trkpt lat="30.8960900" lon="34.7519700">
<ele>414.499969</ele>
<time>2023-03-22T13:56:01.966Z</time>
</trkpt>
<trkpt lat="30.8959900" lon="34.7521500">
<ele>417.629974</ele>
<time>2023-03-22T13:56:01.966Z</time>
</trkpt>
<trkpt lat="30.8959300" lon="34.7523300">
<ele>419.070007</ele>
<time>2023-03-22T13:56:01.966Z</time>
</trkpt>
<trkpt lat="30.8959200" lon="34.7524300">
<ele>420.020020</ele>
<time>2023-03-22T13:56:01.966Z</time>
</trkpt>
<trkpt lat="30.8958900" lon="34.7526500">
<ele>422.049988</ele>
<time>2023-03-22T13:56:01.966Z</time>
</trkpt>
<trkpt lat="30.8958600" lon="34.7527400">
<ele>422.779999</ele>
<time>2023-03-22T13:56:01.966Z</time>
</trkpt>
<trkpt lat="30.8957900" lon="34.7528900">
<ele>423.809998</ele>
<time>2023-03-22T13:56:01.966Z</time>
</trkpt>
<trkpt lat="30.8957700" lon="34.7529700">
<ele>424.720001</ele>
<time>2023-03-22T13:56:01.966Z</time>
</trkpt>
<trkpt lat="30.8957900" lon="34.7531300">
<ele>426.420013</ele>
<time>2023-03-22T13:56:01.966Z</time>
</trkpt>
<trkpt lat="30.8959400" lon="34.7535600">
<ele>427.269989</ele>
<time>2023-03-22T13:56:01.966Z</time>
</trkpt>
<trkpt lat="30.8960400" lon="34.7538600">
<ele>429.130005</ele>
<time>2023-03-22T13:56:01.966Z</time>
</trkpt>
<trkpt lat="30.8961400" lon="34.7542600">
<ele>432.139984</ele>
<time>2023-03-22T13:56:01.966Z</time>
</trkpt>
<trkpt lat="30.8963400" lon="34.7546500">
<ele>433.389984</ele>
<time>2023-03-22T13:56:01.966Z</time>
</trkpt>
<trkpt lat="30.8964300" lon="34.7548900">
<ele>432.410004</ele>
<time>2023-03-22T13:56:01.966Z</time>
</trkpt>
<trkpt lat="30.8966400" lon="34.7552700">
<ele>428.220001</ele>
<time>2023-03-22T13:56:01.966Z</time>
</trkpt>
<trkpt lat="30.8968800" lon="34.7557700">
<ele>423.339996</ele>
<time>2023-03-22T13:56:01.966Z</time>
</trkpt>
<trkpt lat="30.8970100" lon="34.7561100">
<ele>421.009979</ele>
<time>2023-03-22T13:56:01.966Z</time>
</trkpt>
<trkpt lat="30.8970900" lon="34.7565200">
<ele>422.989990</ele>
<time>2023-03-22T13:56:01.966Z</time>
</trkpt>
<trkpt lat="30.8971300" lon="34.7566500">
<ele>424.510010</ele>
<time>2023-03-22T13:56:01.966Z</time>
</trkpt>
<trkpt lat="30.8972100" lon="34.7567400">
<ele>425.809998</ele>
<time>2023-03-22T13:56:01.966Z</time>
</trkpt>
<trkpt lat="30.8974500" lon="34.7568100">
<ele>432.959991</ele>
<time>2023-03-22T13:56:01.966Z</time>
</trkpt>
<trkpt lat="30.8976000" lon="34.7568900">
<ele>434.050018</ele>
<time>2023-03-22T13:56:01.966Z</time>
</trkpt>
<trkpt lat="30.8977500" lon="34.7570600">
<ele>433.209991</ele>
<time>2023-03-22T13:56:01.966Z</time>
</trkpt>
<trkpt lat="30.8979200" lon="34.7572200">
<ele>431.500000</ele>
<time>2023-03-22T13:56:01.966Z</time>
</trkpt>
<trkpt lat="30.8980300" lon="34.7574100">
<ele>430.290009</ele>
<time>2023-03-22T13:56:01.966Z</time>
</trkpt>
<trkpt lat="30.8981100" lon="34.7576500">
<ele>429.980011</ele>
<time>2023-03-22T13:56:01.966Z</time>
</trkpt>
<trkpt lat="30.8982100" lon="34.7580900">
<ele>428.580017</ele>
<time>2023-03-22T13:56:01.966Z</time>
</trkpt>
<trkpt lat="30.8982700" lon="34.7582500">
<ele>429.309967</ele>
<time>2023-03-22T13:56:01.966Z</time>
</trkpt>
<trkpt lat="30.8984200" lon="34.7585400">
<ele>431.799988</ele>
<time>2023-03-22T13:56:01.966Z</time>
</trkpt>
<trkpt lat="30.8986700" lon="34.7589400">
<ele>434.679993</ele>
<time>2023-03-22T13:56:01.966Z</time>
</trkpt>
<trkpt lat="30.8987700" lon="34.7591200">
<ele>436.190002</ele>
<time>2023-03-22T13:56:01.966Z</time>
</trkpt>
<trkpt lat="30.8987700" lon="34.7591200">
<ele>436.190002</ele>
<time>2023-03-22T13:56:01.966Z</time>
</trkpt>
<trkpt lat="30.8987700" lon="34.7591200">
<ele>436.190002</ele>
<time>2023-03-22T13:56:01.966Z</time>
</trkpt>
<trkpt lat="30.8990100" lon="34.7595700">
<ele>438.210022</ele>
<time>2023-03-22T13:56:01.966Z</time>
</trkpt>
<trkpt lat="30.8990800" lon="34.7598200">
<ele>439.840027</ele>
<time>2023-03-22T13:56:01.966Z</time>
</trkpt>
<trkpt lat="30.8991200" lon="34.7599700">
<ele>440.199982</ele>
<time>2023-03-22T13:56:01.966Z</time>
</trkpt>
<trkpt lat="30.8991600" lon="34.7600700">
<ele>440.380005</ele>
<time>2023-03-22T13:56:01.966Z</time>
</trkpt>
<trkpt lat="30.8992300" lon="34.7601700">
<ele>439.459991</ele>
<time>2023-03-22T13:56:01.966Z</time>
</trkpt>
<trkpt lat="30.8993600" lon="34.7603100">
<ele>438.269989</ele>
<time>2023-03-22T13:56:01.966Z</time>
</trkpt>
<trkpt lat="30.8994400" lon="34.7604200">
<ele>438.009979</ele>
<time>2023-03-22T13:56:01.966Z</time>
</trkpt>
<trkpt lat="30.8995300" lon="34.7606300">
<ele>436.519989</ele>
<time>2023-03-22T13:56:01.966Z</time>
</trkpt>
<trkpt lat="30.8997000" lon="34.7612600">
<ele>437.279999</ele>
<time>2023-03-22T13:56:01.966Z</time>
</trkpt>
<trkpt lat="30.8997800" lon="34.7615100">
<ele>438.970001</ele>
<time>2023-03-22T13:56:01.966Z</time>
</trkpt>
<trkpt lat="30.8999500" lon="34.7619100">
<ele>439.979980</ele>
<time>2023-03-22T13:56:01.966Z</time>
</trkpt>
<trkpt lat="30.9001400" lon="34.7622800">
<ele>438.800018</ele>
<time>2023-03-22T13:56:01.966Z</time>
</trkpt>
<trkpt lat="30.9003000" lon="34.7625400">
<ele>437.940002</ele>
<time>2023-03-22T13:56:01.966Z</time>
</trkpt>
<trkpt lat="30.9005800" lon="34.7628100">
<ele>437.480011</ele>
<time>2023-03-22T13:56:01.966Z</time>
</trkpt>
<trkpt lat="30.9007200" lon="34.7630100">
<ele>433.559998</ele>
<time>2023-03-22T13:56:01.966Z</time>
</trkpt>
<trkpt lat="30.9009900" lon="34.7636400">
<ele>427.649994</ele>
<time>2023-03-22T13:56:01.966Z</time>
</trkpt>
<trkpt lat="30.9011800" lon="34.7639000">
<ele>427.340027</ele>
<time>2023-03-22T13:56:01.966Z</time>
</trkpt>
<trkpt lat="30.9013200" lon="34.7642300">
<ele>428.600006</ele>
<time>2023-03-22T13:56:01.966Z</time>
</trkpt>
<trkpt lat="30.9015000" lon="34.7645300">
<ele>432.200012</ele>
<time>2023-03-22T13:56:01.966Z</time>
</trkpt>
<trkpt lat="30.9015400" lon="34.7646300">
<ele>433.179993</ele>
<time>2023-03-22T13:56:01.966Z</time>
</trkpt>
<trkpt lat="30.9016200" lon="34.7649100">
<ele>434.109985</ele>
<time>2023-03-22T13:56:01.966Z</time>
</trkpt>
<trkpt lat="30.9016200" lon="34.7650800">
<ele>434.119995</ele>
<time>2023-03-22T13:56:01.966Z</time>
</trkpt>
<trkpt lat="30.9016200" lon="34.7650800">
<ele>434.119995</ele>
<time>2023-03-22T13:56:01.966Z</time>
</trkpt>
<trkpt lat="30.9016300" lon="34.7652100">
<ele>434.029999</ele>
<time>2023-03-22T13:56:01.966Z</time>
</trkpt>
<trkpt lat="30.9016500" lon="34.7654000">
<ele>433.559998</ele>
<time>2023-03-22T13:56:01.966Z</time>
</trkpt>
<trkpt lat="30.9016600" lon="34.7656100">
<ele>432.420013</ele>
<time>2023-03-22T13:56:01.966Z</time>
</trkpt>
<trkpt lat="30.9016500" lon="34.7657000">
<ele>431.470001</ele>
<time>2023-03-22T13:56:01.966Z</time>
</trkpt>
<trkpt lat="30.9015700" lon="34.7658600">
<ele>430.129974</ele>
<time>2023-03-22T13:56:01.966Z</time>
</trkpt>
<trkpt lat="30.9014600" lon="34.7660000">
<ele>429.839996</ele>
<time>2023-03-22T13:56:01.966Z</time>
</trkpt>
<trkpt lat="30.9012300" lon="34.7663400">
<ele>428.150024</ele>
<time>2023-03-22T13:56:01.966Z</time>
</trkpt>
<trkpt lat="30.9011600" lon="34.7664000">
<ele>428.029999</ele>
<time>2023-03-22T13:56:01.966Z</time>
</trkpt>
<trkpt lat="30.9009300" lon="34.7665200">
<ele>425.410004</ele>
<time>2023-03-22T13:56:01.966Z</time>
</trkpt>
<trkpt lat="30.9007400" lon="34.7666500">
<ele>424.089996</ele>
<time>2023-03-22T13:56:01.966Z</time>
</trkpt>
<trkpt lat="30.9006500" lon="34.7667700">
<ele>424.359985</ele>
<time>2023-03-22T13:56:01.966Z</time>
</trkpt>
<trkpt lat="30.9005900" lon="34.7669000">
<ele>424.049988</ele>
<time>2023-03-22T13:56:01.966Z</time>
</trkpt>
<trkpt lat="30.9005500" lon="34.7671000">
<ele>424.699982</ele>
<time>2023-03-22T13:56:01.966Z</time>
</trkpt>
<trkpt lat="30.9005500" lon="34.7672000">
<ele>425.010010</ele>
<time>2023-03-22T13:56:01.966Z</time>
</trkpt>
<trkpt lat="30.9006000" lon="34.7673800">
<ele>425.809998</ele>
<time>2023-03-22T13:56:01.966Z</time>
</trkpt>
<trkpt lat="30.9006200" lon="34.7675700">
<ele>426.140015</ele>
<time>2023-03-22T13:56:01.966Z</time>
</trkpt>
<trkpt lat="30.9006400" lon="34.7678500">
<ele>425.679993</ele>
<time>2023-03-22T13:56:01.966Z</time>
</trkpt>
<trkpt lat="30.9006200" lon="34.7679600">
<ele>427.440002</ele>
<time>2023-03-22T13:56:01.966Z</time>
</trkpt>
<trkpt lat="30.9005800" lon="34.7680200">
<ele>428.969971</ele>
<time>2023-03-22T13:56:01.966Z</time>
</trkpt>
<trkpt lat="30.9003500" lon="34.7684200">
<ele>429.170013</ele>
<time>2023-03-22T13:56:01.966Z</time>
</trkpt>
<trkpt lat="30.9002900" lon="34.7686900">
<ele>428.369995</ele>
<time>2023-03-22T13:56:01.966Z</time>
</trkpt>
<trkpt lat="30.9002900" lon="34.7692500">
<ele>426.310028</ele>
<time>2023-03-22T13:56:01.966Z</time>
</trkpt>
<trkpt lat="30.9001900" lon="34.7694700">
<ele>426.750000</ele>
<time>2023-03-22T13:56:01.966Z</time>
</trkpt>
<trkpt lat="30.9001100" lon="34.7696100">
<ele>426.149994</ele>
<time>2023-03-22T13:56:01.966Z</time>
</trkpt>
<trkpt lat="30.9000500" lon="34.7696900">
<ele>425.049988</ele>
<time>2023-03-22T13:56:01.966Z</time>
</trkpt>
<trkpt lat="30.8996700" lon="34.7700700">
<ele>422.679993</ele>
<time>2023-03-22T13:56:01.966Z</time>
</trkpt>
<trkpt lat="30.8995000" lon="34.7703000">
<ele>419.500000</ele>
<time>2023-03-22T13:56:01.966Z</time>
</trkpt>
<trkpt lat="30.8993400" lon="34.7704800">
<ele>417.709991</ele>
<time>2023-03-22T13:56:01.966Z</time>
</trkpt>
<trkpt lat="30.8989100" lon="34.7709000">
<ele>411.940002</ele>
<time>2023-03-22T13:56:01.966Z</time>
</trkpt>
<trkpt lat="30.8988400" lon="34.7709600">
<ele>413.009979</ele>
<time>2023-03-22T13:56:01.966Z</time>
</trkpt>
<trkpt lat="30.8988400" lon="34.7709600">
<ele>413.009979</ele>
<time>2023-03-22T13:56:01.966Z</time>
</trkpt>
<trkpt lat="30.8988400" lon="34.7709600">
<ele>413.009979</ele>
<time>2023-03-22T13:56:01.966Z</time>
</trkpt>
<trkpt lat="30.8988400" lon="34.7709600">
<ele>413.009979</ele>
<time>2023-03-22T13:56:01.966Z</time>
</trkpt>
<trkpt lat="30.8986700" lon="34.7711000">
<ele>414.519989</ele>
<time>2023-03-22T13:56:01.966Z</time>
</trkpt>
<trkpt lat="30.8983900" lon="34.7713200">
<ele>421.369995</ele>
<time>2023-03-22T13:56:01.966Z</time>
</trkpt>
<trkpt lat="30.8978600" lon="34.7718200">
<ele>425.940002</ele>
<time>2023-03-22T13:56:01.966Z</time>
</trkpt>
<trkpt lat="30.8974100" lon="34.7722200">
<ele>428.639984</ele>
<time>2023-03-22T13:56:01.966Z</time>
</trkpt>
<trkpt lat="30.8973500" lon="34.7723000">
<ele>429.489990</ele>
<time>2023-03-22T13:56:01.966Z</time>
</trkpt>
<trkpt lat="30.8972500" lon="34.7723800">
<ele>430.420013</ele>
<time>2023-03-22T13:56:01.966Z</time>
</trkpt>
<trkpt lat="30.8970700" lon="34.7724200">
<ele>430.869995</ele>
<time>2023-03-22T13:56:01.966Z</time>
</trkpt>
<trkpt lat="30.8968300" lon="34.7724300">
<ele>429.459991</ele>
<time>2023-03-22T13:56:01.966Z</time>
</trkpt>
<trkpt lat="30.8966300" lon="34.7724800">
<ele>426.589996</ele>
<time>2023-03-22T13:56:01.966Z</time>
</trkpt>
<trkpt lat="30.8963700" lon="34.7725800">
<ele>422.859985</ele>
<time>2023-03-22T13:56:01.966Z</time>
</trkpt>
<trkpt lat="30.8961200" lon="34.7727200">
<ele>421.059998</ele>
<time>2023-03-22T13:56:01.966Z</time>
</trkpt>
<trkpt lat="30.8954500" lon="34.7730100">
<ele>428.850006</ele>
<time>2023-03-22T13:56:01.966Z</time>
</trkpt>
<trkpt lat="30.8946300" lon="34.7732900">
<ele>430.500000</ele>
<time>2023-03-22T13:56:01.966Z</time>
</trkpt>
<trkpt lat="30.8939200" lon="34.7735500">
<ele>444.760010</ele>
<time>2023-03-22T13:56:01.966Z</time>
</trkpt>
<trkpt lat="30.8930800" lon="34.7738300">
<ele>439.559998</ele>
<time>2023-03-22T13:56:01.966Z</time>
</trkpt>
<trkpt lat="30.8924500" lon="34.7740700">
<ele>440.489990</ele>
<time>2023-03-22T13:56:01.966Z</time>
</trkpt>
<trkpt lat="30.8919200" lon="34.7742200">
<ele>442.419983</ele>
<time>2023-03-22T13:56:01.966Z</time>
</trkpt>
<trkpt lat="30.8916600" lon="34.7743100">
<ele>443.550018</ele>
<time>2023-03-22T13:56:01.966Z</time>
</trkpt>
<trkpt lat="30.8912900" lon="34.7744700">
<ele>444.559998</ele>
<time>2023-03-22T13:56:01.966Z</time>
</trkpt>
<trkpt lat="30.8912100" lon="34.7745000">
<ele>443.269989</ele>
<time>2023-03-22T13:56:01.966Z</time>
</trkpt>
<trkpt lat="30.8912100" lon="34.7745000">
<ele>443.269989</ele>
<time>2023-03-22T13:56:01.966Z</time>
</trkpt>
<trkpt lat="30.8912100" lon="34.7745000">
<ele>443.269989</ele>
<time>2023-03-22T13:56:01.966Z</time>
</trkpt>
<trkpt lat="30.8904000" lon="34.7747300">
<ele>438.959991</ele>
<time>2023-03-22T13:56:01.966Z</time>
</trkpt>
<trkpt lat="30.8901600" lon="34.7747700">
<ele>438.699982</ele>
<time>2023-03-22T13:56:01.966Z</time>
</trkpt>
<trkpt lat="30.8895900" lon="34.7747900">
<ele>444.809998</ele>
<time>2023-03-22T13:56:01.966Z</time>
</trkpt>
<trkpt lat="30.8892200" lon="34.7748400">
<ele>446.330017</ele>
<time>2023-03-22T13:56:01.966Z</time>
</trkpt>
<trkpt lat="30.8887700" lon="34.7749200">
<ele>445.889984</ele>
<time>2023-03-22T13:56:01.966Z</time>
</trkpt>
<trkpt lat="30.8883200" lon="34.7749900">
<ele>444.269989</ele>
<time>2023-03-22T13:56:01.966Z</time>
</trkpt>
<trkpt lat="30.8878100" lon="34.7750300">
<ele>448.130005</ele>
<time>2023-03-22T13:56:01.966Z</time>
</trkpt>
<trkpt lat="30.8872900" lon="34.7750600">
<ele>453.620026</ele>
<time>2023-03-22T13:56:01.966Z</time>
</trkpt>
<trkpt lat="30.8869100" lon="34.7750900">
<ele>451.970001</ele>
<time>2023-03-22T13:56:01.966Z</time>
</trkpt>
<trkpt lat="30.8866700" lon="34.7751400">
<ele>447.070007</ele>
<time>2023-03-22T13:56:01.966Z</time>
</trkpt>
<trkpt lat="30.8862000" lon="34.7751400">
<ele>443.990021</ele>
<time>2023-03-22T13:56:01.966Z</time>
</trkpt>
<trkpt lat="30.8856000" lon="34.7751600">
<ele>443.690002</ele>
<time>2023-03-22T13:56:01.966Z</time>
</trkpt>
<trkpt lat="30.8853300" lon="34.7752400">
<ele>442.459991</ele>
<time>2023-03-22T13:56:01.966Z</time>
</trkpt>
<trkpt lat="30.8847300" lon="34.7753200">
<ele>443.679993</ele>
<time>2023-03-22T13:56:01.966Z</time>
</trkpt>
<trkpt lat="30.8839400" lon="34.7754000">
<ele>440.410004</ele>
<time>2023-03-22T13:56:01.966Z</time>
</trkpt>
<trkpt lat="30.8834600" lon="34.7754500">
<ele>437.779999</ele>
<time>2023-03-22T13:56:01.966Z</time>
</trkpt>
<trkpt lat="30.8831100" lon="34.7755000">
<ele>441.330017</ele>
<time>2023-03-22T13:56:01.966Z</time>
</trkpt>
<trkpt lat="30.8825100" lon="34.7761300">
<ele>447.309998</ele>
<time>2023-03-22T13:56:01.966Z</time>
</trkpt>
<trkpt lat="30.8819400" lon="34.7769300">
<ele>449.800018</ele>
<time>2023-03-22T13:56:01.966Z</time>
</trkpt>
<trkpt lat="30.8816800" lon="34.7773900">
<ele>445.620026</ele>
<time>2023-03-22T13:56:01.966Z</time>
</trkpt>
<trkpt lat="30.8814200" lon="34.7778500">
<ele>448.060028</ele>
<time>2023-03-22T13:56:01.966Z</time>
</trkpt>
<trkpt lat="30.8811700" lon="34.7783200">
<ele>449.739990</ele>
<time>2023-03-22T13:56:01.966Z</time>
</trkpt>
<trkpt lat="30.8809100" lon="34.7787800">
<ele>452.760010</ele>
<time>2023-03-22T13:56:01.966Z</time>
</trkpt>
<trkpt lat="30.8806500" lon="34.7792400">
<ele>451.799988</ele>
<time>2023-03-22T13:56:01.966Z</time>
</trkpt>
<trkpt lat="30.8803900" lon="34.7797000">
<ele>451.180023</ele>
<time>2023-03-22T13:56:01.966Z</time>
</trkpt>
<trkpt lat="30.8801300" lon="34.7801600">
<ele>451.619995</ele>
<time>2023-03-22T13:56:01.966Z</time>
</trkpt>
<trkpt lat="30.8798800" lon="34.7806300">
<ele>450.750000</ele>
<time>2023-03-22T13:56:01.966Z</time>
</trkpt>
<trkpt lat="30.8796200" lon="34.7810900">
<ele>450.450012</ele>
<time>2023-03-22T13:56:01.966Z</time>
</trkpt>
<trkpt lat="30.8793600" lon="34.7815500">
<ele>453.470001</ele>
<time>2023-03-22T13:56:01.966Z</time>
</trkpt>
<trkpt lat="30.8793600" lon="34.7815500">
<ele>453.470001</ele>
<time>2023-03-22T13:56:01.966Z</time>
</trkpt>
<trkpt lat="30.8789500" lon="34.7822900">
<ele>454.410004</ele>
<time>2023-03-22T13:56:01.966Z</time>
</trkpt>
<trkpt lat="30.8784600" lon="34.7832300">
<ele>453.849976</ele>
<time>2023-03-22T13:56:01.966Z</time>
</trkpt>
<trkpt lat="30.8781100" lon="34.7838300">
<ele>450.910004</ele>
<time>2023-03-22T13:56:01.966Z</time>
</trkpt>
<trkpt lat="30.8779200" lon="34.7840600">
<ele>448.600006</ele>
<time>2023-03-22T13:56:01.966Z</time>
</trkpt>
<trkpt lat="30.8776500" lon="34.7843000">
<ele>450.800018</ele>
<time>2023-03-22T13:56:01.966Z</time>
</trkpt>
<trkpt lat="30.8772500" lon="34.7846700">
<ele>457.420013</ele>
<time>2023-03-22T13:56:01.966Z</time>
</trkpt>
<trkpt lat="30.8770800" lon="34.7848400">
<ele>458.110016</ele>
<time>2023-03-22T13:56:01.966Z</time>
</trkpt>
<trkpt lat="30.8769900" lon="34.7849200">
<ele>457.510010</ele>
<time>2023-03-22T13:56:01.966Z</time>
</trkpt>
<trkpt lat="30.8767700" lon="34.7851900">
<ele>456.279968</ele>
<time>2023-03-22T13:56:01.966Z</time>
</trkpt>
<trkpt lat="30.8764600" lon="34.7854700">
<ele>453.490021</ele>
<time>2023-03-22T13:56:01.966Z</time>
</trkpt>
<trkpt lat="30.8761600" lon="34.7857500">
<ele>453.629974</ele>
<time>2023-03-22T13:56:01.966Z</time>
</trkpt>
<trkpt lat="30.8760000" lon="34.7859200">
<ele>454.350006</ele>
<time>2023-03-22T13:56:01.966Z</time>
</trkpt>
<trkpt lat="30.8759100" lon="34.7860100">
<ele>455.009979</ele>
<time>2023-03-22T13:56:01.966Z</time>
</trkpt>
<trkpt lat="30.8757700" lon="34.7862500">
<ele>458.179993</ele>
<time>2023-03-22T13:56:01.966Z</time>
</trkpt>
<trkpt lat="30.8756300" lon="34.7863200">
<ele>460.450012</ele>
<time>2023-03-22T13:56:01.966Z</time>
</trkpt>
<trkpt lat="30.8757600" lon="34.7859800">
<ele>455.869995</ele>
<time>2023-03-22T13:56:01.966Z</time>
</trkpt>
<trkpt lat="30.8757600" lon="34.7859600">
<ele>455.729980</ele>
<time>2023-03-22T13:56:01.966Z</time>
</trkpt>
</trkseg>
</trk>
</gpx>
